     2              OBSERVATION DATA    GPS                 RINEX VERSION / TYPE
teqc 2000Feb29 20021017 22:04:20UTC                         PGM / RUN BY / DATE
                                                            COMMENT
L2: 1 -> 1; 5 -> 5; 60 -> 9                                 COMMENT
L2: 1 -> 1; 5 -> 5; 60 -> 9                                 COMMENT
L2: 1 -> 1; 5 -> 5; 60 -> 9                                 COMMENT
L2: 1 -> 1; 5 -> 5; 60 -> 9                                 COMMENT
L2: 1 -> 1; 5 -> 5; 60 -> 9                                 COMMENT
Original Marker Name: 1200                                  COMMENT
Campaign Name: Yolo County Subsidence 2002                  COMMENT
4-Character Station Name: 1200                              COMMENT
6-Character Antenna Code: TRMCMP                            COMMENT
Vertical Measurement Point: BPA                             COMMENT
Vertical Offset to Rinex Ref. Point: 0.0000                 COMMENT
Radial Measurement Point: RRP                               COMMENT
Radial Offset to Rinex Ref. Point: 0.0000                   COMMENT
Antenna Height from Field Measurement: 2.0000 m             COMMENT
Additional Antenna Identification Info.:                    COMMENT
Model 22020.00+GP                                           COMMENT
Original XYZ: -2582021.1729 -4256338.0108 3973864.9812      COMMENT
New XYZ position is based on association with SCEC monument COMMENT
E1O4I6F8+0011. Position of that monument is believed to be  COMMENT
valid to within 1 m horizontally; vertical accuracy         COMMENT
should be no worse than 3-times this value.                 COMMENT
                                                            COMMENT
Revised Rinex header created by UCSD GPS archive for        COMMENT
GSAC on 27-Jun-2003 (2003:178) 16:46:18 GMT                 COMMENT
For assistance contact dagnew@ucsd.edu                      COMMENT
or anderson@python.ucsd.edu                                 COMMENT
                                                            COMMENT
G1200 1969                                                  MARKER NAME
1200                                                        MARKER NUMBER
-Unknown- YOLO_COUNTY                                       OBSERVER / AGENCY
16898 TRIMBLE 4000 SSI NP 7.32; SP 3.08                     REC # / TYPE / VERS
68628 TR GEOD L1/L2 GP                                      ANT # / TYPE
 -2582020.8252 -4256334.6372  3973862.9498                  APPROX POSITION XYZ
        2.0000        0.0000        0.0000                  ANTENNA: DELTA H/E/N
     1     1     0                                          WAVELENGTH FACT L1/2
     7    C1    L1    L2    P1    P2    S1    S2            # / TYPES OF OBSERV
     0                                                      INTERVAL
  2002     7     1    14    51   45.000000                  TIME OF FIRST OBS
  2002     7     1    20     2    0.000000                  TIME OF LAST OBS
                                                            END OF HEADER
 02  7  1 14 51 45.0000000  0  8G 5G 6G10G15G17G30G23G24
  23052990.3834     168735.92956     95018.95856                  23052997.8404
        16.2504         16.0004
  20978774.1884     -30635.75058
        28.0004
  21354197.6484      72850.66657     56766.11057                  21354205.3984
        27.2504         27.2504
  23668457.9304     -99841.44055    -55867.58055                  23668467.8594
        11.2504         11.5004
  22664883.7194     -73172.30956    -40878.69356                  22664891.5984
        17.0004         19.0004
  21163866.5634      22026.52358
        30.0004
  21492884.8834     -54503.73357    -34365.21057                  21492892.2814
        26.5004         26.7504
  24280864.8984     145215.50056     63392.74555                  24280874.1024
        12.0004         11.7504
 02  7  1 14 52  0.0000000  0  8G 5G 6G10G15G17G30G23G24
  23064307.0704     228206.59646    141359.70246                  23064315.4654
        15.7504         16.0004
  20976584.0864     -42143.74647
        27.7504
  21359186.2734      99065.27347     77193.06247                  21359194.1294
        27.7504         27.5004
  23661946.7344    -134058.13945    -82529.91545                  23661955.1414
        11.0004         11.7504
  22660146.1804     -98069.07246    -60278.75246                  22660154.2234
        16.2504         18.5004
  21171779.3054      63608.33348
        30.0004
  21489409.8594     -72765.67747    -48595.29247                  21489416.8484
        27.2504         26.7504
  24290601.4144     196383.07246    103263.54745                  24290610.2194
        12.2504         11.2504
 02  7  1 14 52 15.0000000  0  8G 5G 6G10G15G17G30G23G24
  23075677.4064     287957.76146    187919.00846                  23075685.5904
        16.0004         15.5004
  20974450.7584     -53355.46447     -6970.83257                  20974457.3094
        27.7504         27.0004
  21364246.8054     125658.20148     97914.80347                  21364254.7774
        28.0004         27.7504
  23655487.8284    -167998.02245   -108976.53945                  23655497.1254
        11.2504         11.7504
  22655462.8834    -122680.09646    -79456.16246                  22655470.6454
        17.5004         18.2504
  21179758.2814     105539.00848      4368.98157                  21179764.4344
        30.2504         28.7504
  21486001.3134     -90677.65947    -62552.67547                  21486008.3594
        27.2504         26.7504
  24300381.8674     247780.23545    143313.22845                  24300390.2504
        11.5004         10.5004
 02  7  1 14 52 30.0000000  0  8G 5G 6G10G15G17G30G23G24
  23087097.5474     347969.95246    234681.70746                  23087105.6604
        16.0004         15.5004
  20972370.0704     -64289.84647    -15491.13347                  20972376.4574
        27.7504         26.7504
  21369375.5314     152610.13248    118916.29847                  21369383.1294
        28.2504         28.0004
  23649078.3754    -201680.12845   -135222.31345                  23649087.7074
        11.7504         11.5004
  22650830.2194    -147024.19246    -98425.57446                  22650837.4884
        18.2504         18.5004
  21187800.3594     147799.21148     37298.98247                  21187807.1564
        30.7504         29.2504
  21482655.7034    -108258.58247    -76252.09747                  21482662.9384
        27.0004         27.0004
  24310202.9304     299387.74445    183526.81545                  24310211.8524
        11.5004         10.5004
 02  7  1 14 52 45.0000000  0  8G 5G 6G10G15G17G30G23G24
  23098564.0474     408227.52646    281635.61646                  23098572.2774
        15.7504         15.7504
  20970339.2504     -74961.99647    -23807.10147                  20970345.7774
        27.2504         26.7504
  21374569.9224     179905.53448    140185.43147                  21374577.4024
        28.2504         28.0004
  23642715.0634    -235119.62146   -161279.04246                  23642724.2074
        12.5004         12.2504
  22646245.6254    -171116.68946   -117198.93846                  22646252.8014
        18.0004         19.0004
  21195902.0164     190373.36048     70473.60647                  21195909.0274
        29.2504         29.2504
  21479370.2034    -125523.52147    -89705.28047                  21479377.4144
        26.7504         26.7504
  24320060.2894     351190.14545    223892.28345                  24320069.1174
        10.7504         10.0004
 02  7  1 14 53  0.0000000  0  8G 5G 6G10G15G17G30G23G24
  23110074.0704     468712.59146    328766.80646                  23110082.2074
        16.0004         15.7504
  20968354.9844     -85389.39547    -31932.35247                  20968361.3244
        27.2504         26.7504
  21379825.9774     207526.53548    161708.26747                  21379833.2584
        29.0004         28.2504
  23636394.6884    -268334.09846   -187160.42346                  23636403.8914
        12.5004         12.0004
  22641705.5784    -194975.28246   -135790.03046                  22641713.1294
        18.0004         19.0004
  21204059.8834     233243.57048    103878.94047                  21204066.8364
        28.2504         28.7504
  21476141.8284    -142489.96647   -102925.89247                  21476148.9224
        27.0004         27.0004
  24329952.0864     403169.82145    264395.86045                  24329960.2704
        11.0004         10.2504
 02  7  1 14 53 15.0000000  0  8G 5G 6G10G15G17G30G23G24
  23121626.8914     529424.92046    376075.06946                  23121634.6524
        16.5004         15.5004
  20966417.4924     -95571.74947    -39866.65847                  20966423.6914
        27.7504         26.7504
  21385143.8834     235473.04448    183484.76047                  21385151.0004
        29.0004         28.0004
  23630117.1094    -301323.35046   -212866.32946                  23630126.6054
        12.7504         12.7504
  22637209.6724    -218599.76046   -154198.71046                  22637217.6454
        17.0004         19.0004
  21212274.1644     276409.59948    137514.78247                  21212280.6564
        28.7504         28.2504
  21472970.2114    -159157.60947   -115913.66547                  21472977.2934
        27.0004         26.7504
  24339876.8524     455326.61145    305037.49545                  24339884.6484
        11.7504         10.7504
 02  7  1 14 53 30.0000000  0  8G 5G 6G10G15G17G30G23G24
  23133219.3834     590344.12646    423544.53946                  23133228.0594
        15.7504         15.2504
  20964522.5234    -105528.95748    -47625.53047                  20964528.6764
        28.2504         26.7504
  21390520.0394     263724.85448    205499.14347                  21390527.2854
        28.0004         28.0004
  23623877.9924    -334107.40546   -238412.30846                  23623887.1724
        12.5004         12.2504
  22632755.0554    -242010.27746   -172440.64546                  22632763.5204
        16.7504         19.0004
  21220540.6954     319851.17348    171365.33347                  21220547.3054
        29.5004         28.2504
  21469851.3524    -175546.37547   -128684.12847                  21469858.3524
        27.5004         26.7504
  24349832.5474     507640.45145    345801.49945                  24349841.4924
        11.5004         10.0004
 02  7  1 14 53 45.0000000  0  8G 5G 6G10G15G17G30G23G24
  23144851.3914     651470.90246    471175.75346                  23144860.1484
        15.0004         15.7504
  20962671.0084    -115259.77448    -55207.99547                  20962677.1374
        28.7504         27.0004
  21395954.6644     292282.84648    227752.10747                  21395961.9694
        28.7504         28.0004
  23617678.7974    -366685.11946   -263797.50946                  23617687.6024
        13.5004         12.5004
  22628341.0634    -265205.58946   -190514.90146                  22628349.1994
        17.7504         19.0004
  21228860.2504     363569.02248    205431.15147                  21228866.7774
        28.7504         28.2504
  21466786.1334    -191654.99747   -141236.30047                  21466792.9654
        27.2504         26.5004
  24359817.5004     560112.19245    386688.51545                  24359826.3404
        11.7504          9.7504
 02  7  1 14 54  0.0000000  0  8G 5G 6G10G15G17G30G23G24
  23156519.2114     712784.95446    518952.88246                  23156528.3324
        14.2504         15.7504
  20960858.4844    -124783.99248    -62629.46547                  20960864.8834
        28.7504         27.0004
  21401443.3834     321126.80548    250227.90247                  21401450.7704
        29.2504         28.2504
  23611515.4614    -399076.47246   -289037.50746                  23611524.5594
        13.2504         13.0004
  22623963.8984    -288205.86046   -208437.17246                  22623971.4494
        17.5004         18.7504
  21237228.1884     407542.94148    239696.51847                  21237234.2584
        29.5004         28.0004
  21463770.3284    -207503.29347   -153585.61647                  21463777.2584
        27.7504         26.7504
  24369828.6024     612721.84845    427683.03845                  24369836.8444
        11.2504          9.7504
 02  7  1 14 54 15.0000000  0  8G 5G 6G10G15G17G30G23G24
  23168222.1254     774282.62846    566873.08946                  23168231.5864
        14.5004         15.2504
  20959084.6954    -134104.80748    -69892.43947                  20959091.1294
        29.0004         27.0004
  21406986.0084     350253.06848    272923.67447                  21406993.3714
        30.0004         28.2504
  23605386.5474    -431284.70946   -314134.82446                  23605395.3404
        13.5004         13.0004
  22619623.9454    -311014.30346   -226209.97446                  22619631.8244
        17.2504         18.7504
  21245644.2114     451769.21948    274158.53247                  21245650.3404
        29.0004         28.0004
  21460803.1564    -223094.41447   -165734.53747                  21460810.1094
        27.2504         26.7504
  24379865.9844     665465.84946    468782.19345                  24379875.1524
        12.5004         10.2504
 02  7  1 14 54 30.0000000  0  8G 5G 6G10G15G17G30G23G24
  23179960.5084     835967.09646    614938.86246                  23179969.7344
        15.2504         15.5004
  20957350.3754    -143218.46648    -76993.99547                  20957356.7734
        28.5004         27.0004
  21412582.8284     379665.12248    295842.14047                  21412590.0744
        29.0004         28.0004
  23599292.8914    -463306.24046   -339086.63146                  23599301.6724
        13.2504         12.7504
  22615320.7114    -333627.28746   -243830.46746                  22615329.2114
        16.7504         19.0004
  21254108.9224     496251.19048    308819.78147                  21254115.3204
        29.0004         28.0004
  21457885.9844    -238424.63147   -177680.15947                  21457892.7934
        26.2504         26.2504
  24389928.3204     718347.77646    509988.86045                  24389936.6214
        12.5004          9.5004
 02  7  1 14 54 45.0000000  0  8G 5G 6G10G15G17G30G23G24
  23191732.6414     897829.70746    663143.46746                  23191740.6844
        15.5004         15.0004
  20955654.1414    -152133.10347    -83940.46847                  20955660.6094
        27.7504         27.0004
  21418232.5864     409354.40548    318976.63547                  21418239.4184
        29.2504         27.7504
  23593233.3834    -495149.28846   -363899.36546                  23593241.9654
        14.0004         13.2504
  22611052.9694    -356053.14646   -261305.13846                  22611061.4804
        17.0004         19.2504
  21262620.3834     540980.24048    343673.56647                  21262626.6414
        30.0004         27.7504
  21455016.9064    -253502.08147   -189428.81347                  21455023.8954
        26.0004         26.0004
  24400016.7034     771359.12646    551296.40745                  24400025.7304
        12.2504          9.5004
 02  7  1 14 55  0.0000000  0  8G 5G 6G10G15G17G30G23G24
  23203537.4614     959864.84546    711482.49246                  23203545.6684
        14.7504         15.2504
  20953994.7194    -160853.88748    -90735.88947                  20954001.2344
        28.2504         27.0004
  21423933.5314     439315.27448    342322.76247                  21423940.8364
        28.7504         27.5004
  23587207.0004    -526819.03846   -388577.05646                  23587215.7114
        14.5004         13.0004
  22606820.0234    -378297.30346   -278638.22046                  22606828.5944
        17.0004         19.5004
  21271178.1644     585950.71748    378715.47847                  21271184.5984
        29.0004         27.7504
  21452194.8914    -268331.89347   -200984.50847                  21452202.0664
        25.5004         26.5004
  24410127.9694     824494.25345    592700.37045                  24410136.2814
        11.2504          9.7504
 02  7  1 14 55 15.0000000  0  8G 5G 6G10G15G17G30G23G24
  23215374.3594    1022067.66046    759952.17646                  23215383.0594
        14.5004         14.7504
  20952371.1414    -169385.11048    -97383.59947                  20952377.6214
        28.5004         27.0004
  21429686.2034     469543.05848    365876.85147                  21429693.4964
        29.0004         27.5004
  23581212.8834    -558319.98546   -413123.21346                  23581222.1454
        14.5004         13.5004
  22602620.7664    -400364.06246   -295833.08146                  22602629.2664
        17.2504         19.2504
  21279780.4774     631157.85748    413941.79447                  21279787.0634
        28.7504         28.0004
  21449419.1804    -282918.37047   -212350.58147                  21449426.1684
        25.7504         26.2504
  24420261.6644     877748.74745    634197.37745                  24420271.3954
        10.7504          9.2504
 02  7  1 14 55 30.0000000  0  8G 5G 6G10G15G17G30G23G24
  23227241.7894    1084432.77446    808548.32446                  23227251.2384
        14.5004         14.5004
  20950782.9614    -177731.64148   -103887.39247                  20950789.4304
        28.0004         27.0004
  21435487.9384     500032.45548    389634.81347                  21435494.9024
        28.5004         27.2504
  23575249.3054    -589657.16046   -437541.75646                  23575258.9414
        14.7504         13.7504
  22598454.2974    -422258.61146   -312893.75246                  22598463.0904
        17.2504         19.2504
  21288427.2814     676596.36948    449348.39847                  21288433.6564
        29.7504         28.0004
  21446688.6804    -297266.45147   -223530.90347                  21446695.4534
        26.2504         26.2504
  24430417.6024     931117.35945    675783.27845                  24430426.5824
        11.0004          9.5004
 02  7  1 14 55 45.0000000  0  9G 5G 6G10G15G17G30G23G24G29
  23239141.4774    1146965.11246    857274.76946                  23239150.1644
        15.2504         14.7504
  20949230.7034    -185888.03848   -110243.03747                  20949236.9384
        28.7504         27.0004
  21441340.6334     530788.57548    413600.61547                  21441347.3594
        28.5004         27.2504
  23569317.6804    -620825.20046   -461828.50546                  23569327.6914
        14.2504         14.0004
  22594321.8524    -443975.65546   -329816.10146                  22594330.4104
        17.5004         19.2504
  21297118.7974     722271.14348    484939.10347                  21297124.9264
        30.0004         27.7504
  21444004.7424    -311370.71047   -234521.22847                  21444011.5274
        26.5004         26.5004
  24440595.6094     984605.24245    717462.10245                  24440605.3524
        10.7504         10.2504
  24982500.4064      -3643.22054
         6.5004
 02  7  1 14 56  0.0000000  0  9G 5G 6G10G15G17G30G23G24G29
  23251071.1884    1209655.01546    906124.00246                  23251079.4774
        15.2504         14.5004
  20947713.0944    -193863.54448   -116457.72547                  20947719.1414
        28.5004         26.7504
  21447242.4614     561801.81348    437766.76647                  21447249.1524
        29.0004         27.2504
  23563417.0634    -651833.35746   -485990.66746                  23563426.5944
        14.7504         13.5004
  22590221.2274    -465524.46846   -346607.35446                  22590229.5164
        18.0004         19.7504
  21305853.6254     768172.51048    520706.38347                  21305860.0594
        29.2504         28.0004
  21441365.2974    -325240.27347   -245328.67747                  21441372.1174
        26.7504         26.7504
  24450794.9304    1038203.11945    759226.59345                  24450803.4184
        10.7504         10.0004
  24977313.0234     -30905.72544
         6.5004
 02  7  1 14 56 15.0000000  0  9G 5G 6G10G15G17G30G23G24G29
  23263029.9694    1272499.87946    955093.99846                  23263037.9654
        14.7504         14.2504
  20946229.4694    -201660.18847   -122533.03247                  20946235.5514
        27.7504         26.7504
  21453192.1804     593069.80648    462131.42247                  21453199.0634
        28.7504         27.2504
  23557546.5634    -682683.90346   -510030.02246                  23557556.3874
        15.2504         13.5004
  22586152.4694    -486907.25346   -363269.26246                  22586160.7464
        17.5004         19.5004
  21314631.1724     814298.03248    556648.31147                  21314637.9104
        28.2504         27.7504
  21438770.5474    -338877.17947   -255954.82947                  21438777.4534
        26.2504         26.7504
  24461015.2814    1091908.48446    801074.93545                  24461023.3714
        12.2504         10.5004
  24972148.8674     -58042.71643
         5.7504
 02  7  1 14 56 30.0000000  0  9G 5G 6G10G15G17G30G23G24G29
  23275016.9384    1335491.77546   1004178.56046                  23275024.7344
        14.5004         14.2504
  20944778.3134    -209285.42347   -128474.77347                  20944784.6294
        27.7504         27.0004
  21459189.0474     624584.58948    486688.38547                  21459196.3634
        28.2504         27.2504
  23551704.2114    -713384.42046   -533952.49446                  23551712.8874
        14.7504         13.5004
  22582113.6484    -508131.70546   -379807.78046                  22582121.3164
        18.0004         19.7504
  21323449.5634     860639.75448    592758.72647                  21323456.2424
        28.7504         27.7504
  21436218.3284    -352288.95047   -266405.55447                  21436225.1724
        26.5004         26.7504
  24471253.8284    1145713.54145    843000.90645                  24471262.0824
        11.5004         10.2504
  24967006.6414     -85061.48344
         7.2504
 02  7  1 14 56 45.0000000  0  9G 5G 6G10G15G17G30G23G24G29
  23287032.0864    1398630.65946   1053377.64946                  23287040.5744
        14.0004         14.0004
  20943360.1414    -216738.73847   -134282.55547                  20943366.4804
        27.5004         27.0004
  21465233.2894     656346.24947    511437.71547                  21465240.6524
        27.2504         27.0004
  23545890.9144    -743934.44246   -557757.67146                  23545900.1414
        14.5004         13.2504
  22578104.9454    -529197.46246   -396222.64346                  22578112.6024
        18.7504         20.5004
  21332309.5864     907197.69247    629037.61447                  21332316.5634
        27.5004         28.2504
  21433709.1564    -365475.10047   -276680.47347                  21433716.2854
        26.5004         27.0004
  24481511.4844    1199618.69146    885004.84745                  24481518.5084
        12.0004         11.0004
  24961888.3754    -111961.42745
         7.7504
 02  7  1 14 57  0.0000000  0  9G 5G 6G10G15G17G30G23G24G29
  23299073.9694    1461912.43646   1102688.09346                  23299082.4454
        14.0004         14.0004
  20941973.5554    -224023.72347   -139959.17147                  20941979.9774
        27.7504         27.2504
  21471323.5554     688350.87947    536376.37647                  21471330.6844
        27.7504         26.7504
  23540105.0634    -774337.58846   -581448.40346                  23540114.3364
        13.5004         13.0004
  22574125.6804    -550108.26046   -412516.74046                  22574133.6994
        19.5004         20.5004
  21341209.4694     953967.81747    665481.83647                  21341216.7624
        27.7504         28.0004
  21431242.0004    -378439.16247   -286782.32247                  21431249.1054
        27.2504         27.2504
  24491787.7894    1253619.94046    927083.71845                  24491796.0904
        12.0004         11.2504
  24956790.7734    -138745.76845     -1387.55655                  24956804.3714
         7.5004          5.2504
 02  7  1 14 57 15.0000000  0  9G 5G 6G10G15G17G30G23G24G29
  23311142.2274    1525332.02646   1152105.92446                  23311150.5274
        13.5004         13.7504
  20940618.5864    -231144.95848   -145508.18847                  20940625.2544
        28.2504         27.2504
  21477459.1334     720593.46048    561500.46047                  21477466.3094
        28.0004         27.2504
  23534346.5004    -804598.70946   -605028.46246                  23534356.1724
        13.2504         13.0004
  22570174.7814    -570868.79246   -428693.76346                  22570182.8594
        19.2504         20.2504
  21350149.0474    1000945.09547    702087.48547                  21350156.1524
        27.2504         27.5004
  21428816.3834    -391185.82947   -296714.78947                  21428823.1334
        27.7504         27.2504
  24502081.2274    1307712.45345    969233.68245                  24502090.1024
        10.7504         10.7504
  24951715.2194    -165418.94845    -22171.86545                  24951723.5084
         7.7504          6.0004
 02  7  1 14 57 30.0000000  0  9G 5G 6G10G15G17G30G23G24G29
  23323237.6644    1588896.08446   1201636.29946                  23323246.4454
        13.5004         13.2504
  20939295.9694    -238095.24848   -150924.00247                  20939302.5664
        28.2504         27.2504
  21483641.5554     753080.81547    586815.27147                  21483649.0354
        27.7504         27.5004
  23528616.6884    -834710.71746   -628492.34246                  23528625.4344
        12.7504         13.0004
  22566254.4304    -591472.04446   -444748.22146                  22566262.6254
        19.7504         20.7504
  21359129.0314    1048136.24447    738859.78847                  21359136.1254
        26.0004         27.2504
  21426433.5394    -403707.83947   -306472.18747                  21426440.0434
        26.7504         27.0004
  24512393.6804    1361903.14245   1011460.15146                  24512402.2854
        11.5004         12.0004
  24946662.0704    -191973.78045    -42863.90845                  24946674.8134
         8.0004          6.5004
 02  7  1 14 57 45.0000000  0  9G 5G 6G10G15G17G30G23G24G29
  23335360.2274    1652600.18146   1251275.81146                  23335368.2234
        13.5004         13.5004
  20938005.2974    -244878.46748   -156209.63447                  20938011.7664
        29.0004         27.5004
  21489869.1414     785808.69447    612317.50047                  21489876.7504
        27.0004         27.2504
  23522913.7584    -864677.51846   -651843.05546                  23522923.1724
        13.2504         13.0004
  22562362.6414    -611922.00647   -460683.23446                  22562370.5664
        20.2504         21.0004
  21368149.0864    1095536.89647    775795.34147                  21368156.1914
        26.0004         26.7504
  21424092.7274    -416009.08347   -316057.55947                  21424099.5864
        27.2504         27.0004
  24522723.0474    1416187.82245   1053759.85045                  24522732.7074
        10.0004         10.5004
  24941630.8364    -218413.83645    -63466.42945                  24941641.1644
         7.7504          6.2504
 02  7  1 14 58  0.0000000  0  9G 5G 6G10G15G17G30G23G24G29
  23347507.7274    1716433.58646   1301016.09246                  23347516.1214
        13.5004         13.2504
  20936744.2344    -251504.83548   -161373.03647                  20936750.9384
        28.7504         27.5004
  21496140.7344     818766.14347    637998.61347                  21496148.1684
        27.0004         26.7504
  23517237.3204    -894509.49146   -675088.72646                  23517245.6454
        13.5004         13.0004
  22558498.7274    -632229.18847   -476507.00846                  22558506.2424
        21.5004         20.7504
  21377206.8444    1143136.26247    812885.73247                  21377213.6524
        26.5004         26.7504
  21421791.9144    -428099.84747   -325478.93147                  21421798.6414
        27.7504         26.7504
  24533069.3594    1470555.91045   1096124.55945                  24533079.3134
         9.5004         11.0004
  24936619.1884    -244749.22345    -83987.47145                  24936629.6334
         7.5004          7.0004
 02  7  1 14 58 15.0000000  0  9G 5G 6G10G15G17G30G23G24G29
  23359682.0944    1780409.62646   1350867.51846                  23359690.8054
        13.2504         13.2504
  20935515.8364    -257960.48348   -166403.41347                  20935522.5274
        28.5004         27.0004
  21502458.7114     851966.79247    663869.23647                  21502466.3444
        26.5004         26.7504
  23511588.5084    -924192.91146   -698218.64146                  23511597.6174
        13.0004         13.2504
  22554664.0474    -652379.86547   -492208.83146                  22554671.3874
        21.2504         20.7504
  21386305.0474    1190947.75647    850141.42447                  21386311.7734
        27.0004         26.7504
  21419533.7034    -439966.35147   -334725.54347                  21419540.5354
        26.7504         26.7504
  24543433.8754    1525020.97845   1138564.82745                  24543443.1604
        10.0004         10.7504
  24931630.1024    -270965.78545   -104415.91945                  24931641.6374
         7.7504          6.7504
 02  7  1 14 58 30.0000000  0  9G 5G 6G10G15G17G30G23G24G29
  23371881.3834    1844516.92646   1400821.21746                  23371888.8164
        13.5004         13.7504
  20934317.7584    -264256.29347   -171309.24447                  20934324.2624
        27.5004         27.0004
  21508820.7344     885399.21447    689920.45747                  21508828.3554
        27.0004         26.7504
  23505965.9924    -953738.75546   -721241.34446                  23505975.3484
        12.0004         13.0004
  22550856.9614    -672385.11247   -507797.30846                  22550864.4654
        20.5004         21.2504
  21395441.5704    1238960.01447    887553.55147                  21395448.2034
        27.2504         27.0004
  21417316.2034    -451619.44947   -343805.87247                  21417323.1684
        26.2504         26.7504
  24553814.7194    1579571.93245   1181072.02345                  24553825.2704
         9.2504         10.5004
  24926662.2114    -297074.26144   -124760.13245                  24926668.2584
         7.2504          6.7504
 02  7  1 14 58 45.0000000  0  9G 5G 6G10G15G17G30G23G24G29
  23384105.7194    1908756.13046   1450877.68546                  23384113.3284
        14.2504         14.0004
  20933150.1954    -270391.12147   -176089.63947                  20933156.7584
        26.5004         26.7504
  21515226.8754     919064.39547    716153.06347                  21515234.5204
        27.0004         26.7504
  23500369.8054    -983146.01746   -744156.07846                  23500378.9264
        12.7504         13.2504
  22547078.0864    -692243.95846   -523271.71746                  22547086.3164
        19.7504         21.0004
  21404616.3914    1287173.71247    925122.64147                  21404623.3204
        27.0004         27.0004
  21415139.2114    -463057.95947   -352718.98847                  21415146.0084
        26.5004         26.5004
  24564211.6484    1634209.66045   1223646.81045                  24564221.7194
        10.5004         11.0004
  24921714.0634    -323073.41044   -145019.13345                  24921727.9884
         6.5004          7.0004
 02  7  1 14 59  0.0000000  0  9G 5G 6G10G15G17G30G23G24G29
  23396354.6564    1973124.08346   1501034.49446                  23396362.3244
        15.0004         13.7504
  20932013.0234    -276367.64247   -180746.67147                  20932019.7624
        26.2504         26.5004
  21521676.8754     952959.19147    742564.57947                  21521684.5084
        26.7504         26.7504
  23494799.2194   -1012417.51346   -766965.00846                  23494808.5274
        12.7504         13.0004
  22543326.2194    -711959.04547   -538634.10146                  22543334.4264
        20.2504         21.5004
  21413829.0084    1335585.77047    962846.29647                  21413835.7234
        27.7504         27.0004
  21413003.0234    -474284.52347   -361466.95547                  21413009.8204
        27.2504         26.7504
  24574625.0944    1688931.15245   1266286.88345                  24574633.6884
        11.2504         11.0004
  24916787.0554    -348965.56844   -165194.80845                  24916797.3014
         6.5004          5.7504
 02  7  1 14 59 15.0000000  0  9G 5G 6G10G15G17G30G23G24G29
  23408628.0004    2037622.55946   1551293.02146                  23408635.8554
        14.7504         13.0004
  20930906.1484    -282183.59247   -185278.57247                  20930912.9574
        26.7504         26.7504
  21528170.9614     987085.44747    769156.45647                  21528178.7114
        26.5004         26.7504
  23489255.5864   -1041551.14546   -789666.50646                  23489265.6684
        12.7504         12.7504
  22539602.2974    -731528.54647   -553883.04346                  22539610.1884
        20.0004         21.7504
  21423079.6644    1384197.99547   1000725.93747                  21423086.4614
        27.0004         27.0004
  21410907.5394    -485296.93547   -370048.04947                  21410914.4804
        27.2504         27.0004
  24585054.3594    1743738.44045   1308993.83845                  24585063.7854
        10.0004         10.5004
  24911880.9924    -374748.37344   -185285.26345                  24911890.8874
         6.5004          7.2504
 02  7  1 14 59 30.0000000  0  9G 5G 6G10G15G17G30G23G24G29
  23420926.1954    2102247.96646   1601650.43846                  23420933.7584
        14.5004         12.7504
  20929829.3134    -287842.03147   -189687.74147                  20929835.9574
        26.5004         26.5004
  21534708.4064    1021439.68047    795925.98247                  21534716.2624
        26.7504         26.2504
  23483737.4534   -1070549.93445   -812262.93046                  23483746.1294
        11.7504         12.7504
  22535905.5314    -750955.41547   -569020.84246                  22535913.5744
        20.2504         21.5004
  21432367.7974    1433006.84347   1038758.77947                  21432374.4064
        27.7504         27.0004
  21408852.0784    -496098.23747   -378464.63347                  21408859.4884
        26.5004         27.2504
  24595499.5164    1798628.27245   1351765.07945                  24595508.5084
        10.2504         10.0004
  24906994.5314    -400424.61244   -205292.64045                  24907003.5474
         7.2504          7.0004
 02  7  1 14 59 45.0000000  0  9G 5G 6G10G15G17G30G23G24G29
  23433248.1414    2167000.41046   1652106.84746                  23433255.6564
        14.7504         13.7504
  20928782.6564    -293342.34447   -193973.70447                  20928789.3594
        26.0004         26.2504
  21541289.1954    1056022.03147    822873.25347                  21541296.7344
        26.0004         26.0004
  23478244.7274   -1099413.42445   -834753.93546                  23478253.0514
        11.7504         12.2504
  22532235.8674    -770239.34147   -584047.24846                  22532243.7814
        21.2504         21.2504
  21441693.1804    1482012.34148   1076944.86947                  21441699.4024
        28.7504         27.2504
  21406836.8834    -506687.86847   -386716.27847                  21406844.5164
        26.5004         27.2504
  24605960.8524    1853600.76345   1394600.74345                  24605968.2734
        10.0004          9.2504
  24902129.0314    -425993.61644   -225216.54045                  24902137.1564
         6.2504          6.2504
 02  7  1 15  0  0.0000000  0  9G 5G 6G10G15G17G30G23G24G29
  23445593.2894    2231874.58746   1702658.11546                  23445600.8754
        15.0004         13.5004
  20927765.1484    -298689.25947   -198140.13747                  20927771.8054
        26.0004         26.2504
  21547912.6644    1090827.29547    849994.21447                  21547920.0744
        26.7504         25.7504
  23472777.0164   -1128146.55646   -857143.36046                  23472786.2774
        12.5004         12.2504
  22528592.4694    -789385.21047   -598966.09346                  22528600.1254
        20.7504         21.5004
  21451054.8834    1531209.31248   1115280.15647                  21451061.2344
        28.5004         27.2504
  21404861.3204    -517070.67447   -394806.77747                  21404868.5664
        26.7504         27.2504
  24616436.4224    1908651.02145   1437496.98745                  24616445.0864
        10.0004          9.7504
  24897282.3134    -451459.84444   -245060.26445                  24897291.5274
         6.2504          6.5004
 02  7  1 15  0 15.0000000  0  9G 5G 6G10G15G17G30G23G24G29
  23457961.3914    2296870.46346   1753304.19546                  23457969.2464
        15.0004         13.2504
  20926777.0084    -303882.33847   -202186.69147                  20926783.5234
        26.5004         26.0004
  21554578.1564    1125855.56847    877288.96647                  21554585.5904
        27.7504         26.2504
  23467334.2894   -1156748.95646   -879430.91346                  23467341.8284
        12.2504         12.2504
  22524975.5704    -808392.74447   -613777.15046                  22524983.0044
        20.2504         21.5004
  21460453.4064    1580597.74947   1153764.61847                  21460460.1914
        27.5004         27.2504
  21402924.9384    -527246.14147   -402735.70547                  21402932.5594
        27.0004         27.5004
  24626926.9384    1963779.13345   1480453.89345                  24626935.1914
        11.5004         10.0004
  24892456.0164    -476822.70844   -264823.55245                  24892468.5944
         6.5004          6.0004
 02  7  1 15  0 30.0000000  0  9G 5G 6G10G15G17G30G23G24G29
  23470353.4384    2361989.92246   1804046.59946                  23470360.9184
        13.7504         12.7504
  20925818.4774    -308919.23247   -206111.54647                  20925825.0634
        26.5004         26.0004
  21561286.8594    1161108.87748    904759.06247                  21561294.0004
        29.0004         26.5004
  23461917.0084   -1185218.33546   -901614.83646                  23461925.7074
        12.5004         13.2504
  22521385.2584    -827259.75046   -628478.70046                  22521392.9144
        19.7504         21.2504
  21469888.3444    1630179.53348   1192399.74947                  21469895.0824
        28.0004         27.5004
  21401028.6334    -537211.92848   -410501.24847                  21401036.0314
        28.7504         28.0004
  24637432.9694    2018987.20945   1523473.14445                  24637440.7774
        11.2504         10.5004
  24887649.7814    -502079.65943   -284504.22145                  24887657.3324
         6.0004          6.2504
 02  7  1 15  0 45.0000000  0  9G 5G 6G10G15G17G30G23G24G29
  23482768.4064    2427230.86346   1854883.66646                  23482776.2034
        13.5004         12.7504
  20924889.5864    -313801.42847   -209915.86547                  20924896.2894
        26.5004         26.2504
  21568037.6414    1196585.31447    932403.02647                  21568044.8874
        27.7504         26.2504
  23456524.2814   -1213556.32746   -923696.36046                  23456532.9804
        12.5004         13.2504
  22517821.2734    -845987.83647   -643071.99446                  22517828.9414
        20.2504         22.0004
  21479360.0474    1679952.62847   1231183.96347                  21479366.5044
        27.7504         27.5004
  21399171.7194    -546969.57648   -418104.60447                  21399178.8834
        29.0004         28.2504
  24647953.7584    2074273.48246   1566553.28445                  24647960.7344
        12.2504          9.2504
  24882863.5554    -527231.94143   -304103.31845                  24882871.3524
         5.5004          6.2504
 02  7  1 15  1  0.0000000  0  9G 5G 6G10G15G17G30G23G24G29
  23495207.0634    2492594.04246   1905815.97346                  23495215.7034
        13.2504         12.7504
  20923990.2424    -318527.76247   -213598.72947                  20923996.7814
        27.0004         26.5004
  21574830.9534    1232285.63147    960221.44546                  21574838.2704
        26.0004         25.5004
  23451156.9144   -1241761.91046   -945674.67846                  23451165.9884
        12.5004         13.2504
  22514284.3204    -864576.11047   -657556.34646                  22514292.2114
        21.0004         21.5004
  21488868.1884    1729917.86048   1270117.88347                  21488875.0594
        28.5004         28.0004
  21397354.7194    -556517.91448   -425544.86347                  21397362.1884
        28.7504         28.5004
  24658489.3984    2129638.96246   1609695.19045                  24658496.3874
        12.7504         10.0004
  24878096.8524    -552278.24842   -323619.95345                  24878103.2274
         4.0004          6.7504
 02  7  1 15  1 15.0000000  0  9G 5G 6G10G15G17G30G23G24G29
  23507667.3204    2558075.20246   1956840.19646                  23507676.4414
        13.0004         12.7504
  20923119.7034    -323101.85647   -217162.95047                  20923126.0784
        27.2504         26.7504
  21581666.3134    1268205.61147    988211.02946                  21581673.8634
        25.2504         25.2504
  23445813.8834   -1269838.86746   -967552.78646                  23445823.4494
        12.5004         13.5004
  22510772.8134    -883028.41947   -671934.74646                  22510780.2934
        20.5004         21.5004
  21498411.7664    1780070.85347   1309198.12147                  21498418.5864
        27.7504         28.2504
  21395576.8914    -565860.71748   -432824.95447                  21395584.4534
        28.5004         28.7504
  24669039.1174    2185079.55245   1652895.62645                  24669047.3134
        11.5004          9.7504
  24873350.1414    -577222.09242   -343056.64445                  24873360.1644
         4.7504          5.5004
 02  7  1 15  1 30.0000000  0  9G 5G 6G10G15G17G30G23G24G29
  23520150.5314    2623674.79646   2007956.73946                  23520159.4184
        13.0004         12.7504
  20922278.7424    -327522.75747   -220607.81547                  20922285.0594
        27.2504         26.7504
  21588543.6254    1304345.80347   1016372.20946                  21588551.5274
        25.0004         25.5004
  23440496.1724   -1297786.32646   -989330.01846                  23440505.4104
        13.2504         13.5004
  22507287.4924    -901343.83747   -686206.48846                  22507294.9494
        21.0004         21.7504
  21507991.4774    1830412.25947   1348425.17247                  21507998.1094
        27.7504         27.7504
  21393838.4844    -574997.03248   -439944.16447                  21393845.8244
        29.2504         28.5004
  24679604.0314    2240595.97945   1696155.12645                  24679612.6484
        11.7504          9.2504
  24868623.3834    -602062.29543   -362412.52245                  24868633.9694
         5.7504          5.5004
 02  7  1 15  1 45.0010000  0  9G 5G 6G10G15G17G30G23G24G29
  23532657.3804    2689398.30846   2059169.82546                  23532666.8884
        13.5004         12.7504
  20921466.6924    -331789.14247   -223932.26747                  20921473.0214
        26.7504         26.7504
  21595463.2314    1340709.89347   1044707.85346                  21595471.2864
        25.7504         25.2504
  23435202.3964   -1325604.64946  -1011006.60446                  23435210.8024
        13.7504         13.5004
  22503828.3644    -919522.17747   -700371.41146                  22503835.9974
        21.2504         21.7504
  21517607.8804    1880946.54248   1387802.50847                  21517614.4784
        28.2504         27.7504
  21392139.0444    -583925.84248   -446901.66847                  21392146.2434
        29.0004         28.5004
  24690183.1614    2296193.16846   1739477.61445                  24690190.6774
        12.2504          9.0004
  24863916.2474    -626798.72243   -381687.61445                  24863924.5954
         5.7504          7.5004
 02  7  1 15  2  0.0010000  0  9G 5G 6G10G15G17G30G23G24G29
  23545185.1464    2755233.36646   2110469.82846                  23545194.3604
        12.7504         12.7504
  20920683.6144    -335903.60347   -227138.33647                  20920690.2124
        27.0004         26.5004
  21602424.2944    1377289.43047   1073211.37546                  21602432.1964
        25.5004         25.5004
  23429933.3104   -1353293.39846  -1032582.20646                  23429941.5054
        14.2504         14.2504
  22500395.0674    -937564.33147   -714430.21546                  22500402.3724
        21.0004         21.5004
  21527259.0674    1931663.24148   1427321.99747                  21527265.7124
        28.2504         27.5004
  21390479.2784    -592649.24448   -453699.11547                  21390486.6884
        28.7504         28.5004
  24700776.6534    2351860.42746   1782854.68745                  24700785.3884
        12.2504          9.0004
  24859229.4814    -651431.12243   -400881.63745                  24859238.6384
         5.7504          7.2504
 02  7  1 15  2 15.0010000  0  9G 5G 6G10G15G17G30G23G24G29
  23557735.2164    2821181.85346   2161858.22846                  23557744.8414
        12.5004         12.5004
  20919929.2394    -339868.35147   -230227.75147                  20919935.8374
        26.5004         27.0004
  21609425.9274    1414084.43847   1101882.80547                  21609433.8994
        26.7504         26.2504
  23424687.9034   -1380856.50746  -1054059.93046                  23424696.6034
        14.0004         14.0004
  22496986.8254    -955473.70647   -728385.56646                  22496994.3294
        20.5004         21.5004
  21536945.0524    1982563.36247   1466984.41047                  21536951.8724
        27.2504         27.2504
  21388857.6384    -601169.76548   -460338.47347                  21388864.8134
        28.5004         28.2504
  24711383.2784    2407599.32146   1826287.54145                  24711392.2004
        12.0004         10.2504
  24854561.2004    -675962.74743   -419997.12145                  24854572.0794
         5.0004          6.2504
 02  7  1 15  2 30.0010000  0  9G 5G 6G10G15G17G30G23G24G29
  23570305.6464    2887241.06746   2213332.88046                  23570314.3334
        12.7504         12.7504
  20919202.8104    -343685.63347   -233202.26047                  20919209.4544
        27.2504         27.0004
  21616468.5364    1451092.29047   1130720.07847                  21616476.6384
        25.5004         26.2504
  23419466.5674   -1408296.32246  -1075441.56946                  23419475.3494
        14.0004         14.0004
  22493603.6774    -973252.59246   -742239.22846                  22493611.0054
        19.7504         21.0004
  21546665.3494    2033644.17447   1506787.60947                  21546672.1224
        27.2504         27.2504
  21387274.3564    -609489.69348   -466821.52447                  21387281.6034
        28.2504         28.0004
  24722003.3024    2463407.33546   1869774.28745                  24722011.9314
        13.2504         10.0004
  24849911.0054    -700395.67142   -439035.73445                  24849921.5214
         4.5004          7.0004
 02  7  1 15  2 45.0010000  0  9G 5G 6G10G15G17G30G23G24G29
  23582898.2944    2953413.96946   2264896.14246                  23582907.6614
        13.2504         12.5004
  20918505.0914    -347351.94347   -236059.12647                  20918511.7714
        27.0004         27.0004
  21623552.0604    1488315.92047   1159725.49347                  21623560.1614
        25.2504         26.0004
  23414268.8964   -1435609.46546  -1096724.51446                  23414277.9114
        13.5004         13.7504
  22490245.9504    -990897.67947   -755988.62946                  22490254.0524
        20.0004         21.2504
  21556420.6224    2084908.73747   1546734.01447                  21556427.7984
        27.2504         27.2504
  21385730.0284    -617605.53847   -473145.54847                  21385737.4974
        27.2504         28.0004
  24732636.8104    2519287.59246   1913317.32345                  24732646.9154
        12.2504          9.7504
  24845281.2944    -724726.22042   -457994.52745                  24845294.6104
         4.5004          6.2504
 02  7  1 15  3  0.0010000  0  9G 5G 6G10G15G17G30G23G24G29
  23595511.2084    3019697.78546   2316545.82446                  23595520.7864
        13.5004         12.5004
  20917835.7714    -350869.54448   -238800.11547                  20917842.4974
        28.0004         26.7504
  21630675.9744    1525752.69047   1188896.99147                  21630683.8764
        26.2504         26.0004
  23409095.0214   -1462798.39446  -1117910.66846                  23409104.7164
        13.2504         14.0004
  22486913.0674   -1008411.44647   -769635.70346                  22486920.6304
        20.2504         21.0004
  21566210.4274    2136354.29047   1586821.43247                  21566217.6144
        26.7504         26.7504
  21384224.1694    -625519.55047   -479312.31047                  21384231.6494
        26.7504         27.7504
  24743284.1534    2575237.48646   1956914.59245                  24743295.1494
        12.0004         10.5004
  24840669.9744    -748956.53642   -476875.29945                  24840679.3994
         4.2504          6.2504
 02  7  1 15  3 15.0010000  0  9G 5G 6G10G15G17G30G23G24G29
  23608145.2554    3086089.05046   2368279.24746                  23608153.4034
        14.0004         12.2504
  20917194.1064    -354241.29647   -241427.45547                  20917200.6344
        26.7504         27.0004
  21637839.9974    1563399.33347   1218232.03447                  21637848.0754
        25.7504         25.7504
  23403943.9744   -1489866.07646  -1139002.31646                  23403953.3994
        13.0004         14.0004
  22483604.9354   -1025796.93947   -783182.84146                  22483612.2634
        20.5004         21.2504
  21576033.8804    2187977.28347   1627047.12447                  21576041.0564
        26.7504         26.5004
  21382755.8254    -633234.73447   -485324.13747                  21382763.0134
        27.7504         27.5004
  24753943.2634    2631253.78445   2000563.66345                  24753952.1264
        11.5004          9.2504
  24836077.5834    -773089.33441   -495679.98145                  24836090.0324
         3.5004          6.7504
 02  7  1 15  3 30.0010000  0  9G 5G 6G10G15G17G30G23G24G29
  23620799.7784    3152588.05046   2420096.60146                  23620807.9034
        14.2504         12.7504
  20916580.3254    -357466.43047   -243940.54447                  20916587.0404
        27.0004         26.7504
  21645043.9194    1601256.15847   1247730.84847                  21645052.1384
        26.0004         25.7504
  23398816.2394   -1516811.86346  -1159999.00946                  23398825.9814
        12.7504         14.2504
  22480320.8414   -1043053.52247   -796629.51346                  22480328.6264
        20.5004         21.5004
  21585891.3414    2239778.06447   1667411.34247                  21585898.5754
        26.0004         26.2504
  21381325.5364    -640750.31448   -491180.41747                  21381332.6654
        28.0004         27.5004
  24764615.1534    2687337.11645   2044264.89645                  24764624.9074
        10.7504          9.0004
  24831504.2474    -797123.54042   -514407.84845                  24831514.1534
         4.0004          6.0004
 02  7  1 15  3 45.0010000  0  9G 5G 6G10G15G17G30G23G24G29
  23633474.7474    3219193.59446   2471996.99946                  23633482.6964
        14.2504         12.0004
  20915994.3254    -360545.64747   -246339.93847                  20916001.1964
        26.7504         26.5004
  21652287.7634    1639322.03547   1277392.55747                  21652295.8294
        26.5004         26.2504
  23393711.6534   -1543636.61746  -1180901.39346                  23393720.7164
        14.5004         14.5004
  22477061.4034   -1060182.16847   -809976.48746                  22477069.3884
        21.2504         21.5004
  21595782.2244    2291755.46647   1707913.19447                  21595789.0444
        26.0004         25.7504
  21379933.0914    -648066.98247   -496881.70247                  21379940.1614
        27.2504         27.5004
  24775299.8804    2743486.59845   2088017.74845                  24775309.3174
         9.0004          8.2504
  24826949.2474    -821059.77942   -533059.45345                  24826960.7594
         4.2504          5.5004
 02  7  1 15  4  0.0010000  0  9G 5G 6G10G15G17G30G23G24G29
  23646169.3104    3285905.67546   2523980.40446                  23646177.9504
        13.5004         12.2504
  20915436.3724    -363478.41747   -248625.21547                  20915443.4664
        26.2504         26.7504
  21659571.2244    1677597.07847   1307217.25447                  21659578.7164
        27.2504         26.2504
  23388629.8254   -1570339.90046  -1201709.08946                  23388639.0404
        14.5004         15.2504
  22473826.1854   -1077182.40347   -823223.41246                  22473833.7004
        20.5004         21.2504
  21605706.6854    2343909.64547   1748552.80646                  21605713.1654
        26.0004         25.5004
  21378578.7554    -655184.33047   -502427.67747                  21378585.9664
        27.2504         27.7504
  24785997.2164    2799702.39945   2131822.23545                  24786006.7594
         8.0004          7.7504
  24822412.4354    -844897.23242   -551633.93845                  24822425.4354
         3.7504          5.0004
 02  7  1 15  4 15.0010000  0  9G 5G 6G10G15G17G30G23G24G29
  23658884.2164    3352722.06246   2576045.08446                  23658892.5284
        13.0004         12.5004
  20914905.7864    -366266.46747   -250797.72347                  20914912.8804
        26.2504         26.5004
  21666894.0604    1716079.15147   1337203.28147                  21666901.2244
        27.2504         26.0004
  23383571.3964   -1596923.59346  -1222423.61946                  23383580.6574
        12.7504         14.5004
  22470615.3724   -1094056.16847   -836371.78546                  22470622.8174
        20.2504         21.0004
  21615664.7714    2396238.21047   1789328.28046                  21615671.3804
        26.5004         25.5004
  21377262.1304    -662104.12647   -507819.71947                  21377269.6574
        27.2504         27.7504
  24796707.4034    2855982.44145   2175676.74845                  24796718.4934
         8.0004          8.5004
  24817895.2004    -868637.48642   -570132.82345                  24817908.6464
         3.7504          6.2504
 02  7  1 15  4 30.0010000  0  9G 5G 6G10G15G17G30G23G24G29
  23671618.3964    3419642.19046   2628190.58446                  23671627.0604
        12.5004         12.0004
  20914402.5834    -368909.85847   -252857.51547                  20914409.5604
        26.7504         26.5004
  21674256.2784    1754767.79847   1367350.27047                  21674263.4784
        26.2504         25.7504
  23378535.3884   -1623387.86246  -1243045.08746                  23378545.2594
        13.5004         14.5004
  22467428.4894   -1110803.70647   -849421.81446                  22467435.8644
        20.2504         21.0004
  21625655.6304    2448740.71347   1830239.29646                  21625662.1464
        27.7504         25.5004
  21375982.8724    -668826.41347   -513057.85947                  21375990.0714
        27.7504         27.5004
  24807429.9424    2912326.48745   2219581.14345                  24807438.7824
         8.0004          8.5004
  24813396.7634    -892280.46143   -588555.92045                  24813407.8294
         5.5004          7.0004
 02  7  1 15  4 45.0010000  0  9G 5G 6G10G15G17G30G23G24G29
  23684372.1064    3486663.23246   2680414.73246                  23684381.9194
        12.5004         12.0004
  20913926.6694    -371410.89148   -254806.37747                  20913933.5994
        28.0004         26.5004
  21681657.0994    1793660.22247   1397656.04047                  21681664.9074
        26.0004         25.7504
  23373521.3334   -1649735.02945  -1263575.31846                  23373530.5244
        11.7504         13.7504
  22464264.9664   -1127427.41347   -862375.33546                  22464272.2594
        20.2504         20.7504
  21635679.0674    2501414.32247   1871283.65046                  21635685.5834
        27.0004         25.5004
  21374740.9354    -675353.58948   -518143.96347                  21374747.8764
        28.2504         27.7504
  24818163.0914    2968731.91245   2263533.38545                  24818169.3374
         7.7504          8.7504
  24808915.5284    -915828.37043   -606904.87045                  24808925.6104
         6.0004          7.0004
 02  7  1 15  5  0.0010000  0  9G 5G 6G10G15G17G30G23G24G29
  23697145.8334    3553790.85146   2732721.90945                  23697154.6034
        12.2504         11.7504
  20913479.2314    -373763.48047   -256639.56847                  20913485.9704
        27.5004         26.5004
  21689098.1694    1832761.97547   1428124.91247                  21689106.2594
        25.2504         25.7504
  23368531.2164   -1675959.21946  -1284009.73046                  23368540.4194
        12.5004         14.0004
  22461126.1384   -1143921.43047   -875227.81446                  22461133.5364
        20.0004         21.2504
  21645736.2394    2554264.64747   1912465.69846                  21645742.8964
        26.5004         25.2504
  21373537.0364    -681679.61247   -523073.32447                  21373543.9784
        27.5004         27.7504
  24828909.5834    3025204.72544   2307538.11445                  24828918.0484
         7.2504          8.2504
  24804453.4744    -939274.62243   -625174.61045                  24804462.2084
         6.0004          6.5004
 02  7  1 15  5 15.0010000  0  9G 5G 6G10G15G17G30G23G24G29
  23709940.2634    3621024.78845   2785111.96245                  23709949.4784
        11.7504         11.7504
  20913059.7554    -375967.34147   -258356.86347                  20913066.7674
        27.7504         26.7504
  21696578.7784    1872072.92847   1458756.80947                  21696586.7044
        25.0004         25.7504
  23363564.4894   -1702060.25246  -1304348.14646                  23363574.0214
        12.5004         13.7504
  22458012.4274   -1160285.55247   -887979.07646                  22458019.5794
        20.2504         21.2504
  21655826.9894    2607291.51347   1953785.30446                  21655833.6574
        26.7504         25.2504
  21372371.3964    -687804.24447   -527845.75447                  21372378.3964
        27.2504         28.0004
  24839668.4114    3081744.87044   2351595.33345                  24839680.1924
         6.2504          8.7504
  24800010.8024    -962618.95543   -643364.96045                  24800020.5674
         5.7504          6.0004
 02  7  1 15  5 30.0010000  0  9G 5G 6G10G15G17G30G23G24G29
  23722754.3494    3688364.09845   2837584.10946                  23722763.6224
        11.7504         12.0004
  20912668.7244    -378022.86047   -259958.55947                  20912675.6774
        27.5004         27.0004
  21704099.1064    1911592.22647   1489551.06847                  21704106.8684
        25.7504         25.7504
  23358620.8804   -1728038.61546  -1324590.99046                  23358630.6924
        14.0004         14.0004
  22454922.6224   -1176520.56046   -900629.70646                  22454930.6424
        19.2504         21.5004
  21665951.0914    2660493.88747   1995241.67746                  21665957.7124
        27.0004         25.2504
  21371244.3174    -693727.93448   -532461.60647                  21371251.0914
        28.0004         27.7504
  24850440.0284    3138351.59444   2395704.38845                  24850452.8294
         6.7504          8.2504
  24795589.4814    -985861.54744   -661476.02045                  24795597.5604
         6.7504          7.2504
 02  7  1 15  5 45.0010000  0  9G 5G 6G10G15G17G30G23G24G29
  23735587.5444    3755800.36046   2890131.81145                  23735596.3724
        12.2504         11.7504
  20912304.1224    -379937.96847   -261450.85547                  20912311.0524
        27.2504         27.2504
  21711657.2864    1951311.51047   1520501.14447                  21711664.9544
        26.2504         26.0004
  23353698.9274   -1753902.34446  -1344744.52846                  23353707.9424
        13.5004         14.0004
  22451856.5524   -1192634.40346   -913185.93746                  22451864.1384
        19.7504         21.2504
  21676106.9894    2713863.40847   2036828.29246                  21676113.7044
        27.0004         25.5004
  21370153.8104    -699458.74648   -536927.17047                  21370160.3024
        28.2504         27.7504
  24861223.4584    3195016.64745   2439858.95245                  24861234.9814
         7.7504          8.7504
  24791183.7714   -1009010.14545   -679513.83145                  24791191.3684
         7.5004          7.2504
 02  7  1 15  6  0.0010000  0  9G 5G 6G10G15G17G30G23G24G29
  23748439.4114    3823337.79446   2942758.34545                  23748447.8174
        12.2504         11.7504
  20911967.4664    -381707.91947   -262830.03447                  20911974.3604
        27.7504         27.2504
  21719254.3174    1991235.02747   1551610.37947                  21719262.3134
        26.7504         26.5004
  23348799.9424   -1779646.87146  -1364805.15746                  23348809.0874
        13.0004         14.2504
  22448814.1924   -1208622.47946   -925644.17046                  22448821.4384
        19.7504         21.5004
  21686295.5754    2767404.32347   2078548.47246                  21686302.3024
        27.2504         25.5004
  21369100.8644    -704991.94847   -541238.74347                  21369107.6144
        27.7504         27.7504
  24872018.6774    3251744.52645   2484062.45645                  24872029.5914
         8.0004          8.5004
  24786797.5524   -1032059.70345   -697474.51445                  24786805.5714
         7.7504          7.0004
 02  7  1 15  6 15.0010000  0  9G 5G 6G10G15G17G30G23G24G29
  23761310.7004    3890977.28845   2995464.40846                  23761319.5054
        11.5004         12.0004
  20911658.5914    -383331.27248   -264094.98047                  20911665.3764
        28.2504         27.2504
  21726890.7944    2031363.90347   1582879.61947                  21726899.0834
        26.0004         26.5004
  23343924.0214   -1805270.88746  -1384771.89146                  23343933.4704
        12.7504         14.2504
  22445795.7714   -1224483.63246   -938003.49346                  22445803.7314
        19.2504         21.5004
  21696516.8334    2821117.57247   2120402.93346                  21696523.3604
        27.7504         25.5004
  21368085.7864    -710326.15347   -545395.26347                  21368092.7984
        27.7504         28.0004
  24882826.3804    3308536.48645   2528315.88245                  24882836.3684
         9.7504          9.5004
  24782430.9114   -1055008.82245   -715356.90445                  24782440.4424
         8.0004          7.5004
 02  7  1 15  6 30.0010000  0  9G 5G 6G10G15G17G30G23G24G29
  23774200.6774    3958716.57545   3048248.22145                  23774210.1614
        11.0004         11.2504
  20911377.3024    -384809.80048   -265247.08547                  20911383.8064
        28.0004         27.0004
  21734565.5674    2071695.75447   1614307.02147                  21734574.0324
        26.0004         26.2504
  23339070.4744   -1830776.33246  -1404646.23046                  23339079.9584
        13.5004         14.7504
  22442801.1064   -1240219.79446   -950265.42746                  22442809.0564
        19.5004         21.5004
  21706770.3174    2875000.87047   2162389.89046                  21706776.9744
        26.5004         25.5004
  21367108.0134    -715463.17247   -549398.12647                  21367115.0484
        27.2504         27.7504
  24893645.8414    3365390.53145   2572617.69945                  24893655.3254
        10.7504         10.7504
  24778082.3254   -1077858.95245   -733162.18545                  24778089.3604
         9.0004          7.7504
 02  7  1 15  6 45.0010000  0  9G 5G 6G10G15G17G30G23G24G29
  23787110.9584    4026558.45845   3101111.97745                  23787119.8804
        11.7504         11.5004
  20911124.1464    -386140.22448   -266283.77747                  20911130.4624
        28.5004         27.0004
  21742279.6694    2112233.55447   1645894.91247                  21742287.6064
        25.0004         26.0004
  23334240.2004   -1856160.04846  -1424425.70746                  23334249.2634
        12.7504         14.2504
  22439831.1224   -1255827.77746   -962427.47646                  22439839.2004
        18.7504         21.2504
  21717057.0134    2929057.05047   2204511.56246                  21717063.8964
        26.5004         25.2504
  21366168.6304    -720399.82547   -553244.85647                  21366175.9464
        27.2504         27.7504
  24904476.9194    3422309.58445   2616970.14045                  24904487.1654
        11.5004         10.2504
  24773753.0914   -1100606.64945   -750887.59745                  24773760.6774
         9.2504          7.2504
 02  7  1 15  7  0.0010000  0  9G 5G 6G10G15G17G30G23G24G29
  23800039.2944    4094495.53646   3154049.92845                  23800046.9274
        12.0004         11.0004
  20910897.9274    -387329.39048   -267210.40847                  20910904.1494
        28.2504         27.0004
  21750031.5054    2152969.97647   1677637.56747                  21750039.4194
        26.0004         25.7504
  23329431.3414   -1881429.06146  -1444115.81646                  23329440.7674
        12.7504         14.5004
  22436884.0834   -1271314.68446   -974495.18546                  22436892.2314
        19.7504         21.5004
  21727375.1304    2983278.76347   2246762.22547                  21727382.1534
        27.0004         25.7504
  21365266.1224    -725142.98747   -556940.81647                  21365273.6494
        27.0004         27.5004
  24915319.8024    3479286.38845   2661367.62045                  24915327.3644
        11.5004         10.2504
  24769442.7864   -1123258.48545   -768538.34645                  24769452.0604
         9.5004          7.2504
 02  7  1 15  7 15.0010000  0  9G 5G 6G10G15G17G30G23G24G29
  23812985.3564    4162527.50245   3207061.79345                  23812992.8024
        11.7504         10.7504
  20910698.3334    -388377.04648   -268026.76547                  20910704.5564
        28.0004         26.7504
  21757821.2864    2193904.91247   1709534.91347                  21757828.8844
        25.5004         26.0004
  23324644.7474   -1906583.27246  -1463716.47746                  23324654.3374
        12.5004         14.2504
  22433959.8104   -1286680.36747   -986468.43646                  22433967.9584
        20.0004         21.5004
  21737724.6924    3037665.54447   2289141.51447                  21737731.6464
        26.7504         25.7504
  21364400.2084    -729692.52747   -560485.91247                  21364407.6884
        26.7504         27.7504
  24926172.6694    3536321.02245   2705810.15545                  24926181.9194
        11.2504         10.5004
  24765150.6534   -1145814.11245   -786114.09245                  24765157.5484
         9.5004          6.0004
 02  7  1 15  7 30.0010000  0  9G 5G 6G10G15G17G30G23G24G29
  23825950.5674    4230658.31545   3260150.69545                  23825958.5284
        11.5004         11.0004
  20910526.7084    -389278.73247   -268729.37947                  20910533.2354
        26.7504         26.7504
  21765649.4274    2235042.32847   1741590.03147                  21765656.7784
        26.0004         25.7504
  23319881.0834   -1931618.29446  -1483224.24646                  23319890.4384
        12.7504         14.5004
  22431059.7944   -1301920.66246   -998343.97846                  22431068.0364
        19.2504         21.7504
  21748106.3644    3092221.55447   2331652.67447                  21748113.2824
        27.5004         25.7504
  21363572.3564    -734043.96348   -563876.63447                  21363579.6734
        28.0004         27.7504
  24937038.2634    3593417.82045   2750301.08445                  24937045.9894
        11.0004          9.7504
  24760878.3024   -1168268.94845   -803611.33845                  24760883.6574
        10.7504          7.0004
 02  7  1 15  7 45.0010000  0  9G 5G 6G10G15G17G30G23G24G29
  23838933.2314    4298881.87845   3313311.86345                  23838939.8414
        11.7504         11.2504
  20910381.8724    -390040.05947   -269322.61847                  20910388.6694
        27.7504         26.5004
  21773515.0524    2276376.06647   1773798.13147                  21773522.1924
        26.0004         25.7504
  23315138.7634   -1956539.76646  -1502643.53946                  23315148.0834
        13.0004         14.2504
  22428182.6694   -1317041.14046  -1010126.15246                  22428190.9814
        19.5004         21.7504
  21758519.2394    3146940.61148   2374290.87847                  21758525.8724
        28.0004         26.0004
  21362780.8494    -738202.98147   -567117.41847                  21362788.2824
        27.2504         28.0004
  24947913.4354    3650570.86645   2794835.90245                  24947921.5014
        10.0004          8.7504
  24756622.8804   -1190628.23445   -821034.17245                  24756633.4314
         9.7504          7.2504
 02  7  1 15  8  0.0010000  0  9G 5G 6G10G15G17G30G23G24G29
  23851932.5134    4367193.88746   3366541.99745                  23851939.8644
        12.2504         11.2504
  20910262.8804    -390664.86448   -269809.47747                  20910269.7394
        28.0004         26.5004
  21781417.0834    2317901.82447   1806155.86147                  21781424.1064
        26.5004         25.7504
  23310416.9424   -1981351.63946  -1521977.43346                  23310425.6774
        13.0004         14.7504
  22425327.0994   -1332046.01246  -1021818.25146                  22425335.2824
        19.5004         21.7504
  21768962.0994    3201818.43448   2417052.80547                  21768968.6034
        28.2504         26.2504
  21362025.2714    -742173.52848   -570211.34047                  21362032.6574
        28.7504         28.2504
  24958799.3564    3707775.92345   2839411.19945                  24958808.2314
        10.0004          9.0004
  24752385.2714   -1212895.81745   -838385.52945                  24752392.4584
         9.7504          7.0004
 02  7  1 15  8 15.0010000  0  9G 5G 6G10G15G17G30G23G24G29
  23864948.3174    4435592.26746   3419839.36545                  23864955.5754
        12.5004         11.5004
  20910169.8494    -391154.68147   -270191.15147                  20910176.7084
        27.7504         26.7504
  21789355.5994    2359617.65147   1838661.68447                  21789362.7984
        25.5004         25.7504
  23305716.2554   -2006055.72546  -1541227.35546                  23305724.8844
        13.5004         14.7504
  22422493.6774   -1346936.91147  -1033421.52346                  22422501.7904
        20.2504         22.0004
  21779434.8174    3256852.92247   2459936.79547                  21779441.4974
        26.7504         26.0004
  21361305.3884    -745957.14748   -573159.60847                  21361312.7044
        28.2504         28.5004
  24969694.7004    3765031.24445   2884025.67745                  24969702.9074
        10.7504          9.0004
  24748164.7784   -1235073.04845   -855666.44545                  24748174.8374
        10.0004          7.2504
 02  7  1 15  8 30.0010000  0  9G 5G 6G10G15G17G30G23G24G29
  23877981.6924    4504085.20645   3473210.43945                  23877989.4664
        11.7504         11.5004
  20910103.8964    -391500.84748   -270460.88747                  20910110.2354
        29.5004         27.2504
  21797331.4034    2401531.78147   1871322.02747                  21797338.4274
        26.5004         25.7504
  23301037.2474   -2030643.45346  -1560386.59546                  23301046.1464
        14.7504         15.2504
  22419683.1464   -1361705.30147  -1044929.35046                  22419691.1884
        20.5004         22.0004
  21789938.7714    3312052.24247   2502949.22947                  21789945.3924
        26.5004         25.7504
  21360622.5834    -749545.24748   -575955.52447                  21360629.8884
        29.5004         28.5004
  24980601.1534    3822345.17345   2928685.87145                  24980611.0244
        10.2504          9.2504
  24743963.9974   -1257150.93345   -872869.96845                  24743973.2594
        10.2504          8.0004
 02  7  1 15  8 45.0010000  0  9G 5G 6G10G15G17G30G23G24G29
  23891032.8964    4572668.62845   3526652.03745                  23891041.0564
        11.7504         11.5004
  20910064.6464    -391706.83248   -270621.39647                  20910070.7744
        29.7504         27.0004
  21805344.5994    2443640.33247   1904133.87447                  21805351.3724
        26.7504         25.7504
  23296379.9114   -2055118.43746  -1579457.98646                  23296388.4464
        15.7504         15.7504
  22416895.4504   -1376354.89646  -1056344.60746                  22416903.2004
        19.7504         21.7504
  21800473.5284    3367412.40247   2546086.99747                  21800480.2434
        27.2504         25.7504
  21359976.4974    -752941.36348   -578601.83547                  21359983.7204
        29.0004         28.7504
  24991518.1534    3879714.27945   2973389.03845                  24991528.8804
        10.0004          9.5004
  24739780.7554   -1279132.85545   -889998.64445                  24739788.8334
        10.7504          7.2504
 02  7  1 15  9  0.0010000  0  9G 5G 6G10G15G17G30G23G24G29
  23904101.7474    4641345.75845   3580166.64745                  23904110.3174
        11.2504         11.7504
  20910053.1064    -391768.89948   -270669.77347                  20910059.4584
        28.7504         27.2504
  21813395.4424    2485946.39247   1937099.62247                  21813402.2864
        27.0004         25.7504
  23291744.1224   -2079477.11246  -1598438.74746                  23291752.3294
        14.5004         15.2504
  22414131.0284   -1390882.21147  -1067664.57046                  22414139.2474
        20.5004         22.0004
  21811039.4814    3422936.67847   2589352.64647                  21811045.8214
        27.5004         25.7504
  21359367.4194    -756141.87948   -581095.73947                  21359374.6534
        29.7504         29.0004
  25002446.4354    3937141.87445   3018137.77945                  25002457.1854
        10.0004          9.5004
  24735616.9504   -1301014.72545   -907049.48445                  24735625.0284
        10.5004          8.2504
 02  7  1 15  9 15.0010000  0  9G 5G 6G10G15G17G30G23G24G29
  23917186.9034    4710111.16245   3633750.04745                  23917196.0604
        11.0004         11.5004
  20910067.5054    -391692.06748   -270609.89847                  20910074.1854
        28.5004         27.0004
  21821482.4894    2528444.62547   1970215.12146                  21821489.0524
        26.7504         25.5004
  23287129.8964   -2103724.58046  -1617332.84546                  23287138.5714
        13.5004         15.2504
  22411389.0364   -1405292.33447  -1078893.23746                  22411396.9034
        20.7504         22.0004
  21821635.5214    3478619.51247   2632741.84046                  21821641.9894
        26.5004         25.5004
  21358794.5284    -759151.84848   -583441.15947                  21358801.5874
        29.7504         29.0004
  25013384.4894    3994622.48045   3062927.84045                  25013395.4504
         9.2504          9.0004
  24731471.2004   -1322801.63345   -924026.24945                  24731481.0604
         9.7504          7.2504
 02  7  1 15  9 30.0010000  0  9G 5G 6G10G15G17G30G23G24G29
  23930289.0604    4778962.80945   3687400.63145                  23930298.7314
        11.2504         11.5004
  20910108.2394    -391477.82447   -270442.95847                  20910115.2164
        27.7504         26.7504
  21829605.7474    2571133.04047   2003478.79846                  21829612.5794
        27.0004         25.5004
  23282536.8334   -2127862.44746  -1636141.54346                  23282545.7204
        13.2504         15.2504
  22408668.6534   -1419586.88946  -1090031.84946                  22408676.3684
        19.7504         22.0004
  21832261.4114    3534458.94747   2676253.06146                  21832267.9624
        26.2504         25.2504
  21358257.7784    -761972.88848   -585639.36047                  21358264.6854
        30.0004         28.5004
  25024332.3104    4052154.54345   3107757.95845                  25024343.6694
         9.0004          9.0004
  24727342.9354   -1344494.72145   -940929.92245                  24727354.1534
         8.7504          7.2504
 02  7  1 15  9 45.0010000  0  9G 5G 6G10G15G17G30G23G24G29
  23943408.3024    4847902.51045   3741119.84645                  23943417.8104
        11.0004         11.2504
  20910175.5444    -391123.78147   -270167.08047                  20910182.6034
        27.5004         26.7504
  21837765.6064    2614013.56547   2036892.19646                  21837772.6774
        26.0004         25.5004
  23277964.8174   -2151888.41746  -1654863.04846                  23277973.2824
        15.2504         15.7504
  22405970.9354   -1433763.76247  -1101078.74646                  22405978.6964
        20.0004         21.7504
  21842917.4194    3590456.71147   2719887.65046                  21842923.8414
        27.0004         25.5004
  21357757.2084    -764602.63548   -587688.50547                  21357764.0284
        29.7504         28.2504
  25035290.5674    4109739.97145   3152629.73445                  25035299.9464
         9.0004          9.0004
  24723233.1144   -1366091.49545   -957758.56345                  24723245.0014
         8.2504          7.5004
 02  7  1 15 10  0.0010000  0  9G 5G 6G10G15G17G30G23G18G29
  23956543.8024    4916930.80045   3794908.07445                  23956553.1694
        11.0004         11.5004
  20910269.6854    -390628.89947   -269781.45647                  20910276.6264
        27.2504         26.7504
  21845962.0364    2657086.75747   2070455.70646                  21845969.0364
        25.7504         25.5004
  23273414.4814   -2175801.56446  -1673496.64246                  23273422.7354
        15.5004         16.0004
  22403295.3964   -1447822.07347  -1112033.25546                  22403303.2634
        21.0004         22.0004
  21853603.6694    3646613.44347   2763646.12346                  21853609.9034
        26.2504         25.2504
  21357293.6144    -767040.14948   -589587.86347                  21357300.4584
        29.2504         28.5004
  25007238.4354     -13604.22354
         7.2504
  24719141.6224   -1387590.66145   -974511.08145                  24719151.8924
         8.7504          7.2504
 02  7  1 15 10 15.0010000  0  9G 5G 6G10G15G17G30G23G18G29
  23969697.5754    4986054.17445   3848770.41745                  23969707.0134
        10.7504         11.0004
  20910392.1614    -389986.23047   -269280.67447                  20910399.1854
        27.7504         27.2504
  21854196.2784    2700359.05847   2104174.36846                  21854203.7244
        25.0004         25.2504
  23268886.3644   -2199595.10746  -1692037.04246                  23268894.8764
        14.7504         15.7504
  22400643.9894   -1461754.96347  -1122890.04346                  22400651.7984
        21.2504         22.5004
  21864321.4584    3702935.61747   2807533.50846                  21864327.7394
        26.5004         25.0004
  21356867.6304    -769278.55448   -591332.07147                  21356874.4384
        28.5004         28.2504
  24999482.1924     -54367.78945
         8.7504
  24715070.7864   -1408984.99945   -991181.94345                  24715077.8804
         7.7504          7.5004
 02  7  1 15 10 30.0010000  0  9G 5G 6G10G15G17G30G23G18G29
  23982866.3644    5055257.66745   3902695.18545                  23982876.1304
        10.7504         11.0004
  20910539.8174    -389210.23348   -268676.00347                  20910546.6774
        29.0004         27.5004
  21862465.8644    2743815.64147   2138036.62546                  21862473.5324
        26.5004         25.5004
  23264378.9034   -2223283.66946  -1710495.62346                  23264387.9664
        14.5004         16.0004
  22398014.0134   -1475577.14947  -1133660.57046                  22398021.7864
        20.0004         22.5004
  21875067.9744    3759408.19747   2851538.08746                  21875074.1614
        25.7504         24.7504
  21356476.7394    -771332.39548   -592932.46247                  21356483.3254
        29.0004         28.0004
  24991737.3334     -95065.02945
         8.0004
  24711016.5054   -1430288.93344  -1007782.32645                  24711025.6964
         7.2504          7.7504
 02  7  1 15 10 45.0010000  0  9G 5G 6G10G15G17G30G23G18G29
  23996051.4584    5124545.57645   3956685.70945                  23996060.9894
        11.2504         11.2504
  20910713.8174    -388296.06448   -267963.66747                  20910720.5914
        29.2504         27.5004
  21870771.3804    2787460.88447   2172045.89546                  21870778.7674
        25.7504         25.5004
  23259891.5284   -2246862.59446  -1728868.79046                  23259900.6034
        15.2504         16.2504
  22395405.7714   -1489283.97547  -1144341.21246                  22395413.7314
        20.5004         22.7504
  21885843.9034    3816035.60347   2895663.31746                  21885850.1964
        27.0004         25.2504
  21356121.7944    -773196.92948   -594385.33947                  21356128.4974
        29.0004         28.0004
  24984006.0914    -135691.04644
         7.2504
  24706979.9814   -1451497.35244  -1024308.32945                  24706989.4894
         7.2504          8.2504
 02  7  1 15 11  0.0010000  0  9G 5G 6G10G15G17G30G23G18G29
  24009253.2634    5193920.97745   4010744.41445                  24009262.4664
        11.2504         11.5004
  20910914.8414    -387240.13748   -267140.86047                  20910921.3564
        29.5004         27.2504
  21879113.3254    2831297.85547   2206204.56446                  21879120.7714
        25.2504         25.2504
  23255426.1384   -2270328.32446  -1747153.73946                  23255435.1774
        14.5004         16.0004
  22392820.1854   -1502872.01947  -1154929.27946                  22392828.0524
        21.5004         22.5004
  21896649.5444    3872820.84847   2939911.54446                  21896656.1064
        26.5004         25.2504
  21355803.7394    -774868.59048   -595687.92247                  21355810.7284
        28.5004         28.2504
  24976289.7634    -176242.10745    -14737.96555                  24976298.0524
         9.0004          6.2504
  24702963.4664   -1472606.57645  -1040757.02045                  24702972.0954
         7.5004          8.0004
 02  7  1 15 11 15.0010000  0  9G 5G 6G10G15G17G30G23G18G29
  24022471.3174    5263382.90145   4064870.56245                  24022478.8564
        11.5004         11.0004
  20911142.6774    -386042.89348   -266207.94147                  20911148.9704
        29.7504         27.0004
  21887491.6614    2875325.68347   2240511.95846                  21887499.2004
        25.7504         25.2504
  23250982.6064   -2293681.51546  -1765350.99246                  23250992.3604
        14.0004         15.7504
  22390256.6304   -1516341.90347  -1165425.28546                  22390264.1574
        21.2504         22.2504
  21907485.1924    3929762.93647   2984281.99046                  21907491.9194
        25.5004         24.7504
  21355522.2784    -776347.93248   -596840.64747                  21355528.8994
        29.0004         28.0004
  24968587.7784    -216718.73545    -46278.08845                  24968596.1964
         8.0004          7.5004
  24698963.9194   -1493616.67244  -1057128.49545                  24698975.2314
         7.0004          7.5004
 02  7  1 15 11 30.0010000  0  9G 5G 6G10G15G17G30G23G18G29
  24035704.9274    5332926.01045   4119059.93345                  24035712.6424
        11.5004         11.5004
  20911396.3884    -384709.10748   -265168.63547                  20911402.5874
        28.2504         26.7504
  21895905.0214    2919539.07647   2274963.94846                  21895912.5834
        26.2504         25.5004
  23246558.6304   -2316927.08446  -1783464.39546                  23246567.8684
        15.0004         15.7504
  22387715.1224   -1529698.65047  -1175833.13146                  22387722.9544
        20.2504         22.5004
  21918349.8724    3986856.57147   3028770.50746                  21918356.4354
        26.0004         24.5004
  21355276.3644    -777639.87648   -597847.36547                  21355283.0324
        29.7504         28.2504
  24960897.4894    -257125.42944    -77763.84545                  24960906.1304
         6.5004          6.5004
  24694983.9504   -1514532.42043  -1073426.40845                  24694995.8604
         5.7504          7.5004
 02  7  1 15 11 45.0010000  0  9G 5G 6G10G15G17G30G23G18G29
  24048953.8024    5402548.42746   4173311.14045                  24048962.3374
        12.2504         11.7504
  20911676.0364    -383240.15648   -264024.00247                  20911682.3174
        28.2504         26.5004
  21904353.4034    2963936.12047   2309559.03646                  21904360.5564
        26.7504         25.5004
  23242155.5994   -2340066.53646  -1801495.11946                  23242164.7314
        16.2504         16.0004
  22385194.4664   -1542943.76146  -1186153.98446                  22385202.2984
        19.7504         21.7504
  21929243.0364    4044099.83247   3073375.62246                  21929249.8964
        26.2504         24.7504
  21355065.9744    -778745.85148   -598709.15047                  21355072.7004
        30.0004         28.5004
  24953222.2244    -297463.51844   -109196.06945                  24953229.6924
         7.2504          7.5004
  24691022.3254   -1535355.06343  -1089651.80245                  24691033.2394
         5.5004          7.7504
 02  7  1 15 12  0.0010000  0  9G 5G 6G10G15G17G30G23G18G29
  24062217.4814    5472248.83446   4227623.12746                  24062226.4154
        12.5004         12.2504
  20911980.8804    -381636.88348   -262774.69847                  20911987.0094
        28.2504         26.2504
  21912836.9504    3008515.57747   2344296.28146                  21912844.1854
        26.0004         25.0004
  23237772.5364   -2363100.84146  -1819443.88946                  23237781.5524
        16.5004         16.2504
  22382695.0994   -1556078.18247  -1196388.59246                  22382703.0014
        20.0004         22.0004
  21940164.3804    4101491.45447   3118096.34146                  21940171.3804
        26.5004         24.7504
  21354890.6304    -779666.82248   -599426.78047                  21354897.1814
        29.0004         28.2504
  24945558.7244    -337733.79044   -140575.45745                  24945567.7164
         6.5004          7.2504
  24687077.2554   -1556085.16144  -1105805.03345                  24687087.0444
         6.5004          7.5004
 02  7  1 15 12 15.0010000  0  9G 5G 6G10G15G17G30G23G18G29
  24075496.8724    5542032.00446   4281999.56045                  24075504.7744
        12.7504         11.7504
  20912312.6774    -379893.92348   -261416.55047                  20912318.8884
        28.0004         26.2504
  21921355.6064    3053282.23747   2379179.37846                  21921362.7824
        26.7504         25.0004
  23233409.9894   -2386024.80946  -1837306.70446                  23233418.7824
        16.5004         16.2504
  22380217.5214   -1569096.97347  -1206533.09846                  22380225.3174
        20.5004         22.2504
  21951114.6534    4159036.13247   3162936.33046                  21951121.5714
        26.0004         24.5004
  21354751.5754    -780397.54248   -599996.16547                  21354757.9504
        29.0004         28.0004
  24937909.9424    -377930.68244   -171897.65645                  24937918.2314
         7.2504          7.5004
  24683151.0994   -1576717.14544  -1121881.85545                  24683161.3684
         7.2504          7.2504
 02  7  1 15 12 30.0010000  0  9G 5G 6G10G15G17G30G23G18G29
  24088791.2394    5611894.32346   4336437.68546                  24088799.2944
        12.7504         12.5004
  20912670.3024    -378014.38448   -259951.96947                  20912676.3844
        28.5004         26.0004
  21929909.4744    3098232.66147   2414205.66946                  21929916.9784
        26.7504         25.2504
  23229068.0834   -2408841.70046  -1855086.08046                  23229076.6064
        17.0004         16.5004
  22377761.8414   -1582003.23147  -1216589.90546                  22377769.8964
        20.2504         22.7504
  21962093.4354    4216730.36447   3207892.85046                  21962100.3644
        25.0004         24.2504
  21354648.0674    -780941.14348   -600419.74147                  21354654.6064
        29.2504         28.0004
  24930274.6534    -418057.32645   -203165.11445                  24930283.1064
         8.2504          7.0004
  24679243.1774   -1597254.07645  -1137884.62345                  24679252.4504
         7.7504          8.0004
 02  7  1 15 12 45.0010000  0  9G 5G 6G10G15G17G30G23G18G29
  24102100.0284    5681832.39646   4390934.82846                  24102108.4704
        12.2504         12.5004
  20913053.5444    -376001.25848   -258383.30647                  20913059.6034
        28.2504         26.0004
  21938497.3564    3143363.41247   2449372.47846                  21938504.7204
        26.2504         25.2504
  23224745.6614   -2431554.53246  -1872784.36446                  23224754.4314
        16.5004         16.0004
  22375326.5524   -1594800.06147  -1226561.44846                  22375334.5954
        20.5004         22.2504
  21973100.0284    4274570.57947   3252963.12446                  21973106.9234
        25.2504         24.0004
  21354579.5134    -781300.73148   -600699.93147                  21354585.8294
        28.5004         27.5004
  24922649.9034    -458116.38744   -234379.93145                  24922657.7944
         7.2504          8.0004
  24675352.7474   -1617698.51245  -1153815.32345                  24675363.2044
         7.5004          8.7504
 02  7  1 15 13  0.0010000  0  9G 5G 6G10G15G17G30G23G18G29
  24115423.5834    5751847.82846   4445492.28346                  24115431.3454
        12.2504         12.0004
  20913462.3964    -373852.40548   -256708.87347                  20913468.7004
        28.7504         26.2504
  21947120.2314    3188676.04347   2484681.00846                  21947127.9584
        25.7504         25.0004
  23220443.8254   -2454161.25046  -1890399.94946                  23220452.4424
        16.5004         16.0004
  22372912.4354   -1607485.60747  -1236446.27846                  22372920.3494
        20.5004         22.0004
  21984134.9664    4332558.45047   3298148.45946                  21984141.9314
        25.0004         24.2504
  21354546.7714    -781474.23148   -600835.12147                  21354552.8064
        29.0004         27.5004
  24915040.7474    -498105.79245   -265540.50945                  24915047.6064
         8.0004          7.0004
  24671480.4664   -1638048.16845  -1169672.17545                  24671491.4974
         8.2504          9.0004
 02  7  1 15 13 15.0010000  0  9G 5G 6G10G15G17G30G23G18G29
  24128761.8494    5821940.03545   4500109.52746                  24128771.3684
        11.2504         12.0004
  20913896.8724    -371567.93348   -254928.76047                  20913903.1424
        28.2504         26.0004
  21955777.5604    3234170.04747   2520130.86246                  21955784.6304
        25.7504         24.7504
  23216162.1144   -2476662.04746  -1907933.01646                  23216170.5214
        16.2504         16.0004
  22370519.8964   -1620060.17747  -1246244.62646                  22370527.7744
        20.5004         22.0004
  21995197.6464    4390693.36747   3343448.36746                  21995204.9274
        24.7504         24.2504
  21354548.8964    -781461.80648   -600825.43247                  21354555.1884
        29.0004         27.7504
  24907444.8024    -538025.57945   -296646.69845                  24907453.3494
         8.5004          7.7504
  24667625.8414   -1658302.96145  -1185455.07945                  24667637.0244
         8.7504          9.2504
 02  7  1 15 13 30.0010000  0  9G 5G 6G10G15G17G30G23G18G29
  24142115.6064    5892114.81245   4554791.11645                  24142124.7864
        11.5004         11.5004
  20914358.6304    -369141.49148   -253038.02447                  20914364.8174
        28.5004         26.0004
  21964470.3724    3279851.26847   2555726.61146                  21964477.1924
        26.7504         24.5004
  23211901.7164   -2499050.76246  -1925378.75546                  23211909.9464
        15.7504         16.0004
  22368148.8964   -1632517.45847  -1255951.59146                  22368156.8804
        20.2504         22.0004
  22006289.3564    4448981.24547   3388867.45846                  22006296.5094
        24.7504         23.7504
  21354588.0134    -781257.19248   -600665.98547                  21354594.7284
        28.5004         27.7504
  24899862.1064    -577869.20245   -327693.70845                  24899869.3994
         9.0004          8.7504
  24663791.0674   -1678456.45845  -1201159.02545                  24663801.2554
         9.2504         10.2504
 02  7  1 15 13 45.0010000  0  9G 5G 6G10G15G17G30G23G18G29
  24155482.5994    5962360.55345   4609528.01345                  24155490.4784
        11.7504         11.5004
  20914845.4194    -366584.14748   -251045.28747                  20914851.6774
        28.5004         26.2504
  21973196.3964    3325708.10147   2591459.19446                  21973203.3134
        25.5004         24.5004
  23207660.3564   -2521338.75046  -1942745.98646                  23207669.3604
        14.7504         15.5004
  22365798.8174   -1644868.78947  -1265575.99546                  22365806.7434
        21.0004         22.0004
  22017408.1384    4507410.34747   3434396.60146                  22017414.9704
        24.5004         23.7504
  21354661.2004    -780871.61348   -600365.52947                  21354668.1064
        28.7504         28.0004
  24892292.7714    -617647.59845   -358689.78245                  24892298.4314
         9.2504          8.0004
  24659973.0674   -1698519.52445  -1216792.57245                  24659982.2474
        10.2504         10.0004
 02  7  1 15 14  0.0010000  0  9G 5G 6G10G15G17G30G23G18G29
  24168864.8724    6032682.35946   4664324.15745                  24168872.8104
        12.2504         11.2504
  20915358.1384    -363890.35148   -248946.22047                  20915364.2434
        28.2504         26.2504
  21981957.2314    3371745.74047   2627332.67846                  21981964.6304
        24.7504         24.7504
  23203439.3884   -2543520.46646  -1960030.40846                  23203448.2394
        15.5004         15.2504
  22363469.8024   -1657108.84247  -1275113.69246                  22363477.7744
        21.0004         22.5004
  22028554.7244    4565985.69547   3480039.72646                  22028561.2984
        24.7504         23.5004
  21354770.1614    -780299.61848   -599919.80947                  21354777.0054
        28.2504         27.7504
  24884736.9504    -657355.07445   -389630.64945                  24884744.5714
        10.5004          9.0004
  24656173.8334   -1718486.42145  -1232351.15745                  24656184.8294
        10.5004          9.7504
 02  7  1 15 14 15.0010000  0  9G 5G 6G10G15G17G30G23G18G29
  24182261.6224    6103083.26646   4719181.98145                  24182269.4664
        12.0004         11.2504
  20915897.2784    -361056.50348   -246738.02647                  20915903.5834
        28.5004         26.5004
  21990752.9194    3417967.26547   2663349.43246                  21990760.7044
        24.5004         24.5004
  23199238.7164   -2565592.44146  -1977229.31446                  23199246.6304
        15.5004         15.2504
  22361162.2634   -1669234.24047  -1284562.04546                  22361170.4234
        20.7504         22.5004
  22039729.4354    4624710.47047   3525799.26546                  22039736.1964
        23.7504         23.5004
  21354915.0754    -779537.71548   -599326.11247                  21354921.7784
        29.0004         27.5004
  24877194.6224    -696988.03345   -420513.39545                  24877201.4664
        11.5004         10.0004
  24652393.4744   -1738353.28545  -1247831.77445                  24652401.8684
        11.0004          9.5004
 02  7  1 15 14 30.0010000  0  9G 5G 6G10G15G17G30G23G18G29
  24195672.1534    6173557.07245   4774096.59245                  24195679.8214
        11.7504         10.7504
  20916461.9894    -358088.28548   -244425.13447                  20916468.1774
        28.5004         26.5004
  21999582.3254    3464366.38847   2699504.58846                  21999590.3564
        23.7504         24.5004
  23195058.5054   -2587560.50846  -1994347.26146                  23195067.2164
        14.2504         15.2504
  22358875.6694   -1681250.78647  -1293925.57746                  22358883.6304
        20.2504         22.2504
  22050931.9034    4683578.40347   3571670.34546                  22050938.8104
        23.7504         23.7504
  21355095.1304    -778591.69148   -598588.94647                  21355101.5754
        28.7504         27.2504
  24869665.7394    -736552.04145   -451342.50545                  24869674.6034
        11.2504         10.0004
  24648630.7864   -1758125.80645  -1263238.87245                  24648640.7164
        10.7504          9.2504
 02  7  1 15 14 45.0010000  0  9G 5G 6G10G15G17G30G23G18G29
  24209097.5674    6244107.19245   4829070.68145                  24209106.3604
        11.2504         11.0004
  20917053.3494    -354981.80048   -242004.49147                  20917059.5834
        29.2504         26.5004
  22008446.2634    3510946.60447   2735800.84946                  22008454.4354
        23.7504         24.7504
  23190898.3024   -2609420.85646  -2011381.24646                  23190907.7284
        15.0004         15.2504
  22356610.3644   -1693154.63847  -1303201.29646                  22356617.9154
        21.7504         22.2504
  22062162.3174    4742592.86947   3617655.60746                  22062169.2594
        24.7504         23.7504
  21355310.8334    -777457.69948   -597705.30247                  21355317.4894
        28.0004         27.2504
  24862151.3174    -776043.02245   -482114.60945                  24862159.7354
        11.7504          9.7504
  24644886.5524   -1777799.71045  -1278569.17345                  24644894.8174
        10.0004          9.2504
 02  7  1 15 15  0.0010000  0  9G 5G 6G10G15G17G30G23G18G29
  24222537.0134    6314731.95145   4884102.93545                  24222546.4154
        10.5004         10.5004
  20917670.5674    -351738.26948   -239477.06147                  20917676.7314
        29.0004         26.2504
  22017344.4354    3557706.32847   2772236.98446                  22017352.6884
        24.2504         24.7504
  23186758.8494   -2631174.87246  -2028332.40146                  23186768.0404
        15.0004         15.5004
  22354366.0674   -1704947.32147  -1312390.39146                  22354373.7354
        21.5004         22.0004
  22073419.7164    4801752.16647   3663753.74346                  22073426.6574
        25.0004         23.5004
  21355562.2004    -776137.01048   -596676.19447                  21355569.0834
        28.7504         27.7504
  24854649.4504    -815462.08145   -512830.76545                  24854656.6614
        11.2504          9.5004
  24641161.5214   -1797375.97245  -1293823.35345                  24641169.7394
        10.5004          9.0004
 02  7  1 15 15 15.0010000  0  9G 5G 6G10G15G17G30G23G18G29
  24235990.1854    6385429.04045   4939191.52045                  24236000.1384
        10.2504         10.5004
  20918313.2084    -348359.44148   -236844.21047                  20918319.6064
        28.5004         26.2504
  22026276.1304    3604643.32747   2808811.26146                  22026284.5364
        25.2504         25.0004
  23182639.2084   -2652824.44346  -2045202.16546                  23182648.2714
        15.5004         16.0004
  22352143.1304   -1716630.77547  -1321494.37146                  22352150.9854
        21.5004         22.2504
  22084704.4744    4861054.09047   3709963.00346                  22084711.2944
        24.0004         23.0004
  21355848.6774    -774631.47148   -595503.04047                  21355855.7594
        28.7504         27.7504
  24847161.5134    -854810.93545   -543492.13545                  24847167.4664
        11.0004          8.5004
  24637454.9504   -1816856.33445  -1309002.82945                  24637464.1534
        10.7504          8.7504
 02  7  1 15 15 30.0010000  0  9G 5G 6G10G15G17G30G23G18G29
  24249457.8174    6456201.76545   4994339.05645                  24249468.5094
        10.0004         10.7504
  20918983.0524    -344841.46848   -234102.93047                  20918989.5914
        28.2504         26.2504
  22035242.2864    3651760.89147   2845526.23546                  22035250.4464
        25.0004         25.2504
  23178540.0524   -2674365.88446  -2061987.66246                  23178548.9854
        15.7504         15.7504
  22349940.9664   -1728201.23147  -1330510.29946                  22349948.8454
        21.0004         22.2504
  22096017.0604    4920501.82047   3756285.88446                  22096024.0134
        23.5004         23.0004
  21356170.9664    -772937.45048   -594183.01347                  21356178.1534
        28.7504         27.7504
  24839688.0134    -894085.65545   -574095.80845                  24839695.5754
        10.5004          8.0004
  24633766.8564   -1836236.59845  -1324104.31645                  24633775.6614
        11.0004          9.2504
 02  7  1 15 15 45.0010000  0  9G 5G 6G10G15G17G30G23G18G29
  24262939.7474    6527050.65745   5049545.93545                  24262949.9704
        10.0004         10.5004
  20919678.9814    -341183.29148   -231252.40147                  20919685.6734
        28.2504         26.2504
  22044243.0604    3699059.56947   2882382.33746                  22044251.4544
        24.5004         25.5004
  23174461.4744   -2695798.30646  -2078688.21946                  23174469.7284
        16.5004         15.2504
  22347760.9354   -1739657.87247  -1339437.53946                  22347768.7084
        21.0004         22.2504
  22107357.5134    4980095.89247   3802722.79846                  22107364.4424
        24.0004         23.0004
  21356529.4894    -771053.90948   -592715.31147                  21356536.7124
        28.0004         27.7504
  24832228.2394    -933284.93345   -604640.71945                  24832234.1924
         9.2504          8.0004
  24630097.6384   -1855515.59545  -1339126.87345                  24630108.0134
        10.0004          9.2504
 02  7  1 15 16  0.0010000  0  9G 5G 6G10G15G17G30G23G18G29
  24276435.6064    6597969.43445   5104807.29945                  24276445.8174
         9.7504         10.7504
  20920400.8724    -337390.74248   -228297.16947                  20920407.4584
        28.0004         26.2504
  22053277.0444    3746533.12447   2919374.69846                  22053285.2284
        25.5004         25.5004
  23170403.0134   -2717127.59346  -2095308.44246                  23170410.5874
        15.5004         15.0004
  22345601.2004   -1751006.71747  -1348280.78646                  22345608.7514
        20.5004         22.2504
  22118724.3494    5039830.04847   3849268.86146                  22118731.4424
        23.2504         23.0004
  21356922.5994    -768986.86048   -591104.60647                  21356929.9384
        28.2504         27.7504
  24824782.0914    -972414.58945   -635131.34245                  24824790.1694
         9.2504          7.7504
  24626446.4894   -1874699.05345  -1354074.97345                  24626454.6734
         9.5004          7.5004
 02  7  1 15 16 15.0010000  0  9G 5G 6G10G15G17G30G23G18G29
  24289943.2474    6668953.53945   5160119.53845                  24289953.4114
        10.0004          9.7504
  20921147.3174    -333467.85948   -225240.37247                  20921153.5404
        28.5004         26.2504
  22062343.2944    3794176.94747   2956499.75046                  22062351.4314
        25.2504         25.2504
  23166362.5604   -2738357.99146  -2111851.57546                  23166370.5914
        15.0004         15.0004
  22343461.2244   -1762252.04147  -1357043.36346                  22343468.9384
        20.5004         22.2504
  22130117.3564    5099699.72747   3895920.53446                  22130124.5564
        23.5004         23.0004
  21357350.3024    -766740.39347   -589354.10947                  21357357.5714
        27.7504         28.0004
  24817349.1144   -1011478.57545   -665570.78545                  24817358.1184
         9.0004          7.7504
  24622814.4034   -1893790.75845  -1368951.59745                  24622822.4354
         9.7504          8.7504
 02  7  1 15 16 30.0010000  0  9G 5G 6G10G15G17G30G23G18G29
  24303464.1464    6740006.50245   5215485.41445                  24303474.5444
         9.5004         10.5004
  20921919.3964    -329410.60248   -222078.86947                  20921925.8534
        28.2504         26.2504
  22071442.6144    3841994.60447   2993760.24846                  22071450.5754
        25.0004         25.0004
  23162342.0444   -2759485.60446  -2128314.61446                  23162350.1694
        16.0004         15.2504
  22341341.8644   -1773389.98047  -1365722.27346                  22341349.6494
        20.0004         22.5004
  22141536.6694    5159708.31147   3942680.44046                  22141543.6694
        22.7504         23.0004
  21357812.5134    -764310.69147   -587460.84047                  21357819.6534
        27.7504         27.5004
  24809928.4894   -1050472.66745   -695955.80745                  24809934.6884
         8.7504          7.5004
  24619200.1854   -1912786.49145  -1383753.44645                  24619208.5914
        10.0004          8.5004
 02  7  1 15 16 45.0010000  0  9G 5G 6G10G15G17G30G23G18G29
  24316998.2784    6811127.26045   5270904.14345                  24317009.1344
         9.2504         10.5004
  20922716.8724    -325219.47348   -218813.05547                  20922723.4354
        28.0004         26.2504
  22080575.2244    3889985.02547   3031155.37546                  22080583.2204
        25.2504         25.2504
  23158341.0834   -2780511.09746  -2144698.08346                  23158349.4314
        16.5004         15.5004
  22339242.6144   -1784421.18747  -1374318.00246                  22339250.4934
        21.0004         22.7504
  22152982.1064    5219854.87647   3989547.87046                  22152989.4934
        23.2504         23.2504
  21358309.6534    -761698.36148   -585425.23847                  21358316.7354
        28.0004         27.5004
  24802522.2554   -1089397.27845   -726286.68245                  24802528.9934
         8.2504          7.7504
  24615602.9424   -1931686.54145  -1398480.74645                  24615610.5994
        10.5004          8.5004
 02  7  1 15 17  0.0010000  0  9G 5G 6G10G15G17G30G23G18G29
  24330545.2474    6882317.74045   5326377.20245                  24330555.1424
         9.5004         10.5004
  20923540.4504    -320892.14647   -215441.11347                  20923547.1654
        27.7504         26.2504
  22089740.8334    3938150.16847   3068686.63546                  22089748.8764
        25.5004         25.2504
  23154359.9894   -2801432.31246  -2161000.31046                  23154369.1924
        15.7504         15.2504
  22337164.4034   -1795343.55047  -1382828.93446                  22337171.8134
        21.0004         22.5004
  22164454.1614    5280141.12947   4036524.14546                  22164461.3134
        22.7504         23.2504
  21358841.8174    -758901.12747   -583245.56247                  21358849.1574
        27.5004         27.5004
  24795128.2394   -1128249.94345   -756561.49245                  24795137.5604
         8.2504          8.0004
  24612024.6464   -1950488.51245  -1413131.56945                  24612032.8884
        10.2504          8.7504
 02  7  1 15 17 15.0010000  0  9G 5G 6G10G15G17G30G23G18G29
  24344106.0524    6953578.11745   5381904.72745                  24344115.9464
        10.5004         10.5004
  20924389.8724    -316427.87348   -211962.45547                  20924396.4934
        28.0004         26.2504
  22098939.5524    3986490.28247   3106354.24546                  22098947.4784
        26.0004         25.5004
  23150398.7554   -2822248.57346  -2177220.75646                  23150407.8064
        16.5004         15.7504
  22335106.9194   -1806156.49047  -1391254.59346                  22335114.1654
        21.5004         22.5004
  22175953.1064    5340567.46347   4083609.57546                  22175960.3174
        23.7504         23.2504
  21359409.4424    -755918.31747   -580921.28847                  21359416.8994
        26.5004         27.5004
  24787748.0444   -1167029.89445   -786779.58945                  24787754.3494
         7.7504          7.7504
  24608466.0604   -1969191.29945  -1427705.10745                  24608475.3684
        10.0004         10.0004
 02  7  1 15 17 30.0010000  0  9G 5G 6G10G15G17G30G23G18G29
  24357680.2784    7024911.67045   5437489.28045                  24357689.9624
        11.2504         10.7504
  20925266.0994    -311822.95248   -208374.19547                  20925272.6964
        28.5004         26.2504
  22108172.1464    4035008.67147   3144160.77946                  22108179.9784
        25.0004         25.2504
  23146458.3104   -2842956.23046  -2193356.56846                  23146466.6104
        16.5004         15.7504
  22333070.6464   -1816856.39147  -1399592.17146                  22333078.0674
        22.5004         23.0004
  22187478.9274    5401136.96647   4130806.56946                  22187486.0564
        23.7504         23.2504
  21360012.9664    -752746.30547   -578449.58547                  21360020.6104
        26.5004         27.7504
  24780383.3254   -1205733.35445   -816938.15245                  24780392.5054
         8.2504          7.5004
  24604926.2944   -1987791.09845  -1442198.49045                  24604935.1104
        10.0004          9.7504
 02  7  1 15 17 45.0010000  0  9G 5G 6G10G15G17G30G23G18G29
  24371267.2164    7096311.92145   5493125.80645                  24371276.3374
        11.5004         10.5004
  20926168.1224    -307083.23248   -204680.90947                  20926174.4384
        28.5004         26.0004
  22117437.3804    4083698.98047   3182101.27746                  22117445.4464
        24.5004         24.7504
  23142537.2004   -2863561.32346  -2209412.46546                  23142545.1264
        16.7504         15.5004
  22331054.8024   -1827449.39447  -1407846.45246                  22331062.3884
        22.7504         23.0004
  22199031.0444    5461843.27747   4178110.16046                  22199037.8174
        24.7504         23.0004
  21360651.6384    -749391.17347   -575835.18847                  21360658.7784
        27.0004         27.5004
  24773032.4504   -1244366.03345   -847041.51445                  24773040.0244
         8.2504          9.0004
  24601405.5834   -2006293.53845  -1456615.92445                  24601414.7394
        10.5004         10.0004
 02  7  1 15 18  0.0010000  0  9G 5G 6G10G15G17G30G23G18G29
  24384865.8644    7167776.15145   5548812.18145                  24384875.4074
        11.2504         10.7504
  20927095.2164    -302210.90848   -200884.29547                  20927101.5324
        28.2504         25.7504
  22126735.0524    4132558.51547   3220173.62446                  22126743.0244
        25.5004         24.2504
  23138634.9424   -2884066.26546  -2225390.30946                  23138643.1494
        17.0004         16.0004
  22329058.9424   -1837937.84647  -1416019.25746                  22329066.5634
        22.2504         23.0004
  22210608.6384    5522683.64247   4225518.20746                  22210615.5794
        24.7504         23.0004
  21361324.4744    -745855.23248   -573079.90747                  21361331.2244
        28.0004         27.7504
  24765693.6464   -1282930.05945   -877091.35945                  24765702.3334
         8.2504          9.0004
  24597902.8644   -2024700.62545  -1470959.06545                  24597910.8024
        10.2504          9.5004
 02  7  1 15 18 15.0010000  0  9G 5G 6G10G15G17G30G23G18G29
  24398479.2394    7239310.53945   5604553.21945                  24398487.7044
        11.0004         10.7504
  20928049.0364    -297199.35347   -196979.18647                  20928055.0714
        27.7504         25.7504
  22136066.2944    4181593.27047   3258382.50946                  22136074.0214
        26.0004         24.2504
  23134753.2714   -2904464.51046  -2241285.02346                  23134761.3724
        16.7504         15.7504
  22327083.9354   -1848315.21747  -1424105.50846                  22327091.7434
        22.2504         22.7504
  22222212.7394    5583664.15747   4273035.46846                  22222219.6104
        24.7504         23.0004
  21362032.9274    -742131.85848   -570178.56947                  21362039.9034
        28.7504         28.0004
  24758368.9504   -1321418.61545   -907082.44545                  24758376.5134
         8.5004          9.0004
  24594419.9354   -2043005.55445  -1485222.58645                  24594427.4154
        11.2504         10.5004
 02  7  1 15 18 30.0010000  0  9G 5G 6G10G15G17G30G23G18G29
  24412104.2314    7310912.39645   5660346.85845                  24412112.1464
        10.7504         10.7504
  20929028.6854    -292050.73148   -192967.26846                  20929034.9664
        28.2504         25.5004
  22145430.1224    4230800.66947   3296725.93046                  22145437.5794
        26.0004         24.2504
  23130891.7084   -2924758.30246  -2257098.33846                  23130899.9274
        16.2504         15.7504
  22325129.9814   -1858583.88247  -1432107.05946                  22325137.6614
        21.7504         22.7504
  22233843.3334    5644782.18147   4320659.87546                  22233850.0954
        24.2504         22.7504
  21362776.6774    -738223.35048   -567132.97347                  21362783.5604
        28.7504         28.0004
  24751058.8644   -1359833.66445   -937016.14945                  24751065.6854
         9.0004          9.0004
  24590955.1774   -2061210.25845  -1499408.05345                  24590963.4074
        10.0004         10.2504
 02  7  1 15 18 45.0010000  0  9G 5G 6G10G15G17G30G23G18G29
  24425741.0444    7382575.01045   5716187.79845                  24425750.7514
        10.0004         10.7504
  20930033.4114    -286771.25248   -188853.38946                  20930039.5634
        28.0004         25.5004
  22154825.3414    4280174.07047   3335198.69246                  22154832.5754
        26.5004         24.0004
  23127048.4274   -2944953.95246  -2272835.19046                  23127056.5524
        17.7504         16.2504
  22323195.6854   -1868750.35347  -1440028.97746                  22323203.2244
        21.5004         23.0004
  22245498.7004    5706030.98847   4368386.18646                  22245505.5214
        23.0004         22.7504
  21363554.8334    -734136.04948   -563948.06347                  21363561.6534
        29.0004         28.0004
  24743761.8644   -1398181.42445   -966897.53245                  24743769.7904
         9.7504          9.0004
  24587508.4664   -2079320.84345  -1513520.12645                  24587517.1064
         9.0004          9.2504
 02  7  1 15 19  0.0010000  0  9G 5G 6G10G15G17G30G23G18G29
  24439390.4274    7454299.56845   5772077.02145                  24439401.2244
         9.5004         10.5004
  20931063.2714    -281359.26547   -184636.25947                  20931069.6344
        27.7504         26.0004
  22164252.7164    4329714.62047   3373801.70946                  22164259.8684
        24.7504         23.7504
  23123224.3024   -2965050.11646  -2288494.51346                  23123232.6034
        17.7504         16.7504
  22321280.5284   -1878813.05447  -1447870.04446                  22321288.1384
        21.5004         23.2504
  22257178.7714    5767411.65747   4416215.26546                  22257185.6534
        22.5004         22.5004
  21364366.6854    -729868.48848   -560622.68847                  21364373.6494
        28.7504         28.2504
  24736477.2864   -1436460.11145   -996725.05645                  24736486.2434
         9.0004          9.2504
  24584080.6464   -2097335.29645  -1527557.32445                  24584090.9974
         9.2504          9.5004
 02  7  1 15 19 15.0010000  0  9G 5G 6G10G15G17G30G23G18G29
  24453050.4584    7526086.64545   5828014.96945                  24453060.4234
         9.0004         10.2504
  20932118.4744    -275813.80047   -180315.10647                  20932125.0244
        27.0004         25.7504
  22173712.0754    4379422.83347   3412535.36646                  22173719.2864
        24.7504         24.0004
  23119419.4504   -2985045.89946  -2304075.62546                  23119427.8454
        17.7504         16.5004
  22319385.7004   -1888771.18547  -1455629.61046                  22319393.0754
        21.0004         23.0004
  22268884.4664    5828924.64247   4464147.43046                  22268891.6884
        23.0004         22.7504
  21365213.3884    -725419.75448   -557156.13347                  21365220.5874
        28.7504         28.2504
  24729206.5134   -1474668.58145  -1026497.82945                  24729214.7674
         9.7504          9.2504
  24580671.3804   -2115252.52945  -1541518.78845                  24580680.9234
         9.7504          9.7504
 02  7  1 15 19 30.0010000  0  9G 5G 6G10G15G17G30G23G18G29
  24466722.4354    7597933.41745   5883999.41045                  24466731.7554
         8.2504         10.2504
  20933198.6774    -270136.99747   -175891.62647                  20933205.1694
        27.7504         25.7504
  22183202.5994    4429295.94447   3451397.51446                  22183209.9154
        25.7504         24.2504
  23115633.1224   -3004943.60846  -2319580.30146                  23115641.1654
        18.2504         16.7504
  22317509.9354   -1898627.14547  -1463309.56146                  22317517.0874
        21.2504         23.0004
  22280614.5524    5890567.23447   4512180.58346                  22280621.6694
        24.2504         23.0004
  21366093.8174    -720792.18548   -553550.22847                  21366100.7124
        29.5004         28.2504
  24721948.6464   -1512808.95345  -1056217.60645                  24721955.5994
        10.0004          9.2504
  24577279.5604   -2133074.71845  -1555406.13545                  24577288.6344
        10.0004         10.2504
 02  7  1 15 19 45.0010000  0  9G 5G 6G10G15G17G30G23G18G29
  24480407.0914    7669844.75045   5940034.17445                  24480415.9194
         8.0004          9.7504
  20934304.7164    -264323.54448   -171361.65647                  20934311.0444
        28.5004         25.7504
  22192725.2864    4479338.83847   3490391.96246                  22192732.6854
        25.5004         24.5004
  23111866.3964   -3024738.00846  -2335004.49946                  23111874.6384
        17.2504         17.0004
  22315654.6304   -1908375.80147  -1470905.90946                  22315661.7714
        21.7504         23.2504
  22292370.5524    5952344.30547   4560318.53146                  22292377.6224
        24.5004         22.7504
  21367009.4744    -715980.61248   -549800.94547                  21367016.2474
        30.0004         28.5004
  24714704.2944   -1550875.84745  -1085880.08345                  24714712.4544
        10.0004          9.2504
  24573907.0674   -2150796.13545  -1569214.99045                  24573916.4584
        10.0004         10.0004
 02  7  1 15 20  0.0010000  0  9G 5G 6G10G15G17G30G23G18G29
  24494103.7634    7741818.39545   5996117.48145                  24494111.8884
         7.7504          9.5004
  20935436.8564    -258375.17748   -166726.55947                  20935443.0214
        28.7504         25.7504
  22202280.2474    4529549.24947   3529516.93446                  22202287.5994
        26.2504         24.7504
  23108118.6384   -3044431.01446  -2350349.66946                  23108127.1614
        17.2504         17.0004
  22313819.9114   -1918019.02947  -1478420.10046                  22313827.6854
        21.5004         23.2504
  22304151.5284    6014253.52547   4608559.45046                  22304158.3994
        24.2504         22.7504
  21367959.7394    -710986.91648   -545909.74447                  21367966.6224
        29.7504         28.2504
  24707474.6774   -1588870.84445  -1115486.57245                  24707483.2594
        10.0004          9.7504
  24570553.4584   -2168418.49245  -1582946.64845                  24570562.3214
        10.5004         10.5004
 02  7  1 15 20 15.0010000  0  9G 5G 6G10G15G17G30G23G18G29
  24507810.5524    7813848.26845   6052244.62045                  24507819.7084
         7.5004          8.7504
  20936593.4194    -252297.53948   -161990.74046                  20936599.5484
        28.5004         25.5004
  22211865.5604    4579921.08247   3568767.70446                  22211873.1694
        26.0004         24.5004
  23104389.7084   -3064028.35646  -2365620.29646                  23104398.4544
        17.5004         17.5004
  22312003.6224   -1927562.72747  -1485856.74546                  22312011.3604
        22.0004         23.0004
  22315956.4584    6076288.73847   4656898.54746                  22315963.4114
        24.2504         23.0004
  21368943.7244    -705816.80048   -541881.08247                  21368950.4974
        30.7504         28.2504
  24700256.8254   -1626799.46745  -1145041.30245                  24700264.6464
        10.7504          9.0004
  24567217.8334   -2185947.09645  -1596605.26045                  24567227.1884
         9.7504          9.7504
 02  7  1 15 20 30.0010000  0  9G 5G 6G10G15G17G30G23G18G29
  24521527.9584    7885937.31545   6108417.85345                  24521537.4314
         7.5004          9.5004
  20937775.5754    -246087.12047   -157151.44847                  20937781.9034
        27.7504         25.7504
  22221482.5364    4630457.39047   3608146.62346                  22221490.3924
        25.2504         24.5004
  23100679.1304   -3083526.70146  -2380813.79346                  23100687.4784
        17.7504         17.5004
  22310206.7634   -1937003.35347  -1493213.06746                  22310214.5244
        21.7504         23.0004
  22327786.0364    6138453.01247   4705338.22046                  22327793.0834
        25.0004         23.5004
  21369961.5284    -700466.82548   -537712.26447                  21369968.1734
        30.2504         28.2504
  24693052.5914   -1664658.04245  -1174541.49045                  24693059.2594
        11.0004          9.0004
  24563900.9354   -2203378.27045  -1610187.95845                  24563909.5994
         9.7504         10.2504
 02  7  1 15 20 45.0010000  0  9G 5G 6G10G15G17G30G23G18G29
  24535257.3724    7958083.99745   6164636.01145                  24535266.8564
         7.7504         10.0004
  20938982.3494    -239744.94948   -152209.50546                  20938988.3604
        28.0004         25.5004
  22231130.1144    4681156.65247   3647652.53246                  22231137.8414
        25.0004         24.5004
  23096987.2864   -3102927.19846  -2395931.02946                  23096996.1034
        17.7504         17.5004
  22308429.7784   -1946342.25147  -1500490.11246                  22308437.6924
        21.0004         22.7504
  22339639.7474    6200744.67347   4753877.14846                  22339646.6534
        25.2504         23.2504
  21371013.5754    -694938.20948   -533404.24447                  21371020.5874
        28.7504         28.2504
  24685861.7164   -1702447.46445  -1203987.77745                  24685870.1464
        11.0004          8.7504
  24560601.6694   -2220712.89445  -1623695.38545                  24560611.2354
         9.2504         10.2504
 02  7  1 15 21  0.0010000  0  9G 5G 6G10G15G17G30G23G18G29
  24548998.5674    8030293.19145   6220902.87045                  24549008.6264
         7.5004          9.5004
  20940215.1304    -233265.65748   -147160.70647                  20940221.1184
        29.0004         25.7504
  22240809.8644    4732023.76347   3687289.22646                  22240817.8024
        24.7504         24.5004
  23093315.3254   -3122224.54346  -2410967.88646                  23093323.8374
        18.5004         18.2504
  22306672.9664   -1955574.19847  -1507683.83546                  22306680.7284
        21.5004         22.7504
  22351518.4664    6263168.64847   4802519.18146                  22351525.4664
        24.5004         22.5004
  21372100.8964    -689225.69348   -528952.92947                  21372107.8024
        29.0004         28.0004
  24678684.7004   -1740162.37445  -1233376.03045                  24678693.2714
         9.7504          9.2504
  24557323.3644   -2237945.26945  -1637123.18345                  24557332.6494
         9.7504         10.2504
 02  7  1 15 21 15.0010000  0  9G 5G 6G10G15G17G30G23G18G29
  24562749.0914    8102553.16245   6277209.27945                  24562757.6854
         7.5004          8.7504
  20941471.8644    -226660.45248   -142013.79547                  20941477.8064
        29.7504         25.7504
  22250519.1924    4783047.04747   3727047.61046                  22250526.8374
        25.0004         24.2504
  23089660.3414   -3141430.08246  -2425933.22846                  23089668.5604
        18.5004         17.7504
  22304934.6464   -1964710.72447  -1514803.19646                  22304942.5244
        21.2504         22.5004
  22363420.4584    6325713.18147   4851255.14446                  22363427.5524
        24.2504         22.5004
  21373220.5214    -683340.61248   -524367.15447                  21373227.2594
        29.7504         28.0004
  24671519.2554   -1777813.78945  -1262714.79845                  24671527.1694
         9.0004          7.7504
  24554061.3564   -2255086.51945  -1650479.95545                  24554070.7714
        10.5004          9.7504
 02  7  1 15 21 30.0010000  0  9G 5G 6G10G15G17G30G23G18G29
  24576512.1924    8174878.56345   6333566.69845                  24576521.0794
         7.7504          9.5004
  20942755.7944    -219914.22048   -136756.98347                  20942761.8994
        29.0004         25.7504
  22260261.1064    4834241.13347   3766939.09746                  22260268.3884
        25.0004         23.7504
  23086026.2244   -3160528.87746  -2440815.37946                  23086034.3844
        18.2504         17.7504
  22303216.8644   -1973736.72647  -1521836.43646                  22303224.6034
        21.5004         22.5004
  22375347.7784    6388392.77147   4900096.36446                  22375354.6384
        24.5004         22.5004
  21374376.1924    -677267.99648   -519635.23647                  21374383.0524
        28.5004         28.0004
  24664369.3884   -1815386.54145  -1291992.21545                  24664377.9464
         8.5004          8.5004
  24550819.8254   -2272121.39245  -1663753.85145                  24550828.0094
        11.0004         10.0004
 02  7  1 15 21 45.0010000  0  9G 5G 6G10G15G17G30G23G18G29
  24590285.9424    8247260.92144   6389968.50045                  24590293.5994
         7.2504          9.2504
  20944064.9274    -213034.90548   -131396.48147                  20944071.2434
        28.2504         26.0004
  22270033.8104    4885597.37347   3806956.94246                  22270041.1964
        24.7504         24.0004
  23082410.5834   -3179529.04846  -2455620.68446                  23082418.8604
        18.0004         17.7504
  22301518.9354   -1982660.40346  -1528789.94546                  22301526.7904
        19.2504         22.2504
  22387299.4194    6451199.08947   4949036.32846                  22387306.4194
        23.7504         22.5004
  21375565.8174    -671015.95448   -514763.50647                  21375572.5794
        29.5004         28.0004
  24657233.2714   -1852888.46745  -1321214.45545                  24657241.0094
         8.0004          8.5004
  24547597.0134   -2289057.57645  -1676950.83445                  24547605.5244
        11.2504         10.2504
 02  7  1 15 22  0.0010000  0  9G 5G 6G10G15G17G30G23G18G29
  24604070.2634    8319698.01344   6446412.93445                  24604078.7744
         6.7504          8.5004
  20945398.9584    -206024.23948   -125933.62547                  20945405.3214
        28.2504         25.7504
  22279837.1924    4937113.61247   3847099.45046                  22279844.3804
        25.7504         23.7504
  23078813.1384   -3198432.39846  -2470350.54846                  23078821.5214
        17.0004         17.5004
  22299839.9814   -1991483.74947  -1535665.27446                  22299847.7784
        20.2504         22.7504
  22399274.6304    6514129.70047   4998073.14146                  22399282.2514
        22.7504         22.2504
  21376789.4894    -664586.33048   -509753.40847                  21376796.0874
        29.5004         27.7504
  24650109.4194   -1890321.14845  -1350382.72845                  24650117.8494
         8.5004          9.0004
  24544392.4664   -2305896.73345  -1690072.20545                  24544402.8414
        11.0004         11.2504
 02  7  1 15 22 15.0010000  0  9G 5G 6G10G15G17G30G23G18G29
  24617864.6774    8392188.11944   6502898.69245                  24617874.1144
         6.5004          8.2504
  20946757.6224    -198883.46048   -120369.38447                  20946763.8564
        28.2504         26.0004
  22289670.3494    4988788.18447   3887365.34646                  22289677.6534
        24.5004         23.5004
  23075234.0754   -3217240.50546  -2485006.18646                  23075242.7984
        17.5004         17.0004
  22298179.6774   -2000208.10047  -1542463.45946                  22298187.5214
        21.5004         23.2504
  22411273.4664    6577182.83947   5047205.42146                  22411281.0054
        23.7504         22.2504
  21378046.1384    -657980.56848   -504606.05447                  21378053.1034
        29.0004         27.7504
  24643000.1614   -1927685.65945  -1379497.90245                  24643009.0134
         9.5004          9.0004
  24541206.9034   -2322639.78645  -1703118.70645                  24541218.2744
        11.7504         11.0004
 02  7  1 15 22 30.0010000  0  9G 5G 6G10G15G17G30G23G18G29
  24631669.9664    8464735.56744   6559429.12745                  24631678.2434
         6.5004          8.5004
  20948142.2784    -191607.77648   -114700.01647                  20948148.4194
        28.2504         25.7504
  22299534.6384    5040625.38147   3927757.94846                  22299541.9894
        24.0004         23.7504
  23071674.0834   -3235948.63446  -2499583.90646                  23071682.1964
        17.5004         17.2504
  22296539.2944   -2008828.87447  -1549180.92846                  22296547.3604
        21.0004         23.0004
  22423296.5284    6640363.03247   5096436.72346                  22423303.9744
        24.2504         22.2504
  21379337.8964    -651193.92248   -499317.75447                  21379344.8494
        28.2504         27.7504
  24635903.3024   -1964977.09445  -1408556.13445                  24635911.8964
        10.5004         10.0004
  24538039.3334   -2339281.81945  -1716086.47645                  24538048.8644
        11.5004         11.0004
 02  7  1 15 22 45.0010000  0  9G 5G 6G10G15G17G30G23G18G29
  24645483.9034    8537331.46244   6615997.29345                  24645495.0634
         6.2504          8.2504
  20949550.8884    -184205.54548   -108932.04446                  20949557.2514
        28.0004         25.5004
  22309428.3564    5092616.41347   3968270.42146                  22309435.7674
        25.0004         23.7504
  23068131.1854   -3254565.21146  -2514090.30646                  23068138.9584
        17.5004         17.2504
  22294916.8494   -2017354.51947  -1555824.27546                  22294924.6924
        20.7504         23.0004
  22435341.5604    6703661.09747   5145759.86346                  22435349.0754
        24.5004         22.5004
  21380661.9974    -644234.93248   -493895.15747                  21380669.0444
        28.2504         27.7504
  24628819.4274   -2002203.77045  -1437563.88345                  24628828.1494
        11.0004         10.0004
  24534890.6224   -2355830.91245  -1728981.84845                  24534898.3494
        11.0004         10.2504
 02  7  1 15 23  0.0010000  0  9G 5G 6G10G15G17G30G23G18G29
  24659309.1384    8609986.12143   6672611.25045                  24659319.2084
         6.0004          8.2504
  20950985.7554    -176665.93047   -103057.01146                  20950992.2244
        27.7504         25.5004
  22319353.2864    5144771.53547   4008910.76646                  22319360.7084
        25.5004         23.7504
  23064607.9664   -3273079.50446  -2528516.99346                  23064616.5604
        17.7504         17.2504
  22293314.3884   -2025774.52847  -1562385.31146                  22293321.6104
        21.7504         23.0004
  22447411.5524    6767087.53447   5195183.02446                  22447419.1854
        24.2504         23.0004
  21382021.1304    -637092.88947   -488329.92747                  21382028.0604
        27.7504         27.5004
  24621750.0364   -2039354.79545  -1466512.72545                  24621757.7634
        11.2504         10.2504
  24531759.9974   -2372276.11045  -1741796.25845                  24531770.1494
        10.0004         10.0004
 02  7  1 15 23 15.0010000  0  9G 5G 6G10G15G17G30G23G18G29
  24673145.9034    8682693.69844   6729266.48345                  24673154.2634
         6.5004          7.7504
  20952445.3564    -168994.27548    -97079.10047                  20952451.8374
        28.0004         25.7504
  22329308.1694    5197084.86347   4049674.38446                  22329315.4274
        25.7504         24.0004
  23061103.4584   -3291496.99946  -2542868.26546                  23061112.3334
        16.2504         17.2504
  22291731.2944   -2034094.26547  -1568868.20846                  22291738.3994
        22.5004         23.5004
  22459504.2944    6830636.28247   5244701.49646                  22459511.7164
        24.5004         23.0004
  21383413.9584    -629773.27247   -482626.32147                  21383420.9234
        27.7504         27.5004
  24614693.8644   -2076435.35145  -1495406.63145                  24614701.9894
        11.0004         11.0004
  24528649.9584   -2388622.53245  -1754533.69445                  24528660.8374
        10.2504          9.2504
 02  7  1 15 23 30.0010000  0  9G 5G 6G10G15G17G30G23G18G29
  24686991.4114    8755449.04144   6785958.89345                  24686997.5284
         6.7504          8.7504
  20953929.5674    -161195.19148    -91001.88847                  20953936.0834
        28.7504         26.0004
  22339292.3104    5249551.32547   4090557.32946                  22339299.8024
        25.0004         23.7504
  23057616.3334   -3309822.47446  -2557147.83246                  23057625.5834
        15.7504         17.2504
  22290166.2634   -2042318.66447  -1575276.82546                  22290173.8844
        22.2504         23.7504
  22471619.7004    6894302.34747   5294311.39246                  22471626.6884
        24.7504         22.5004
  21384839.6384    -622280.88848   -476788.09147                  21384846.5444
        28.0004         27.5004
  24607649.9194   -2113449.86145  -1524249.06345                  24607657.9384
        10.7504         10.7504
  24525557.3174   -2404874.64245  -1767197.65945                  24525567.9974
        10.5004          9.7504
 02  7  1 15 23 45.0010000  0  9G 5G 6G10G15G17G30G23G18G29
  24700846.6534    8828259.41844   6842694.20745                  24700852.7474
         7.2504          8.5004
  20955439.5134    -153261.01248    -84819.41447                  20955446.0994
        28.5004         25.7504
  22349306.6854    5302178.12647   4131565.19846                  22349314.1884
        26.0004         23.5004
  23054147.6464   -3328048.39946  -2571349.82046                  23054157.0364
        16.0004         17.0004
  22288620.9814   -2050440.12047  -1581605.21746                  22288628.9074
        22.0004         24.0004
  22483758.7164    6958092.88447   5344018.26646                  22483765.1494
        25.0004         22.0004
  21386299.5994    -614608.12548   -470809.32347                  21386306.3724
        28.2504         27.7504
  24600620.8024   -2150390.56845  -1553034.01145                  24600628.7864
        10.7504         10.7504
  24522484.1614   -2421024.62245  -1779782.00045                  24522492.6144
        10.7504         10.0004
 02  7  1 15 24  0.0010000  0  9G 5G 6G10G15G17G30G23G18G29
  24714712.6694    8901123.28044   6899471.18245                  24714719.0674
         7.2504          8.5004
  20956974.8644    -145192.70548    -78532.41947                  20956981.4504
        29.0004         25.7504
  22359351.5284    5354963.70247   4172696.80746                  22359359.1614
        25.2504         23.5004
  23050697.9114   -3346175.88746  -2585475.10746                  23050707.0324
        15.0004         16.7504
  22287094.7164   -2058459.91247  -1587854.38246                  22287102.7944
        22.0004         24.2504
  22495920.7634    7022006.35347   5393820.94846                  22495927.0794
        24.5004         21.5004
  21387794.0054    -606756.12747   -464690.87247                  21387801.2394
        27.2504         28.0004
  24593605.1694   -2187258.40645  -1581762.15245                  24593612.5794
        11.2504         10.2504
  24519430.3334   -2437073.09045  -1792287.29345                  24519438.8214
        11.0004          9.5004
 02  7  1 15 24 15.0010000  0  9G 5G 6G10G15G17G30G23G18G29
  24728587.8804    8974036.29845   6956286.47345                  24728594.1854
         7.7504          9.0004
  20958534.8804    -136994.11548    -72143.90147                  20958541.3254
        28.5004         25.7504
  22369425.7474    5407903.79747   4213948.81946                  22369433.4854
        23.7504         23.5004
  23047266.6064   -3364208.94446  -2599526.81246                  23047275.0954
        15.5004         16.2504
  22285587.2784   -2066382.06347  -1594027.49346                  22285595.0054
        22.2504         24.0004
  22508105.6614    7086038.30647   5443715.95546                  22508112.4234
        22.7504         21.5004
  21389321.5284    -598728.97147   -458435.93547                  21389328.7514
        27.7504         27.7504
  24586602.2004   -2224057.03246  -1610436.36845                  24586609.7744
        12.2504         10.0004
  24516395.0054   -2453023.89745  -1804716.46645                  24516404.7124
        11.0004         10.5004
 02  7  1 15 24 30.0010000  0  9G 5G 6G10G15G17G30G23G18G29
  24742473.3334    9047003.21044   7013143.76445                  24742479.5914
         7.2504          9.2504
  20960120.9894    -128660.08248    -65649.85347                  20960127.2824
        28.5004         26.2504
  22379530.0754    5461003.09647   4255324.87346                  22379537.7674
        24.5004         23.0004
  23043853.8334   -3382142.46246  -2613500.95346                  23043862.2864
        16.2504         16.5004
  22284099.4744   -2074201.48747  -1600120.54246                  22284107.0364
        22.5004         24.0004
  22520313.9744    7150193.51447   5493706.98446                  22520320.6654
        22.0004         21.2504
  21390883.3104    -590521.55948   -452040.54847                  21390890.3334
        28.0004         27.7504
  24579613.8174   -2260781.23246  -1639052.58945                  24579620.5214
        12.0004         10.5004
  24513378.9584   -2468871.59145  -1817065.25945                  24513388.9814
        10.5004         10.0004
 02  7  1 15 24 45.0010000  0  9G 5G 6G10G15G17G30G23G18G29
  24756367.4354    9120018.93845   7070039.09545                  24756374.1384
         7.5004          8.5004
  20961731.8494    -120195.26548    -59053.89247                  20961737.9544
        28.7504         25.7504
  22389664.0134    5514256.39647   4296820.93746                  22389671.7634
        23.7504         23.0004
  23040459.3884   -3399981.27446  -2627401.29446                  23040467.8994
        16.5004         16.5004
  22282629.7164   -2081922.95347  -1606137.24746                  22282637.1614
        22.7504         23.7504
  22532544.6224    7214466.68647   5543789.95346                  22532551.5754
        21.5004         20.7504
  21392478.5754    -582138.65748   -445508.40547                  21392485.5284
        28.5004         27.7504
  24572638.8884   -2297435.54445  -1667614.34245                  24572646.0874
        11.5004         10.2504
  24510381.9894   -2484620.64645  -1829337.22345                  24510391.4154
        11.0004         10.7504
 02  7  1 15 25  0.0010000  0  9G 5G 6G10G15G17G30G23G18G29
  24770271.5214    9193085.16944   7126973.77945                  24770279.3294
         7.2504          9.2504
  20963367.8174    -111597.33648    -52354.20747                  20963374.0054
        29.7504         27.2504
  22399827.5284    5567665.54847   4338438.43346                  22399835.2554
        24.2504         23.0004
  23037082.9424   -3417723.26346  -2641226.20246                  23037092.0284
        16.0004         16.2504
  22281179.6924   -2089544.47047  -1612076.08446                  22281187.2434
        22.0004         24.0004
  22544798.0994    7278859.60847   5593966.22746                  22544804.8724
        20.7504         20.2504
  21394107.7164    -573578.12348   -438837.86047                  21394114.3844
        29.0004         29.0004
  24565677.3104   -2334017.48645  -1696119.72345                  24565684.0604
        11.2504         10.2504
  24507404.3334   -2500268.55945  -1841530.34845                  24507414.1224
        11.5004         10.5004
 02  7  1 15 25 15.0010000  0  9G 5G 6G10G15G17G30G23G18G29
  24784185.4504    9266201.86344   7183947.76145                  24784193.2474
         6.7504          8.0004
  20965029.4894    -102865.87548    -45550.47746                  20965035.8994
        28.7504         25.0004
  22410020.5134    5621230.50147   4380177.34246                  22410028.2164
        23.7504         23.2504
  23033725.0994   -3435368.19746  -2654975.46846                  23033734.0094
        15.7504         16.5004
  22279748.2784   -2097065.76247  -1617936.81946                  22279755.7244
        22.5004         24.2504
  22557074.6694    7343372.17547   5644235.73046                  22557081.8104
        20.5004         20.2504
  21395770.5054    -564839.70148   -432028.69747                  21395776.9624
        29.7504         27.2504
  24558729.9274   -2370526.59545  -1724568.31645                  24558737.4194
        11.5004         10.5004
  24504446.1924   -2515814.67745  -1853644.19945                  24504454.9034
        11.5004         10.0004
 02  7  1 15 25 30.0010000  0  9G 5G 6G10G15G17G30G23G18G29
  24798107.3494    9339363.92944   7240957.11745                  24798115.9894
         6.7504          8.2504
  20966715.4274     -94005.53348    -38646.30147                  20966721.5794
        28.7504         25.7504
  22420242.3254    5674946.10747   4422033.65046                  22420250.6384
        23.0004         23.0004
  23030385.1534   -3452920.71246  -2668652.71546                  23030394.0284
        15.2504         16.5004
  22278335.0214   -2104491.65847  -1623723.21746                  22278342.2084
        23.0004         23.7504
  22569372.7394    7407999.24247   5694594.45446                  22569379.8684
        22.0004         21.0004
  21397466.4584    -555928.04948   -425084.55547                  21397472.9624
        29.0004         28.2504
  24551795.4114   -2406967.28945  -1752963.62645                  24551803.0564
        11.5004          9.7504
  24501506.5754   -2531263.46345  -1865682.16645                  24501515.2514
        11.5004         10.7504
 02  7  1 15 25 45.0020000  0  9G 5G 6G10G15G17G30G23G18G29
  24812039.2054    9412578.04044   7298006.99145                  24812048.4794
         6.5004          9.0004
  20968426.4634     -85013.34647    -31639.41947                  20968432.7794
        27.2504         25.7504
  22430493.5724    5728817.76947   4464011.56146                  22430501.3934
        22.2504         22.7504
  23027062.9944   -3470379.76346  -2682257.13846                  23027071.5764
        17.0004         16.7504
  22276940.4244   -2111820.45147  -1629433.93946                  22276947.5184
        22.7504         23.7504
  22581693.8854    7472746.90447   5745047.15646                  22581701.2254
        22.2504         21.5004
  21399195.7054    -546840.48248   -418003.32347                  21399202.2794
        28.7504         28.2504
  24544874.2834   -2443339.56645  -1781305.59245                  24544882.2214
        11.7504         10.2504
  24498585.4474   -2546613.43245  -1877643.14645                  24498594.4284
        11.5004         11.0004
 02  7  1 15 26  0.0020000  0  9G 5G 6G10G15G17G30G23G18G29
  24825978.8144    9485832.58844   7355088.45145                  24825988.3344
         6.2504          8.2504
  20970162.1194     -75891.95247    -24531.83046                  20970168.2954
        27.2504         25.2504
  22440772.9474    5782836.34747   4506103.94246                  22440780.8854
        23.0004         22.7504
  23023758.4164   -3487744.65446  -2695788.19846                  23023766.6584
        17.0004         17.0004
  22275564.1114   -2119052.79347  -1635069.51946                  22275571.4514
        22.7504         24.0004
  22594035.8464    7537604.64547   5795585.63146                  22594043.7714
        22.5004         21.7504
  21400957.7524    -537579.87848   -410787.26147                  21400964.2684
        29.2504         28.2504
  24537965.9944   -2479639.92645  -1809591.53845                  24537973.1464
        11.7504         10.2504
  24495683.5104   -2561863.74045  -1889526.47345                  24495692.3264
        11.2504          9.7504
 02  7  1 15 26 15.0020000  0  9G 5G 6G10G15G17G30G23G18G29
  24839928.8304    9559136.99444   7412208.70045                  24839938.8074
         6.2504          7.7504
  20971923.6194     -66635.60247    -17319.09446                  20971930.0534
        26.7504         25.0004
  22451081.8074    5837010.08947   4548317.23446                  22451090.1194
        22.7504         22.7504
  23020472.4714   -3505011.54546  -2709242.89746                  23020480.6434
        17.2504         16.7504
  22274207.2994   -2126184.25347  -1640626.49446                  22274214.7564
        22.2504         23.5004
  22606400.6894    7602581.33747   5846216.78246                  22606408.3694
        22.2504         21.5004
  21402754.2214    -528140.64948   -403432.02247                  21402760.6664
        29.5004         28.0004
  24531072.1744   -2515865.54545  -1837819.26445                  24531080.2294
        11.7504          9.7504
  24492800.7914   -2577010.22945  -1901328.91445                  24492809.8654
        11.5004         10.5004
 02  7  1 15 26 30.0020000  0  9G 5G 6G10G15G17G30G23G18G29
  24853887.0414    9632488.11944   7469365.35045                  24853897.3814
         6.7504          8.0004
  20973710.1664     -57246.98547    -10003.28446                  20973716.6114
        27.2504         25.0004
  22461419.5574    5891335.86447   4590648.98446                  22461427.8224
        23.2504         22.7504
  23017204.9864   -3522183.24846  -2722623.41346                  23017213.0764
        17.2504         16.5004
  22272868.7914   -2133217.64947  -1646107.04346                  22272876.4474
        21.7504         23.5004
  22618787.1824    7667673.79447   5896938.15146                  22618794.7324
        21.2504         21.0004
  21404583.7364    -518525.58948   -395939.76147                  21404590.2994
        29.5004         28.0004
  24524192.8774   -2552019.01945  -1865990.73745                  24524199.2524
        11.7504         10.0004
  24489937.7214   -2592055.14445  -1913052.18845                  24489945.3774
        11.2504          9.5004
 02  7  1 15 26 45.0020000  0  9G 5G 6G10G15G17G30G23G18G29
  24867853.8854    9705884.93344   7526557.64345                  24867865.4434
         6.5004          8.2504
  20975521.9244     -47726.57447     -2584.78346                  20975528.3934
        27.7504         25.5004
  22471786.3694    5945812.59447   4633098.38146                  22471794.5294
        24.2504         23.2504
  23013955.2294   -3539260.35046  -2735930.22146                  23013962.4634
        16.5004         16.5004
  22271548.7834   -2140153.61047  -1651511.67946                  22271556.3114
        22.5004         23.7504
  22631195.7684    7732880.92647   5947748.86446                  22631203.4004
        21.7504         21.2504
  21406446.6744    -508735.31748   -388310.97547                  21406453.2714
        29.2504         28.0004
  24517326.3614   -2588100.75345  -1894106.34645                  24517332.9124
        11.5004          9.7504
  24487093.6584   -2606999.06245  -1924696.80845                  24487102.6274
        11.0004          8.7504
 02  7  1 15 27  0.0020000  0  9G 5G 6G10G15G17G30G23G18G29
  24881828.8464    9779325.39143   7583783.90745                  24881838.7404
         6.0004          8.7504
  20977358.5024     -38075.94448      4935.19046                  20977364.7954
        28.2504         25.5004
  22482181.1974    6000438.23347   4675663.80046                  22482189.1464
        24.2504         23.5004
  23010723.1824   -3556244.58346  -2749164.67746                  23010731.1894
        16.2504         16.7504
  22270247.2524   -2146993.98647  -1656841.83046                  22270254.5684
        22.7504         24.0004
  22643625.8384    7798200.68447   5998647.34946                  22643633.6584
        22.0004         21.2504
  21408342.8144    -498771.61648   -380547.05447                  21408349.4594
        28.7504         27.5004
  24510473.5724   -2624112.09145  -1922167.07245                  24510481.5104
        11.0004          9.7504
  24484268.5724   -2621843.23045  -1936263.64345                  24484276.5104
        10.0004          8.7504
 02  7  1 15 27 15.0020000  0  9G 5G 6G10G15G17G30G23G18G29
  24895813.7834    9852813.15043   7641047.05645                  24895827.7444
         5.5004          8.0004
  20979220.4794     -28290.95848     12559.84647                  20979226.5614
        29.5004         25.7504
  22492605.2834    6055216.38447   4718348.05646                  22492613.2444
        24.0004         23.7504
  23007509.3854   -3573131.99646  -2762323.67246                  23007517.1464
        17.0004         16.5004
  22268964.5334   -2153734.80147  -1662094.40246                  22268971.9794
        22.5004         24.2504
  22656078.0254    7863636.71547   6049636.42546                  22656085.4714
        22.0004         21.0004
  21410272.4324    -488630.53448   -372644.91047                  21410278.9364
        29.5004         27.7504
  24503635.2134   -2660048.77545  -1950169.64945                  24503643.4794
        11.0004          9.5004
  24481463.9864   -2636583.29945  -1947749.40445                  24481473.1664
        10.0004          9.0004
 02  7  1 15 27 30.0020000  0  9G 5G 6G10G15G17G30G23G18G29
  24909807.1744    9926350.41543   7698348.74145                  24909818.8734
         5.5004          7.7504
  20981108.3694     -18369.04548     20291.20446                  20981114.3574
        29.7504         25.5004
  22503058.6824    6110149.17547   4761152.81846                  22503067.0884
        24.5004         23.7504
  23004314.8614   -3589920.11746  -2775405.29246                  23004323.1504
        16.2504         16.7504
  22267701.2134   -2160373.62747  -1667267.50446                  22267708.6824
        23.2504         24.2504
  22668552.3304    7929190.97447   6100717.64346                  22668559.4944
        22.5004         21.0004
  21412236.4474    -478309.59848   -364602.62047                  21412243.0684
        28.2504         27.5004
  24496811.3074   -2695908.21145  -1978112.02345                  24496820.0294
        10.5004          9.7504
  24478679.8074   -2651216.46145  -1959151.81445                  24478690.2404
        11.0004         10.0004
 02  7  1 15 27 45.0020000  0  9G26G 6G10G15G17G30G23G18G29
  24556081.1504      -3241.84455
         8.7504
  20983020.7834      -8319.77148     28121.80947                  20983026.8894
        29.7504         25.7504
  22513539.5254    6165226.57247   4804070.24346                  22513547.5574
        24.5004         24.0004
  23001137.0724   -3606618.70146  -2788417.14646                  23001145.3144
        17.5004         17.2504
  22266455.4244   -2166920.23147  -1672368.73746                  22266463.1394
        23.2504         24.2504
  22681047.4794    7994853.44547   6151883.16846                  22681054.8894
        21.0004         20.7504
  21414233.0334    -467818.51948   -356427.75447                  21414239.8774
        28.2504         27.5004
  24490000.0104   -2731699.74245  -2006001.49545                  24490008.6274
        10.5004          9.5004
  24475913.8144   -2665752.23045  -1970478.35245                  24475921.6004
        11.5004          9.7504
 02  7  1 15 28  0.0020000  0  9G26G 6G10G15G17G30G23G18G29
  24551461.7364     -27515.01045
         8.7504
  20984958.6744       1862.89748     36056.34747                  20984965.0024
        28.7504         25.7504
  22524049.2604    6220454.13147   4847104.68546                  22524057.1394
        24.7504         24.0004
  22997977.7914   -3623221.79446  -2801354.59146                  22997985.6704
        17.2504         16.7504
  22265228.2754   -2173368.62447  -1677393.44046                  22265235.5924
        23.5004         24.2504
  22693564.1664    8060629.53547   6203137.23446                  22693571.3544
        20.7504         20.2504
  21416262.8074    -457151.40748   -348115.71347                  21416269.6044
        28.7504         27.7504
  24483203.1434   -2767417.31445  -2033833.32345                  24483210.7404
        10.5004          9.7504
  24473167.3224   -2680184.28146  -1981724.11045                  24473175.2254
        12.2504         10.0004
 02  7  1 15 28 15.0020000  0  9G26G 6G10G15G17G30G23G18G29
  24546860.2914     -51696.56845
         9.2504
  20986922.6194      12183.85648     44098.65747                  20986928.8184
        28.7504         25.7504
  22534587.7834    6275836.12847   4890259.47246                  22534595.6394
        25.0004         23.5004
  22994837.5724   -3639724.55146  -2814213.85546                  22994845.2994
        17.5004         17.0004
  22264020.7134   -2179714.20447  -1682338.04746                  22264027.9594
        23.7504         24.5004
  22706103.9394    8126523.73847   6254483.34446                  22706111.0334
        21.2504         20.5004
  21418327.1894    -446303.46748   -339662.77147                  21418334.0844
        28.5004         27.7504
  24476421.3694   -2803055.85245  -2061603.55745                  24476429.3894
        10.2504         10.2504
  24470441.9004   -2694507.53146  -1992885.03445                  24470449.8264
        12.2504         10.0004
 02  7  1 15 28 30.0020000  0  8G 6G10G15G17G30G23G18G29
  20988912.3464      22639.98948     52246.29347                  20988918.8964
        28.2504         25.7504
  22545155.4944    6331369.06647   4933531.87146                  22545162.9514
        24.7504         23.0004
  22991715.2214   -3656130.25646  -2826997.49846                  22991722.8654
        17.7504         17.0004
  22262831.9084   -2185960.28747  -1687205.11246                  22262839.1784
        24.0004         24.5004
  22718664.7754    8192532.29147   6305918.55046                  22718672.1274
        20.5004         20.5004
  21420425.3074    -435277.99048   -331071.48347                  21420432.3544
        29.0004         28.0004
  24469654.2524   -2838618.35445  -2089314.53945                  24469663.1044
        10.5004         10.5004
  24467735.8544   -2708724.96646  -2003963.53945                  24467744.0254
        12.5004         10.7504
 02  7  1 15 28 45.0020000  0  9G 5G 6G10G15G17G30G23G18G29
  24979899.5254      39334.47853
         6.0004
  20990926.1194      33223.01648     60492.79846                  20990932.5064
        28.2504         25.5004
  22555749.8304    6387044.09547   4976914.99846                  22555757.3574
        24.2504         22.7504
  22988610.5334   -3672447.36046  -2839712.09546                  22988618.3544
        17.5004         17.0004
  22261660.9004   -2192115.29147  -1692001.20846                  22261668.2754
        22.7504         24.5004
  22731246.0184    8258646.40647   6357436.01346                  22731253.5574
        20.2504         20.2504
  21422555.5644    -424083.49548   -322348.49647                  21422562.5884
        28.7504         28.0004
  24462900.0024   -2874113.07145  -2116972.72245                  24462908.4794
        10.7504         10.7504
  24465049.1744   -2722844.54045  -2014965.76045                  24465056.7134
        11.7504         10.5004
 02  7  1 15 29  0.0020000  0  9G 5G 6G10G15G17G30G23G18G29
  24993943.1114     113127.82043
         6.0004
  20992964.9004      43936.22747     68840.75846                  20992971.2524
        27.7504         25.2504
  22566372.1584    6442863.98347   5020410.99746                  22566379.9324
        23.7504         22.7504
  22985522.6044   -3688672.68446  -2852355.18446                  22985530.4474
        16.5004         17.0004
  22260507.4394   -2198176.11147  -1696723.91846                  22260514.6974
        23.0004         24.2504
  22743847.6584    8324868.93647   6409037.94846                  22743854.9164
        21.0004         20.2504
  21424718.6664    -412716.81948   -313491.34747                  21424725.6784
        28.5004         28.0004
  24456158.7294   -2909536.45945  -2144575.32945                  24456166.6194
        11.0004         11.0004
  24462381.5334   -2736862.99445  -2025889.20845                  24462390.1864
        11.2504         11.0004
 02  7  1 15 29 15.0020000  0  9G 5G 6G10G15G17G30G23G18G29
  25007993.1114     186963.17344
         6.2504
  20995028.7214      54782.37148     77292.29946                  20995035.0614
        28.0004         25.2504
  22577022.5494    6498831.04347   5064021.66946                  22577030.4754
        24.2504         23.0004
  22982453.0024   -3704803.70246  -2864924.78446                  22982460.5184
        16.5004         16.7504
  22259372.6584   -2204140.24047  -1701371.28046                  22259379.7294
        23.0004         24.0004
  22756470.5104    8391202.12747   6460726.13646                  22756477.8504
        21.5004         20.0004
  21426914.8384    -401175.38648   -304498.01447                  21426921.5064
        30.0004         28.0004
  24449432.3384   -2944885.71446  -2172120.13445                  24449441.0844
        12.2504         11.5004
  24459733.3464   -2750777.21545  -2036731.39845                  24459741.8574
        11.0004         11.2504
 02  7  1 15 29 30.0020000  0  9G 5G 6G10G15G17G30G23G18G29
  25022051.5494     260842.42343
         5.7504
  20997118.4394      65763.70347     85849.17446                  20997124.9434
        27.7504         25.0004
  22587701.2054    6554947.14247   5107748.48746                  22587708.8504
        23.7504         23.2504
  22979401.7604   -3720838.12246  -2877419.11946                  22979409.2404
        17.7504         16.5004
  22258256.4244   -2210005.45447  -1705941.56746                  22258263.6354
        23.2504         24.2504
  22769114.6274    8457647.56946   6512501.77246                  22769121.9434
        19.2504         19.7504
  21429144.6894    -389457.09848   -295366.87847                  21429151.0294
        30.0004         28.0004
  24442720.2684   -2980158.34946  -2199605.27145                  24442728.1464
        12.0004         11.5004
  24457106.1584   -2764584.74245  -2047490.46845                  24457114.6704
        11.5004         10.7504
 02  7  1 15 29 45.0020000  0  9G 5G 6G10G15G17G30G23G18G29
  25036117.4864     334756.18943     38395.42655                  25036126.4204
         5.7504          7.7504
  20999232.1824      76871.37048     94504.50246                  20999238.7094
        28.0004         25.0004
  22598406.2994    6611202.78147   5151584.03646                  22598414.1544
        24.2504         23.2504
  22976367.0644   -3736785.06846  -2889845.27946                  22976374.7444
        18.5004         16.7504
  22257157.2214   -2215780.83147  -1710441.84446                  22257164.5844
        22.7504         24.2504
  22781778.2364    8524195.92846   6564357.60746                  22781786.1394
        17.7504         19.2504
  21431406.5024    -377571.02648   -286105.00047                  21431413.0184
        30.0004         28.2504
  24436020.6824   -3015363.25446  -2227037.60945                  24436028.4794
        12.2504         11.0004
  24454497.2214   -2778294.22745  -2058173.14245                  24454506.0024
        11.2504         11.0004
 02  7  1 15 30  0.0020000  0  9G 5G 6G10G15G17G30G23G18G29
  25050190.5414     408715.86743     96026.29545                  25050200.1544
         5.0004          7.0004
  21001372.3144      88117.27848    103267.54346                  21001378.8074
        28.2504         25.5004
  22609140.0494    6667609.33247   5195537.17346                  22609148.1624
        23.7504         23.2504
  22973351.6354   -3752632.71246  -2902194.06746                  22973359.7954
        17.7504         17.2504
  22256077.5494   -2221454.67447  -1714863.00846                  22256084.9594
        23.0004         24.2504
  22794463.6434    8590858.62146   6616302.52546                  22794471.5104
        18.7504         18.7504
  21433702.6434    -365505.39748   -276703.21347                  21433709.3224
        30.0004         28.2504
  24429336.8854   -3050488.29345  -2254407.74345                  24429344.4124
        11.7504         11.0004
  24451909.2684   -2791893.74345  -2068770.10545                  24451919.3614
        11.0004         11.0004
 02  7  1 15 30 15.0020000  0  9G 5G 6G10G15G17G30G23G18G29
  25064273.4714     482718.62542    153690.71145                  25064280.5644
         4.5004          6.2504
  21003537.8544      99499.01248    112136.42346                  21003544.5924
        28.7504         25.5004
  22619901.8694    6724163.89347   5239605.63446                  22619909.7014
        23.7504         22.5004
  22970354.2754   -3768383.65646  -2914467.51346                  22970363.0924
        18.0004         17.5004
  22255016.7444   -2227029.47347  -1719206.99646                  22255024.3774
        23.2504         24.5004
  22807170.2524    8657632.69846   6668334.24246                  22807178.1314
        18.7504         19.0004
  21436032.2604    -353262.77948   -267163.50447                  21436038.9284
        30.2504         28.2504
  24422667.3144   -3085535.82746  -2281717.45245                  24422674.3964
        12.0004         11.2504
  24449342.0024   -2805385.35245  -2079283.00945                  24449351.4514
        11.7504         10.7504
 02  7  1 15 30 30.0020000  0  9G 5G 6G10G15G17G30G23G18G29
  25078362.7134     556757.51342    211383.30745                  25078371.3184
         4.5004          5.7504
  21005728.5724     111010.18248    121106.16246                  21005735.2874
        29.0004         25.5004
  22630690.8074    6780859.61247   5283784.10446                  22630698.4514
        23.7504         22.7504
  22967374.1974   -3784044.37246  -2926670.64646                  22967382.0534
        17.2504         17.2504
  22253973.5574   -2232511.93847  -1723479.03046                  22253981.1314
        23.5004         24.7504
  22819897.2294    8724511.21246   6720447.33246                  22819904.8034
        18.2504         18.5004
  21438394.3224    -340849.69448   -257490.97247                  21438401.0024
        30.2504         28.2504
  24416011.5884   -3120512.11745  -2308971.68945                  24416018.9984
        11.5004         10.5004
  24446794.2604   -2818775.26345  -2089716.67645                  24446803.3814
        11.5004         11.0004
 02  7  1 15 30 45.0020000  0  9G 5G 6G10G15G17G30G23G18G29
  25092459.5104     630833.60743    269104.82245                  25092469.2054
         5.2504          6.5004
  21007944.1504     122652.40348    130178.02347                  21007950.7954
        28.0004         25.7504
  22641506.6194    6837697.48647   5328073.34446                  22641514.1934
        24.0004         22.0004
  22964411.1354   -3799613.45746  -2938802.37246                  22964419.2364
        16.2504         17.2504
  22252948.1354   -2237900.63047  -1727677.99946                  22252955.5334
        23.0004         24.7504
  22832643.7444    8791495.21646   6772642.63946                  22832651.2834
        19.2504         18.5004
  21440789.0804    -328264.83048   -247684.58247                  21440795.8304
        29.5004         28.0004
  24409369.7914   -3155415.50145  -2336169.06645                  24409377.2834
        11.5004         11.0004
  24444265.5024   -2832061.72545  -2100069.76445                  24444274.1194
        11.7504         11.0004
 02  7  1 15 31  0.0020000  0  9G 5G 6G10G15G17G30G23G18G29
  25106565.0414     704958.57043    326864.52945                  25106573.7754
         5.0004          5.7504
  21010186.7524     134437.83348    139361.47747                  21010193.3144
        28.5004         25.7504
  22652351.5724    6894689.24247   5372482.49346                  22652359.3934
        23.7504         22.2504
  22961468.1974   -3815078.86646  -2950853.30546                  22961476.5924
        16.5004         17.5004
  22251942.8774   -2243183.52047  -1731794.52846                  22251950.0764
        24.5004         24.7504
  22845412.8464    8858596.30746   6824929.17146                  22845420.0214
        19.7504         18.2504
  21443218.9944    -315496.17948   -237734.97847                  21443225.6744
        29.7504         28.0004
  24402744.3144   -3190233.52245  -2363299.97545                  24402751.2684
        11.5004         11.0004
  24441759.4394   -2845232.44946  -2110332.61545                  24441767.2014
        12.2504         11.2504
 02  7  1 15 31 15.0020000  0  9G 5G 6G10G15G17G30G23G18G29
  25120675.4244     779112.74643    384646.89745                  25120682.3424
         5.0004          5.7504
  21012452.9084     146347.24148    148641.53747                  21012459.4714
        28.2504         25.7504
  22663222.4324    6951815.20147   5416996.20746                  22663230.3344
        23.5004         21.7504
  22958541.1584   -3830459.95346  -2962838.54046                  22958548.9434
        18.5004         17.5004
  22250953.9714   -2248380.07647  -1735843.77746                  22250961.3694
        23.7504         25.2504
  22858200.2054    8925794.82147   6877291.62546                  22858207.3114
        20.0004         18.5004
  21445680.0964    -302563.12248   -227657.26747                  21445686.5184
        30.2504         27.7504
  24396131.0334   -3224985.52145  -2390379.40045                  24396138.3384
        11.5004         11.0004
  24439271.3854   -2858306.41145  -2120520.07045                  24439280.7294
        11.2504         11.0004
 02  7  1 15 31 30.0020000  0  9G 5G 6G10G15G17G30G23G18G29
  25134793.6274     853301.19843    442456.06845                  25134802.4084
         5.0004          5.7504
  21014744.1434     158386.19148    158022.53547                  21014750.7174
        29.5004         25.7504
  22674119.5184    7009080.28747   5461618.34046                  22674127.8654
        22.7504         22.2504
  22955631.4554   -3845751.30846  -2974753.85446                  22955639.6274
        18.7504         17.5004
  22249982.4004   -2253484.82747  -1739821.49546                  22249990.1274
        23.2504         25.0004
  22871007.3304    8993095.79147   6929733.91146                  22871013.9284
        20.5004         18.2504
  21448173.4554    -289460.29548   -217447.26647                  21448179.5844
        30.5004         28.0004
  24389531.2524   -3259665.80245  -2417402.93945                  24389539.7754
        11.2504         11.0004
  24436802.6044   -2871277.88045  -2130627.66445                  24436812.0184
        11.2504         10.2504
 02  7  1 15 31 45.0020000  0  9G 5G 6G10G15G17G30G23G18G29
  25148917.8224     927529.87842    500296.51045                  25148927.1894
         4.7504          5.2504
  21017060.7994     170561.13348    167509.50146                  21017067.4324
        29.2504         25.5004
  22685044.6354    7066490.52447   5506353.56746                  22685052.8304
        23.7504         22.7504
  22952739.6584   -3860946.66746  -2986594.36346                  22952747.9474
        18.2504         18.0004
  22249029.5414   -2258491.59347  -1743722.84446                  22249037.2564
        23.2504         25.2504
  22883834.8144    9060504.99447   6982260.53846                  22883841.4364
        21.2504         18.5004
  21450700.3774    -276181.42748   -207100.09947                  21450706.8814
        29.7504         28.0004
  24382946.6044   -3294267.67645  -2444365.40045                  24382954.9164
        11.2504         10.5004
  24434354.9084   -2884140.21145  -2140650.24445                  24434362.0724
        11.7504         10.7504
 02  7  1 15 32  0.0020000  0  9G 5G 6G10G15G17G30G23G18G29
  25163049.5334    1001791.62642    558162.78344                  25163062.0764
         4.7504          4.2504
  21019401.9794     182865.37548    177097.21746                  21019408.4364
        28.5004         25.2504
  22695995.8074    7124038.76347   5551196.33846                  22696003.6154
        24.2504         22.7504
  22949865.3144   -3876052.82146  -2998365.36246                  22949873.7684
        17.7504         17.7504
  22248094.5024   -2263407.17947  -1747553.16546                  22248102.1584
        23.0004         25.0004
  22896681.7294    9128015.35147   7034865.98646                  22896688.5884
        21.2504         18.5004
  21453259.2214    -262733.27848   -196621.01747                  21453266.1044
        29.7504         28.0004
  24376376.0644   -3328797.72045  -2471271.87745                  24376384.3304
        11.0004         10.0004
  24431926.9084   -2896899.95945  -2150592.87245                  24431935.6314
        11.7504         11.0004
 02  7  1 15 32 15.0020000  0  9G 5G 6G10G15G17G30G23G18G29
  25177189.2994    1076091.45542    616058.68445                  25177197.7294
         4.7504          5.2504
  21021769.2444     195304.41548    186789.96646                  21021775.4794
        28.5004         25.5004
  22706974.1114    7181730.08247   5596150.59546                  22706981.8384
        24.2504         23.0004
  22947008.5804   -3891064.29846  -3010062.58546                  22947016.9984
        17.5004         18.0004
  22247177.0254   -2268226.24047  -1751308.26046                  22247184.5294
        23.0004         24.7504
  22909549.0574    9195631.80947   7087554.09546                  22909556.0214
        21.2504         19.0004
  21455851.4794    -249110.56148   -186005.91147                  21455858.2294
        29.5004         28.0004
  24369819.9004   -3363250.39645  -2498118.07945                  24369828.3424
        11.2504         11.0004
  24429520.0254   -2909551.27646  -2160451.00145                  24429528.7954
        12.2504         11.0004
 02  7  1 15 32 30.0020000  0  9G 5G 6G10G15G17G30G23G18G29
  25191334.1194    1150426.10042    673981.69345                  25191345.5844
         4.5004          5.2504
  21024161.4554     207875.47348    196585.59146                  21024167.7364
        28.2504         25.2504
  22717978.8304    7239561.03247   5641213.65346                  22717986.4394
        24.2504         22.7504
  22944169.7134   -3905984.09846  -3021688.38646                  22944177.8854
        18.5004         18.0004
  22246277.9634   -2272951.75947  -1754990.47546                  22246285.4084
        22.2504         24.7504
  22922435.4004    9263351.04547   7140322.30546                  22922442.2444
        21.0004         19.2504
  21458476.6194    -235316.27248   -175257.11347                  21458483.0184
        29.5004         27.7504
  24363278.1274   -3397628.25145  -2524905.97245                  24363285.6434
        11.7504         11.0004
  24427132.4944   -2922096.88446  -2170226.75745                  24427140.3144
        13.0004         10.7504
 02  7  1 15 32 45.0020000  0  9G 5G 6G10G15G17G30G23G18G29
  25205486.5494    1224794.48442    731931.15644                  25205495.7294
         4.2504          4.2504
  21026578.6354     220577.85648    206483.55646                  21026584.9634
        28.0004         25.5004
  22729010.0334    7297530.43147   5686384.60046                  22729017.8304
        23.5004         22.2504
  22941347.8144   -3920813.04946  -3033243.38746                  22941356.1974
        18.7504         18.2504
  22245396.1974   -2277584.68247  -1758600.53246                  22245403.9944
        22.0004         25.0004
  22935341.1434    9331171.90147   7193169.69846                  22935348.1664
        20.0004         18.7504
  21461133.9714    -221351.27548   -164375.29447                  21461140.4044
        30.0004         28.0004
  24356750.2294   -3431931.90546  -2551636.04145                  24356757.0724
        12.7504         11.2504
  24424764.8934   -2934537.24746  -2179920.51645                  24424772.6194
        13.5004         10.7504
 02  7  1 15 33  0.0020000  0  9G 5G 6G10G15G17G30G23G18G29
  25219643.4394    1299196.19442    789906.37545                  25219657.4714
         3.7504          4.5004
  21029020.7684     233411.72347    216483.97446                  21029027.0724
        27.7504         25.2504
  22740067.4554    7355637.94647   5731663.15846                  22740074.8774
        23.2504         22.2504
  22938543.3304   -3935551.14846  -3044727.59946                  22938551.6894
        18.0004         18.0004
  22244532.2364   -2282124.83247  -1762138.30346                  22244540.2684
        21.7504         24.7504
  22948266.4324    9399093.82246   7246095.84546                  22948273.5964
        19.5004         19.0004
  21463823.8304    -207215.55048   -153360.43447                  21463830.4634
        29.7504         28.0004
  24350236.6664   -3466161.02646  -2578308.04545                  24350244.2754
        13.2504         11.5004
  24422417.7914   -2946871.98346  -2189532.00145                  24422424.9554
        14.5004         11.2504
 02  7  1 15 33 15.0020000  0  9G 5G 6G10G15G17G30G23G18G29
  25233810.5964    1373634.41742    847910.03745                  25233822.9514
         4.0004          5.2504
  21031488.7134     246380.63948    226589.62046                  21031494.9824
        28.2504         25.5004
  22751152.0184    7413886.66747   5777051.73346                  22751159.4394
        24.2504         22.0004
  22935756.5414   -3950194.91946  -3056138.31546                  22935764.7714
        19.0004         18.2504
  22243686.6194   -2286569.01047  -1765601.28246                  22243694.2644
        22.2504         24.7504
  22961210.7914    9467119.99246   7299103.22246                  22961218.0724
        18.7504         18.5004
  21466546.9794    -192905.76748   -142209.95447                  21466553.9324
        29.5004         28.0004
  24343737.9864   -3500312.01746  -2604919.20045                  24343744.0684
        13.5004         11.2504
  24420091.4004   -2959097.40346  -2199058.25945                  24420099.0104
        13.0004         11.5004
 02  7  1 15 33 30.0020000  0  9G 5G 6G10G15G17G30G23G18G29
  25247982.6114    1448114.63842    905946.61345                  25247995.8344
         3.7504          4.5004
  21033983.4244     259490.61348    236805.18646                  21033989.8694
        28.2504         25.5004
  22762264.3854    7472282.18147   5822554.72246                  22762271.6194
        24.0004         21.7504
  22932988.8304   -3964738.44146  -3067470.90746                  22932997.5414
        18.2504         18.0004
  22242860.4244   -2290911.27947  -1768984.84746                  22242867.9984
        22.7504         24.5004
  22974177.2054    9535255.97946   7352196.16746                  22974184.5924
        19.2504         18.5004
  21469304.3774    -178416.10648   -130919.30647                  21469311.4594
        29.0004         28.2504
  24337255.1584   -3534378.64246  -2631464.56545                  24337261.4394
        13.2504         11.7504
  24417787.3144   -2971207.16946  -2208494.41145                  24417794.7834
        12.7504         11.5004
 02  7  1 15 33 45.0020000  0  9G 5G 6G10G15G17G30G23G18G29
  25262161.0024    1522627.85841    964008.67545                  25262171.8224
         3.2504          4.5004
  21036503.5184     272733.14048    247124.03846                  21036510.0684
        28.7504         25.5004
  22773402.8224    7530815.46547   5868165.06946                  22773410.1864
        22.5004         21.7504
  22930238.8304   -3979190.43346  -3078732.18746                  22930247.5184
        18.0004         18.5004
  22242051.9164   -2295160.32547  -1772295.78946                  22242059.6314
        21.7504         24.7504
  22987161.8544    9603492.66946   7405367.58346                  22987169.5104
        19.7504         19.0004
  21472094.2604    -163755.29148   -119495.28647                  21472101.4474
        28.7504         28.2504
  24330787.1114   -3568369.33046  -2657950.78345                  24330794.3934
        13.0004         11.5004
  24415502.7444   -2983209.77346  -2217847.06045                  24415511.0454
        13.5004         11.5004
 02  7  1 15 34  0.0020000  0  9G 5G 6G10G15G17G30G23G18G29
  25276347.7914    1597174.76542   1022097.18245                  25276363.4394
         3.7504          4.7504
  21039048.6744     286109.46548    257547.15346                  21039055.3894
        28.2504         25.5004
  22784567.7214    7589487.25147   5913883.31846                  22784575.1544
        22.0004         21.5004
  22927506.4164   -3993549.68946  -3089921.19346                  22927514.3654
        18.7504         18.2504
  22241261.0254   -2299315.03647  -1775533.21246                  22241268.8814
        22.0004         24.5004
  23000166.1274    9671830.69646   7458617.97346                  23000174.1234
        19.2504         19.2504
  21474916.7684    -148922.23548   -107937.06247                  21474923.8964
        28.7504         28.2504
  24324333.5254   -3602282.74346  -2684376.78245                  24324340.0184
        12.5004         11.0004
  24413239.5724   -2995103.66146  -2227114.98945                  24413248.8464
        14.0004         11.7504
 02  7  1 15 34 15.0020000  0  9G 5G 6G10G15G17G30G23G18G29
  25290540.9634    1671755.92542   1080212.25745                  25290551.6894
         3.7504          5.5004
  21041619.8464     299620.50448    268075.22746                  21041626.5964
        28.5004         25.5004
  22795758.9324    7648297.89747   5959709.77846                  22795766.7054
        22.2504         21.5004
  22924791.5184   -4007815.51746  -3101037.40646                  22924799.5964
        18.7504         18.7504
  22240488.5804   -2303374.82747  -1778696.67946                  22240496.0144
        22.7504         24.5004
  23013190.3144    9740270.54346   7511947.68446                  23013198.1584
        19.7504         20.0004
  21477772.3854    -133916.21948    -96244.05847                  21477779.4084
        28.7504         28.0004
  24317894.8464   -3636117.83046  -2710741.75645                  24317901.2684
        12.0004         11.7504
  24410997.0024   -3006887.80446  -2236297.41045                  24411005.2214
        12.7504         11.5004
 02  7  1 15 34 30.0020000  0  9G 5G 6G10G15G17G30G23G18G29
  25304738.9554    1746369.25642   1138352.54745                  25304751.5454
         3.7504          4.5004
  21044216.4554     313264.66947    278707.04746                  21044223.0414
        27.7504         25.2504
  22806976.0104    7707245.18547   6005642.70946                  22806983.9944
        22.2504         21.2504
  22922094.6114   -4021989.58946  -3112082.12246                  22922102.3034
        19.2504         18.5004
  22239733.7054   -2307341.31647  -1781787.43546                  22239740.8224
        22.7504         24.5004
  23026232.6434    9808810.06547   7565355.06346                  23026240.8034
        20.2504         20.2504
  21480660.5184    -118739.02048    -84417.66647                  21480667.1864
        29.0004         27.7504
  24311470.7294   -3669875.93845  -2737046.70545                  24311477.3144
        11.5004         11.0004
  24408774.9714   -3018563.54146  -2245395.37545                  24408783.8344
        12.5004         11.2504
 02  7  1 15 34 45.0020000  0  9G 5G 6G10G15G17G30G23G18G29
  25318942.3854    1821008.87342   1196513.16345                  25318950.8614
         3.7504          5.7504
  21046837.0804     327036.65748    289438.45646                  21046843.4674
        28.5004         25.2504
  22818218.2214    7766323.42747   6051677.69846                  22818226.1234
        21.2504         21.0004
  22919413.6194   -4036077.33546  -3123059.57846                  22919421.7444
        19.5004         18.2504
  22238995.7444   -2311220.07147  -1784809.83646                  22239003.1664
        22.2504         24.5004
  23039293.2834    9877443.39946   7618835.54946                  23039301.2094
        19.5004         20.2504
  21483580.0804    -103396.13948    -72462.17547                  21483587.2094
        29.0004         28.0004
  24305060.7294   -3703562.52845  -2763295.97645                  24305068.4674
        11.7504         11.0004
  24406572.7604   -3030136.06346  -2254412.88045                  24406581.4364
        12.5004         11.5004
 02  7  1 15 35  0.0020000  0  9G 5G 6G10G15G17G30G23G18G29
  25333152.2684    1895681.50742   1254699.57445                  25333164.4124
         3.7504          5.2504
  21049483.3694     340943.50948    300274.97246                  21049489.5454
        29.0004         25.0004
  22829486.5574    7825539.17247   6097819.82246                  22829494.6234
        21.7504         20.7504
  22916750.2524   -4050071.89946  -3133964.38646                  22916758.1894
        18.7504         18.0004
  22238275.3544   -2315004.20747  -1787758.49546                  22238283.0574
        22.5004         24.5004
  23052372.5574    9946177.06946   7672394.22446                  23052380.7644
        18.7504         20.0004
  21486532.6744     -87880.76248    -60372.26147                  21486540.0254
        29.0004         28.0004
  24298665.1824   -3737170.29246  -2789483.80745                  24298672.0534
        12.7504         11.2504
  24404391.4944   -3041598.14946  -2263344.34945                  24404398.9044
        12.2504         11.0004
 02  7  1 15 35 15.0020000  0  9G 5G 6G10G15G17G30G23G18G29
  25347368.7364    1970392.19342   1312915.63545                  25347379.8264
         4.0004          4.5004
  21052156.6434     354990.81048    311220.92446                  21052162.9004
        28.7504         25.2504
  22840782.1894    7884897.54547   6144073.07846                  22840790.1394
        22.2504         20.7504
  22914106.0104   -4063967.80746  -3144792.34846                  22914113.8304
        17.7504         17.7504
  22237574.3694   -2318688.20047  -1790629.12246                  22237582.2014
        23.0004         25.0004
  23065472.3694   10015016.14846   7726035.03646                  23065480.5184
        18.2504         19.0004
  21489519.1044     -72187.44448    -48143.69747                  21489526.4554
        29.2504         28.0004
  24292285.6894   -3770693.51246  -2815605.75345                  24292293.3224
        13.0004         11.0004
  24402232.7444   -3052943.94546  -2272185.19445                  24402240.4944
        12.5004         11.5004
 02  7  1 15 35 30.0020000  0  8G 6G10G15G17G30G23G18G29
  21054854.9084     369170.53548    322270.05546                  21054861.0374
        29.5004         25.2504
  22852103.1824    7944389.97847   6190430.79946                  22852110.7444
        22.2504         20.7504
  22911478.9004   -4077773.19446  -3155549.77346                  22911486.8144
        17.0004         17.7504
  22236891.1274   -2322280.28647  -1793428.14646                  22236898.3854
        23.7504         24.7504
  23078590.6824   10083952.17046   7779751.37946                  23078599.0294
        19.2504         19.0004
  21492537.5254     -56324.37048    -35782.85647                  21492544.5614
        30.0004         28.2504
  24285920.9244   -3804140.05846  -2841667.96845                  24285928.6394
        12.7504         11.5004
  24400094.6504   -3064181.24746  -2280941.52045                  24400102.6704
        12.0004         11.0004
 02  7  1 15 35 45.0020000  0  8G 6G10G15G17G30G23G18G29
  21057578.5104     383483.62648    333423.11646                  21057584.6974
        29.0004         25.2504
  22863449.7684    8004016.96547   6236893.37646                  22863457.7054
        21.5004         21.0004
  22908869.4324   -4091487.23946  -3166236.04346                  22908877.2524
        17.0004         17.5004
  22236225.0964   -2325779.77247  -1796155.01746                  22236232.4364
        23.2504         24.7504
  23091727.2834   10152985.40346   7833543.46546                  23091735.1044
        19.7504         19.2504
  21495588.6434     -40290.83648    -23289.19647                  21495595.6434
        29.7504         28.2504
  24279571.2444   -3837508.83646  -2867669.57245                  24279578.1744
        12.5004         11.0004
  24397976.4394   -3075309.07245  -2289612.50745                  24397983.7914
        10.7504         11.0004
 02  7  1 15 36  0.0020000  0  9G22G 6G10G15G17G30G23G18G29
  24743440.1504      -3962.34255
         9.0004
  21060327.1584     397928.49848    344678.86946                  21060333.3814
        29.2504         25.5004
  22874821.6354    8063776.23247   6283459.02946                  22874829.7364
        21.2504         21.2504
  22906276.3614   -4105111.74146  -3176852.50346                  22906284.3934
        17.2504         17.5004
  22235576.3774   -2329188.45747  -1798811.12246                  22235583.4244
        22.7504         24.5004
  23104881.9324   10222113.74046   7887409.67646                  23104889.4004
        19.5004         19.0004
  21498671.8384     -24088.62648    -10664.08847                  21498678.7444
        29.2504         28.2504
  24273235.6044   -3870801.39646  -2893611.79645                  24273242.6504
        13.0004         11.0004
  24395879.2134   -3086328.75545  -2298199.24045                  24395886.5294
        10.7504         10.5004
 02  7  1 15 36 15.0020000  0  9G22G 6G10G15G17G30G23G18G29
  24740630.8774     -18730.71545
         9.5004
  21063101.6824     412508.01748    356039.52946                  21063107.8464
        28.5004         25.5004
  22886219.1974    8123670.21847   6330129.64446                  22886227.9904
        21.0004         21.2504
  22903701.0644   -4118643.88446  -3187397.00946                  22903709.2014
        16.5004         17.5004
  22234945.4634   -2332503.50747  -1801394.26546                  22234952.3224
        23.5004         24.2504
  23118055.1354   10291339.67946   7941351.93646                  23118063.1314
        19.5004         18.7504
  21501787.8694      -7715.01648      2094.56447                  21501794.5494
        30.0004         28.0004
  24266915.2754   -3904014.76846  -2919492.33945                  24266921.6974
        13.2504         11.0004
  24393803.9244   -3097237.18545  -2306699.30045                  24393812.2834
        11.2504         10.7504
 02  7  1 15 36 30.0020000  0  9G22G 6G10G15G17G30G23G18G29
  24737848.1824     -33352.57345
        10.5004
  21065901.9164     427223.96648    367506.50146                  21065908.3734
        28.7504         25.5004
  22897642.4004    8183700.35747   6376906.35346                  22897651.1824
        22.0004         21.2504
  22901143.8224   -4132082.05246  -3197868.28746                  22901152.7094
        16.5004         17.7504
  22234332.8694   -2335723.45347  -1803903.30646                  22234339.5724
        23.2504         24.2504
  23131247.3384   10360664.33246   7995371.10946                  23131254.7954
        19.5004         19.0004
  21504936.4394       8831.50948     14987.96247                  21504943.0374
        30.5004         28.0004
  24260609.9864   -3937146.95346  -2945309.55745                  24260616.9984
        13.0004         11.5004
  24391749.3694   -3108032.36645  -2315111.13245                  24391757.0024
        11.7504         11.5004
 02  7  1 15 36 45.0020000  0  9G22G 6G10G15G17G30G23G18G29
  24735093.2214     -47831.84745
         9.2504
  21068727.6354     442072.28248    379076.61947                  21068734.1974
        28.7504         25.7504
  22909090.6824    8243861.97047   6423785.51946                  22909099.1114
        22.2504         21.7504
  22898603.5724   -4145430.44546  -3208269.59446                  22898612.6114
        16.5004         17.7504
  22233737.1584   -2338852.34947  -1806341.41346                  22233744.1584
        23.2504         24.0004
  23144457.3074   10430083.26046   8049463.75246                  23144464.5184
        19.5004         19.0004
  21508117.3144      25546.68248     28012.77747                  21508123.8074
        30.0004         28.0004
  24254320.2054   -3970201.90746  -2971066.60945                  24254326.9674
        13.7504         11.5004
  24389716.1504   -3118718.32246  -2323437.80245                  24389725.0024
        12.5004         11.7504
 02  7  1 15 37  0.0020000  0  9G22G 6G10G15G17G30G23G18G29
  24732363.7754     -62170.50645     -5200.18355                  24732373.0144
         8.5004          8.0004
  21071577.9634     457050.96648    390748.31447                  21071584.3144
        29.5004         25.7504
  22920563.9244    8304152.58847   6470765.20046                  22920572.2954
        21.7504         21.2504
  22896080.2834   -4158691.21646  -3218602.64846                  22896088.6784
        17.0004         17.2504
  22233158.7994   -2341892.55147  -1808710.39046                  22233165.8574
        22.7504         24.0004
  23157684.5884   10499593.73846   8103627.73346                  23157692.0334
        19.5004         18.7504
  21511329.5574      42428.36948     41167.34147                  21511336.0964
        30.7504         28.0004
  24248044.5574   -4003181.48246  -2996764.96445                  24248050.8384
        14.0004         11.7504
  24387702.9714   -3129296.75646  -2331680.70445                  24387713.0764
        12.0004         11.7504
 02  7  1 15 37 15.0020000  0  9G22G 6G10G15G17G30G23G18G29
  24729664.4474     -76358.61045    -16255.82845                  24729673.4984
         8.5004          9.0004
  21074455.0414     472169.68948    402529.13546                  21074460.9714
        30.0004         25.5004
  22932063.2134    8364581.40147   6517852.57646                  22932071.5374
        21.2504         20.7504
  22893575.6194   -4171854.71246  -3228859.88946                  22893583.8144
        16.7504         18.2504
  22232599.1114   -2344834.40747  -1811002.71346                  22232606.4284
        22.7504         24.2504
  23170931.2834   10569205.02046   8157870.25146                  23170937.9984
        19.7504         18.5004
  21514575.6824      59486.04148     54459.04147                  21514582.3034
        29.5004         28.2504
  24241785.0724   -4036076.04946  -3022397.05546                  24241791.5764
        13.7504         12.2504
  24385712.7604   -3139757.76446  -2339832.14246                  24385722.7604
        12.5004         12.7504
 02  7  1 15 37 30.0020000  0  9G22G 6G10G15G17G30G23G18G29
  24726992.8694     -90399.62445    -27196.88545                  24727002.7524
         9.2504          9.0004
  21077358.1114     487424.92448    414416.33046                  21077364.1824
        29.2504         25.5004
  22943588.3074    8425144.27347   6565044.39846                  22943595.9164
        21.5004         20.7504
  22891088.3774   -4184924.71246  -3239044.29246                  22891096.9004
        17.5004         18.2504
  22232057.0254   -2347681.77647  -1813221.43546                  22232064.4124
        23.0004         24.2504
  23184196.5574   10638913.02647   8212188.15646                  23184203.3074
        20.5004         19.0004
  21517854.5494      76715.95248     67884.94647                  21517861.2874
        29.7504         28.0004
  24235540.4474   -4068888.95146  -3047965.51946                  24235547.6234
        13.5004         12.2504
  24383743.6894   -3150104.83446  -2347894.75345                  24383752.9754
        12.5004         11.7504
 02  7  1 15 37 45.0020000  0  9G22G 6G10G15G17G30G23G18G29
  24724347.7444    -104297.18045    -38026.12845                  24724357.3114
         9.5004          9.2504
  21080286.2914     502812.98048    426407.02146                  21080292.2324
        28.5004         25.2504
  22955137.3074    8485837.11747   6612337.51146                  22955144.6704
        22.5004         21.0004
  22888618.4794   -4197904.91346  -3249158.71446                  22888626.7794
        18.5004         18.7504
  22231532.3464   -2350438.31947  -1815369.37746                  22231539.8964
        23.0004         24.2504
  23197479.4164   10708713.53147   8266578.12046                  23197485.9794
        20.7504         18.7504
  21521165.1504      94114.25148     81442.06547                  21521171.8184
        30.2504         27.7504
  24229311.1894   -4101623.55346  -3073472.96045                  24229318.4364
        13.2504         11.7504
  24381795.3694   -3160341.36746  -2355871.25145                  24381803.5884
        12.7504         11.7504
 02  7  1 15 38  0.0020000  0  9G22G 6G10G15G17G30G23G18G29
  24721730.7444    -118047.30745    -48740.48445                  24721741.2604
         8.7504          9.2504
  21083240.2754     518337.69448    438504.19246                  21083246.3934
        28.5004         25.2504
  22966712.3304    8546663.30147   6659734.52646                  22966720.1974
        22.0004         21.0004
  22886166.3224   -4210791.59546  -3259200.26746                  22886174.0254
        19.5004         18.7504
  22231025.8544   -2353100.46447  -1817443.77246                  22231033.4044
        23.0004         24.0004
  23210780.2444   10778610.04347   8321042.90246                  23210786.9474
        21.0004         19.2504
  21524508.6504     111684.56548     95133.22547                  21524515.1894
        30.2504         28.0004
  24223097.5104   -4134276.02746  -3098916.41145                  24223105.0844
        13.0004         11.2504
  24379869.2054   -3170463.36146  -2363758.51945                  24379878.9004
        12.5004         11.7504
 02  7  1 15 38 15.0020000  0  9G22G 6G10G15G17G30G23G18G29
  24719141.9394    -131653.45945    -59342.62145                  24719150.9204
         9.0004          9.5004
  21086219.8464     533995.47948    450705.07446                  21086226.0104
        28.5004         25.0004
  22978311.7834    8607618.68847   6707232.21146                  22978319.7444
        22.0004         21.0004
  22883730.9714   -4223588.60746  -3269171.94146                  22883738.7794
        19.7504         19.2504
  22230536.6354   -2355671.95447  -1819447.51746                  22230543.8814
        23.0004         24.2504
  23224098.4324   10848598.26047   8375579.14646                  23224105.0764
        20.2504         19.0004
  21527884.2754     129423.09748    108955.46447                  21527890.8384
        30.7504         28.2504
  24216899.0104   -4166849.76646  -3124298.52346                  24216906.3264
        13.5004         12.0004
  24377964.5494   -3180474.05445  -2371559.03145                  24377973.8934
        11.5004         11.5004
 02  7  1 15 38 30.0020000  0  9G22G 6G10G15G17G30G23G18G29
  24716580.9794    -145108.12845    -69826.74145                  24716590.7324
         8.7504          9.2504
  21089226.3224     549793.73848    463015.40846                  21089232.3114
        28.5004         25.0004
  22989937.3694    8668710.16447   6754835.93746                  22989945.3774
        23.0004         21.2504
  22881314.4474   -4236288.64547  -3279068.04946                  22881322.5254
        20.0004         19.2504
  22230065.8384   -2358145.63047  -1821375.04546                  22230073.1664
        22.0004         24.2504
  23237435.6894   10918685.09747   8430192.23246                  23237442.3934
        20.2504         18.5004
  21531292.9944     147337.02748    122914.37547                  21531299.6394
        30.0004         28.2504
  24210717.1044   -4199337.29946  -3149613.44946                  24210724.5724
        13.2504         12.2504
  24376081.8854   -3190366.02345  -2379267.04246                  24376090.6784
        11.5004         12.0004
 02  7  1 15 38 45.0020000  0  9G22G 6G10G15G17G30G23G18G29
  24714048.2214    -158418.97945    -80198.81145                  24714057.8574
         8.2504          9.0004
  21092257.7054     565724.63748    475429.09946                  21092263.7994
        28.7504         25.0004
  23001586.9634    8729929.38147   6802539.20046                  23001594.8074
        22.0004         21.2504
  22878914.3934   -4248899.58346  -3288894.74346                  22878922.7874
        19.7504         19.7504
  22229612.2914   -2360529.38647  -1823232.51246                  22229619.4204
        23.2504         24.2504
  23250790.0254   10988862.25647   8484875.70146                  23250796.9794
        20.0004         18.5004
  21534733.9554     165418.39948    137003.75547                  21534740.6234
        29.7504         28.2504
  24204549.1354   -4231746.36746  -3174867.24045                  24204555.9794
        12.7504         11.7504
  24374220.3464   -3200146.88045  -2386888.46245                  24374228.3424
        11.5004         11.5004
 02  7  1 15 39  0.0020000  0  9G22G 6G10G15G17G30G23G18G29
  24711543.7834    -171580.91545    -90454.88645                  24711552.8574
         8.0004          8.7504
  21095315.6194     581793.24948    487950.10346                  21095321.7254
        28.7504         25.2504
  23013261.4634    8791280.80947   6850345.49646                  23013268.8854
        22.2504         20.7504
  22876532.6434   -4261416.58847  -3298648.22246                  22876541.1074
        20.2504         20.0004
  22229176.8144   -2362818.44947  -1825016.18246                  22229184.0024
        23.0004         24.5004
  23264162.2364   11059134.23946   8539633.07346                  23264169.1664
        19.7504         18.5004
  21538207.5254     183671.98448    151227.33347                  21538214.3574
        30.0004         28.5004
  24198398.2834   -4264071.68146  -3200055.75646                  24198405.6584
        12.2504         12.0004
  24372381.7684   -3209811.35746  -2394419.19146                  24372391.2874
        12.0004         12.0004
 02  7  1 15 39 15.0020000  0  9G22G 6G10G15G17G30G23G18G29
  24709067.3854    -184596.79144   -100597.11745                  24709078.3574
         7.2504          8.2504
  21098399.0724     597996.62948    500576.11446                  21098405.2364
        29.5004         25.2504
  23024960.9084    8852761.12047   6898252.22446                  23024968.3424
        21.7504         20.2504
  22874167.7834   -4273842.72046  -3308330.90446                  22874176.0144
        19.7504         19.5004
  22228758.5964   -2365015.77047  -1826728.36646                  22228766.1824
        22.2504         24.2504
  23277551.7684   11129497.57846   8594461.61146                  23277558.9434
        18.7504         18.0004
  21541713.1194     202094.65848    165582.67647                  21541720.3654
        30.7504         28.5004
  24192262.4394   -4296316.19246  -3225181.32146                  24192270.5534
        12.5004         12.0004
  24370563.9554   -3219362.18046  -2401861.36745                  24370573.1934
        12.0004         11.7504
 02  7  1 15 39 30.0020000  0  9G22G 6G10G15G17G30G23G18G29
  24706616.9394    -197469.45345   -110627.69745                  24706628.2644
         7.5004          8.7504
  21101507.5104     614331.84848    513304.85546                  21101513.6154
        29.0004         24.7504
  23036684.0494    8914366.89747   6946256.69546                  23036691.8464
        22.0004         20.2504
  22871820.0024   -4286181.03547  -3317945.14946                  22871828.3144
        20.0004         19.5004
  22228357.1894   -2367124.60647  -1828371.60846                  22228364.4594
        22.7504         24.0004
  23290957.8934   11199948.71446   8649358.55246                  23290965.4794
        17.2504         17.2504
  21545250.4474     220683.26948    180067.30747                  21545257.5294
        30.2504         28.5004
  24186141.0104   -4328482.70146  -3250246.08646                  24186148.4554
        12.5004         12.7504
  24368767.3774   -3228802.21245  -2409217.22745                  24368776.2994
        11.2504         11.2504
 02  7  1 15 39 45.0020000  0  9G22G 6G10G15G17G30G23G18G29
  24704194.6354    -210198.06345   -120546.05945                  24704205.4434
         7.5004          8.7504
  21104641.2684     630799.60248    526136.86646                  21104647.3854
        29.5004         25.0004
  23048431.0254    8976098.33547   6994359.09546                  23048439.1154
        21.7504         20.0004
  22869488.6274   -4298430.95046  -3327490.52946                  22869497.2794
        18.0004         19.5004
  22227973.0644   -2369144.31947  -1829945.40446                  22227980.1824
        23.0004         24.0004
  23304381.4554   11270487.93446   8704324.12746                  23304389.0294
        17.5004         17.0004
  21548819.4864     239438.32648    194681.63947                  21548826.2364
        30.5004         28.2504
  24180034.9794   -4360570.24546  -3275249.33946                  24180043.2684
        13.0004         12.7504
  24366992.4084   -3238130.43646  -2416485.92545                  24367001.3304
        12.5004         11.7504
 02  7  1 15 40  0.0020000  0  9G22G 6G10G15G17G30G23G18G29
  24701800.2054    -222781.43545   -130351.24645                  24701811.8934
         8.2504          9.0004
  21107800.2364     647400.92848    539072.97146                  21107806.2484
        29.0004         25.0004
  23060202.4394    9037955.93447   7042559.79846                  23060210.2604
        20.2504         19.7504
  22867174.7444   -4310591.51846  -3336966.27346                  22867183.1394
        18.5004         19.5004
  22227605.6434   -2371074.10747  -1831449.13946                  22227612.8774
        23.2504         24.5004
  23317821.8074   11341115.71546   8759358.72446                  23317829.1354
        18.2504         17.7504
  21552420.2054     258360.67348    209426.32847                  21552426.6864
        30.5004         28.2504
  24173944.2294   -4392577.71546  -3300190.19746                  24173951.6154
        12.7504         13.0004
  24365238.9324   -3247345.63746  -2423666.55545                  24365247.2214
        12.2504         11.2504
 02  7  1 15 40 15.0020000  0  9G22G 6G10G15G17G30G23G18G29
  24699434.4474    -235215.64045   -140040.23345                  24699445.8074
         8.5004          9.0004
  21110985.5724     664139.64848    552116.13346                  21110991.6784
        29.2504         25.0004
  23071997.8934    9099943.11647   7090861.48746                  23072005.8304
        20.2504         19.2504
  22864878.3384   -4322659.08046  -3346369.54946                  22864887.0494
        19.2504         19.5004
  22227256.2054   -2372910.30947  -1832879.93346                  22227263.5104
        24.2504         24.7504
  23331279.2754   11411835.43846   8814464.97846                  23331286.5924
        17.7504         17.5004
  21556053.5104     277453.89248    224304.17247                  21556060.3074
        30.5004         28.2504
  24167869.4164   -4424501.10546  -3325065.54446                  24167877.5414
        12.7504         13.5004
  24363507.1664   -3256443.83345  -2430756.04845                  24363515.9364
        11.7504         11.7504
 02  7  1 15 40 30.0020000  0  9G22G 6G10G15G17G30G23G18G29
  24697096.8224    -247499.07745   -149611.74945                  24697106.7994
         8.0004          8.0004
  21114197.4244     681017.28048    565267.53646                  21114203.5294
        30.0004         25.2504
  23083818.7134    9162060.79346   7139264.84946                  23083826.7794
        19.7504         19.2504
  22862600.1504   -4334632.25246  -3355699.26846                  22862608.9204
        18.5004         19.7504
  22226924.9244   -2374651.51547  -1834236.70446                  22226932.4864
        23.7504         25.0004
  23344754.1974   11482648.02046   8869643.57146                  23344761.5024
        17.5004         17.2504
  21559719.7524     296719.28248    239316.16247                  21559726.5844
        30.5004         28.2504
  24161811.2524   -4456338.92246  -3349874.19446                  24161819.6934
        12.5004         13.2504
  24361798.4004   -3265423.36845  -2437753.04146                  24361807.6974
        11.5004         12.0004
 02  7  1 15 40 45.0020000  0  9G22G 6G10G15G17G30G23G18G29
  24694787.7134    -259634.27145   -159067.72445                  24694797.0574
         7.5004          9.0004
  21117434.9554     698031.24548    578525.17546                  21117441.1664
        28.7504         25.5004
  23095663.6894    9224305.84947   7187767.46446                  23095671.2644
        21.0004         19.5004
  22860338.7994   -4346513.69046  -3364957.50946                  22860347.4634
        18.2504         19.7504
  22226611.1894   -2376300.46347  -1835521.58846                  22226618.8114
        23.2504         24.7504
  23358246.6194   11553550.45146   8924892.17946                  23358254.2754
        17.7504         17.0004
  21563417.9634     316154.13048    254460.20047                  21563424.7364
        30.5004         28.5004
  24155768.3304   -4488093.47046  -3374617.95046                  24155776.8774
        13.2504         13.0004
  24360111.7994   -3274286.54246  -2444659.38445                  24360119.9824
        12.2504         11.2504
 02  7  1 15 41  0.0020000  0  9G22G 6G10G15G17G30G23G18G29
  24692506.4474    -271622.32545   -168409.03845                  24692515.4754
         8.0004          8.5004
  21120698.3774     715180.22048    591888.01447                  21120704.5764
        29.0004         25.7504
  23107532.6894    9286676.59847   7236368.03046                  23107540.1464
        22.5004         20.5004
  22858095.0494   -4358304.94846  -3374145.47346                  22858103.1974
        19.7504         19.5004
  22226314.6504   -2377858.63147  -1836735.73346                  22226322.0374
        23.7504         25.0004
  23371755.7684   11624540.94046   8980209.40046                  23371763.0724
        17.5004         16.5004
  21567148.2134     335756.84848    269735.05747                  21567155.3074
        31.0004         28.5004
  24149740.9554   -4519766.06446  -3399297.86346                  24149749.0214
        13.7504         13.2504
  24358447.3854   -3283034.50446  -2451475.94945                  24358455.8614
        13.0004         11.7504
 02  7  1 15 41 15.0020000  0  9G22G 6G10G15G17G30G23G18G29
  24690251.8074    -283467.59745   -177639.11945                  24690262.9084
         8.2504          9.2504
  21123986.4714     732459.79548    605352.61746                  21123992.8224
        29.5004         25.5004
  23119424.3304    9349168.18447   7285062.76246                  23119432.1744
        23.2504         21.0004
  22855867.4474   -4370010.45647  -3383266.63146                  22855875.4434
        20.7504         19.5004
  22226034.6114   -2379330.61447  -1837882.72346                  22226041.4714
        24.2504         24.7504
  23385280.3694   11695614.37546   9035591.26246                  23385287.0144
        17.7504         16.5004
  21570909.6434     355522.81048    285137.10247                  21570916.8074
        30.0004         28.5004
  24143728.6504   -4551360.86546  -3423917.16246                  24143736.2834
        14.7504         12.5004
  24356803.8934   -3291671.48945  -2458206.02646                  24356812.8854
        11.5004         12.2504
 02  7  1 15 41 30.0020000  0  9G22G 6G10G15G17G30G23G18G29
  24688026.1434    -295167.96845   -186756.28345                  24688037.1394
         8.5004          9.0004
  21127300.0334     749872.04448    618920.60446                  21127306.4794
        29.2504         25.5004
  23131339.4714    9411782.04747   7333852.76146                  23131347.1394
        22.2504         20.7504
  22853656.8074   -4381628.29647  -3392319.47846                  22853664.5214
        21.2504         19.7504
  22225771.1434   -2380714.55547  -1838961.10746                  22225778.0144
        23.7504         24.7504
  23398821.5334   11766772.43046   9091039.07446                  23398828.1074
        16.7504         16.2504
  21574702.1584     375453.92548    300667.84547                  21574708.8264
        30.7504         28.0004
  24137731.5884   -4582875.77446  -3448474.21346                  24137739.4554
        15.5004         13.0004
  24355181.7914   -3300195.16646  -2464847.81645                  24355190.5254
        12.2504         11.5004
 02  7  1 15 41 45.0020000  0  9G22G 6G10G15G17G30G23G18G29
  24685827.5644    -306720.22545   -195758.09745                  24685842.5574
         9.5004          9.2504
  21130639.1044     767419.99548    632594.33346                  21130645.5844
        29.0004         25.5004
  23143278.0494    9474520.77047   7382740.06546                  23143285.7754
        21.7504         20.5004
  22851463.4324   -4393155.53347  -3401301.71346                  22851470.9714
        22.2504         20.0004
  22225525.1584   -2382007.62247  -1839968.68346                  22225532.3574
        23.5004         24.7504
  23412378.9004   11838017.57946   9146554.74846                  23412385.6044
        16.5004         16.5004
  21578526.9244     395553.03348    316329.49447                  21578533.5104
        30.2504         28.0004
  24131750.5964   -4614307.59546  -3472966.50146                  24131758.5334
        15.2504         13.2504
  24353581.6824   -3308602.57245  -2471398.98845                  24353590.1824
        11.5004         11.2504
 02  7  1 15 42  0.0020000  0  9G22G 6G10G15G17G30G23G18G29
  24683657.2294    -318123.61045   -204643.73545                  24683670.6744
         9.5004          9.0004
  21134004.2444     785104.31048    646374.31246                  21134010.7014
        29.0004         25.5004
  23155240.4944    9537384.54947   7431724.81546                  23155248.5254
        21.2504         20.2504
  22849287.5184   -4404591.63447  -3410212.95946                  22849294.8574
        21.5004         20.2504
  22225296.2524   -2383209.18047  -1840904.95046                  22225303.7684
        23.5004         24.7504
  23425953.1274   11909349.96746   9202138.38746                  23425960.3144
        16.5004         16.7504
  21582383.8384     415820.59648    332122.40447                  21582390.3544
        30.2504         28.0004
  24125785.2684   -4645655.44446  -3497393.37346                  24125792.8544
        14.7504         13.7504
  24352003.8694   -3316892.67145  -2477858.77845                  24352012.3224
        10.7504         11.0004
 02  7  1 15 42 15.0020000  0  9G22G 6G10G15G17G30G23G18G29
  24681515.5334    -329379.43545   -213414.45745                  24681526.3774
         9.2504          9.7504
  21137395.2214     802923.54648    660259.43846                  21137401.7134
        29.0004         25.5004
  23167226.6584    9600371.52847   7480805.55646                  23167235.2404
        20.0004         20.5004
  22847128.1194   -4415938.12547  -3419054.36046                  22847135.8114
        21.0004         20.2504
  22225084.9554   -2384320.78747  -1841771.11946                  22225092.6354
        24.0004         24.7504
  23439543.3224   11980767.79146   9257788.59746                  23439550.7794
        16.5004         16.5004
  21586272.3544     436254.92348    348045.25947                  21586278.9044
        31.0004         28.0004
  24119835.5414   -4676920.66846  -3521755.84646                  24119843.8774
        14.7504         14.2504
  24350448.5884   -3325066.66045  -2484228.07645                  24350456.9244
        11.7504         11.2504
 02  7  1 15 42 30.0020000  0  9G22G 6G10G15G17G30G23G18G29
  24679401.5254    -340488.46945   -222070.85845                  24679413.1664
         9.2504          9.2504
  21140811.6584     820876.91848    674249.07746                  21140817.9284
        29.0004         25.2504
  23179235.9554    9663480.44247   7529981.31146                  23179244.1504
        20.2504         20.2504
  22844985.7914   -4427195.99147  -3427826.70046                  22844993.3544
        22.7504         20.5004
  22224890.0644   -2385343.63247  -1842568.13746                  22224897.7684
        23.2504         25.0004
  23453149.6824   12052269.52346   9313504.20646                  23453156.8934
        16.2504         16.7504
  21590192.5724     456855.02248    364097.29147                  21590199.2054
        30.5004         27.7504
  24113901.6974   -4708103.92646  -3546054.43846                  24113910.3144
        15.5004         14.5004
  24348915.1434   -3333125.17046  -2490507.40345                  24348922.8934
        12.5004         11.0004
 02  7  1 15 42 45.0020000  0  9G22G 6G10G15G17G30G23G18G29
  24677317.2444    -351443.38345   -230607.13245                  24677326.9394
         9.7504          9.7504
  21144254.9244     838971.51348    688348.77046                  21144261.3464
        29.5004         25.5004
  23191269.6974    9726717.71547   7579257.08446                  23191277.7994
        22.0004         20.5004
  22842861.5804   -4438358.26347  -3436524.55746                  22842869.3184
        22.5004         20.2504
  22224713.8694   -2386270.57647  -1843290.42546                  22224721.3144
        23.5004         25.0004
  23466773.4394   12123861.88346   9369290.40646                  23466780.7094
        16.5004         16.5004
  21594145.3464     477627.78248    380283.85547                  21594151.8734
        30.5004         27.7504
  24107984.7754   -4739197.94546  -3570283.49946                  24107992.4434
        16.2504         14.2504
  24347405.4474   -3341060.89746  -2496691.06745                  24347413.9364
        12.2504         10.5004
 02  7  1 15 43  0.0020000  0  9G22G 6G10G15G17G30G23G18G29
  24675259.7214    -362253.57145   -239030.65845                  24675269.0534
         9.7504          9.7504
  21147723.4164     857198.00348    702551.22947                  21147729.9794
        28.7504         25.7504
  23203326.2444    9790073.44547   7628625.17746                  23203334.0534
        22.2504         20.5004
  22840754.0104   -4449434.33747  -3445155.24446                  22840762.0064
        23.0004         20.5004
  22224553.9944   -2387111.07647  -1843945.35046                  22224561.1704
        23.7504         24.7504
  23480412.3144   12195534.95046   9425139.51046                  23480419.5844
        16.7504         16.7504
  21598129.4474     498563.58348    396597.47247                  21598135.9284
        31.2504         28.0004
  24102082.9554   -4770211.95746  -3594450.24146                  24102089.3424
        16.2504         13.7504
  24345916.6194   -3348883.03146  -2502786.17645                  24345924.1004
        12.0004         10.7504
 02  7  1 15 43 15.0020000  0  9G22G 6G10G15G17G30G23G18G29
  24673231.9474    -372910.61945   -247334.81445                  24673240.7994
         9.7504         10.5004
  21151218.5414     875564.61648    716862.88047                  21151225.1154
        29.7504         26.0004
  23215406.1824    9853555.40647   7678091.63246                  23215414.2714
        22.0004         20.5004
  22838663.9394   -4460416.11847  -3453712.46746                  22838671.5494
        22.5004         20.5004
  22224411.7684   -2387857.26747  -1844526.78146                  22224418.9554
        23.7504         25.0004
  23494068.0334   12267296.42046   9481057.50546                  23494075.2564
        17.0004         16.5004
  21602145.9004     519670.42748    413044.36547                  21602152.2524
        30.7504         27.7504
  24096197.8144   -4801137.80946  -3618548.27046                  24096205.1314
        16.0004         14.2504
  24344451.1584   -3356583.25046  -2508786.31845                  24344457.8964
        13.0004         11.0004
 02  7  1 15 43 30.0020000  0  9G22G 6G10G15G17G30G23G18G29
  24671232.0414    -383420.42545   -255524.27845                  24671241.4434
         9.2504          9.5004
  21154739.1044     894065.31948    731279.01147                  21154745.8544
        29.5004         26.0004
  23227509.1584    9917157.14647   7727651.40646                  23227517.4944
        21.7504         20.7504
  22836591.1664   -4471309.78447  -3462201.02446                  22836599.0334
        21.2504         20.0004
  22224286.6274   -2388515.26847  -1845039.49046                  22224294.0024
        24.2504         25.2504
  23507739.2364   12339139.81346   9537039.34646                  23507746.5184
        16.0004         16.0004
  21606193.7214     540942.04948    429619.65347                  21606199.8034
        30.7504         27.5004
  24090328.6824   -4831981.44746  -3642582.24646                  24090335.6584
        16.2504         14.0004
  24343008.0024   -3364167.27346  -2514695.93346                  24343015.6824
        13.5004         12.0004
 02  7  1 15 43 45.0020000  0  9G22G 6G10G15G17G30G23G18G29
  24669260.2524    -393781.81445   -263598.05745                  24669269.4674
         9.2504          9.5004
  21158285.3224     912701.22148    745800.49747                  21158292.2524
        29.5004         26.0004
  23239634.8614    9980879.21247   7777304.94546                  23239643.5374
        20.7504         20.2504
  22834535.1824   -4482114.39047  -3470620.18246                  22834543.0844
        21.0004         20.0004
  22224178.4794   -2389084.04647  -1845482.69646                  22224185.7254
        24.2504         25.0004
  23521426.7834   12411065.65546   9593085.41046                  23521434.2174
        16.5004         16.2504
  21610273.0024     562379.29848    446324.01147                  21610279.0614
        31.2504         27.2504
  24084474.9634   -4862741.39546  -3666550.98646                  24084481.9864
        16.2504         14.2504
  24341587.4714   -3371633.94546  -2520514.04646                  24341594.1154
        13.2504         12.2504
 02  7  1 15 44  0.0020000  0  9G22G 6G10G15G17G30G23G18G29
  24667316.0964    -403998.12045   -271558.76245                  24667325.1934
         9.2504          9.0004
  21161856.8074     931468.92448    760424.68247                  21161863.7254
        28.7504         25.7504
  23251783.0414   10044717.78047   7827049.26546                  23251791.6004
        20.5004         20.0004
  22832495.2294   -4492833.45447  -3478972.68646                  22832503.0724
        21.2504         20.0004
  22224086.3774   -2389567.22547  -1845859.19946                  22224093.5644
        24.5004         25.0004
  23535128.6894   12483070.03446   9649192.69046                  23535136.0884
        17.5004         16.5004
  21614383.1974     583978.63948    463154.67347                  21614389.3854
        29.7504         27.5004
  24078636.9554   -4893420.88346  -3690457.04646                  24078643.8264
        16.2504         14.5004
  24340188.0184   -3378986.29646  -2526243.12146                  24340195.6744
        12.7504         12.5004
 02  7  1 15 44 15.0020000  0  9G22G 6G10G15G17G30G23G18G29
  24665400.6504    -414061.37945   -279400.24045                  24665411.2134
         8.7504          9.5004
  21165454.6274     950376.32948    775157.73347                  21165461.3894
        29.7504         25.7504
  23263954.7994   10108680.24047   7876890.12746                  23263963.4514
        21.2504         20.2504
  22830473.2914   -4503459.21547  -3487252.47746                  22830480.8184
        22.2504         20.0004
  22224012.2214   -2389957.07047  -1846162.95846                  22224019.5494
        24.5004         25.2504
  23548846.7444   12555160.40646   9705366.97846                  23548853.3184
        17.7504         16.5004
  21618525.7914     605747.73448    480117.59947                  21618532.3184
        30.0004         27.7504
  24072815.7604   -4924011.98146  -3714294.22746                  24072822.3464
        16.0004         14.0004
  24338812.2754   -3386216.31046  -2531876.87045                  24338820.4824
        12.2504         11.7504
 02  7  1 15 44 30.0020000  0  9G22G 6G10G15G17G30G23G18G29
  24663514.7214    -423975.60045   -287125.61145                  24663525.7644
         8.7504         10.0004
  21169078.1114     969419.22448    789996.35347                  21169085.0064
        29.2504         25.7504
  23276149.3304   10172761.91447   7926823.87746                  23276157.6784
        21.5004         20.5004
  22828468.2604   -4513995.92547  -3495462.88546                  22828476.3144
        21.2504         20.5004
  22223955.0804   -2390257.95547  -1846397.40846                  22223962.5024
        24.5004         25.0004
  23562580.7994   12627332.03446   9761604.58146                  23562588.2564
        18.0004         17.0004
  21622699.4864     627682.18548    497209.37747                  21622706.1544
        30.2504         27.7504
  24067010.3614   -4954518.68346  -3738065.66446                  24067016.4674
        16.0004         14.2504
  24337458.6434   -3393328.03246  -2537418.42546                  24337467.5414
        13.0004         12.0004
 02  7  1 15 44 45.0020000  0  9G22G 6G10G15G17G30G23G18G29
  24661656.8384    -433736.90045   -294731.75345                  24661668.2684
         9.0004          9.2504
  21172728.4474     988601.40348    804943.49946                  21172734.8934
        29.5004         25.2504
  23288366.7444   10236966.13647   7976853.12346                  23288375.3034
        20.5004         20.5004
  22826480.6584   -4524439.87747  -3503601.00446                  22826488.7134
        21.5004         20.5004
  22223915.3934   -2390466.20947  -1846559.67246                  22223922.9324
        23.5004         25.0004
  23576330.9164   12699588.22046   9817908.06946                  23576338.9244
        17.7504         17.0004
  21626905.7054     649785.54248    514432.78547                  21626912.4554
        29.0004         27.7504
  24061221.9394   -4984936.97846  -3761768.19646                  24061228.1864
        17.2504         14.2504
  24336128.8074   -3400317.39746  -2542864.63046                  24336134.7714
        14.0004         12.0004
 02  7  1 15 45  0.0020000  0  9G22G 6G10G15G17G30G23G18G29
  24659827.2684    -443350.14545   -302222.54845                  24659837.5024
         8.7504          9.2504
  21176404.4794    1007917.83348    819995.26446                  21176410.7484
        28.5004         25.5004
  23300607.0494   10301287.39846   8026973.58246                  23300615.3964
        19.7504         20.0004
  22824509.8074   -4534796.12147  -3511670.79646                  22824517.8614
        21.5004         20.2504
  22223892.2754   -2390587.01747  -1846653.79946                  22223899.9904
        22.2504         24.7504
  23590095.6434   12771923.50446   9874273.18446                  23590102.9824
        17.0004         16.5004
  21631143.0724     672052.57648    531783.72547                  21631149.8114
        29.0004         27.7504
  24055449.2364   -5015271.77846  -3785405.65946                  24055456.4004
        16.5004         14.5004
  24334821.3144   -3407189.28946  -2548219.32846                  24334827.8304
        14.2504         12.7504
 02  7  1 15 45 15.0030000  0  9G22G 6G10G15G17G30G23G18G29
  24658026.3434    -452815.91145   -309598.47945                  24658036.8704
         9.0004          9.5004
  21180105.9444    1027369.83848    835152.66346                  21180112.3194
        29.0004         25.2504
  23312869.7494   10365729.46747   8077188.15046                  23312877.5694
        20.7504         20.0004
  22822555.8974   -4545065.49747  -3519672.88846                  22822563.8234
        21.0004         20.2504
  22223886.0694   -2390620.40147  -1846679.80946                  22223893.4214
        22.7504         24.7504
  23603876.4834   12844342.10046   9930703.21846                  23603883.7064
        17.5004         16.5004
  21635411.8194     694484.63748    549263.25647                  21635418.3474
        29.7504         27.5004
  24049692.1404   -5045524.86146  -3808979.45446                  24049699.2104
        15.5004         14.5004
  24333535.5154   -3413943.96746  -2553482.65346                  24333541.9724
        14.5004         12.7504
 02  7  1 15 45 30.0030000  0  9G22G 6G10G15G17G30G23G18G29
  24656252.9994    -462135.55345   -316860.53945                  24656260.8784
         9.7504          9.2504
  21183832.4914    1046952.14548    850411.60846                  21183838.6444
        30.5004         25.5004
  23325153.1944   10430280.58247   8127487.70246                  23325161.1554
        21.2504         19.7504
  22820617.3514   -4555249.60747  -3527608.52946                  22820625.2654
        20.2504         20.2504
  22223895.5854   -2390569.40047  -1846640.05646                  22223902.6084
        23.7504         25.0004
  23617670.5464   12916831.08246   9987188.12146                  23617677.8744
        18.0004         16.0004
  21639710.7884     717075.72248    566866.70447                  21639717.2574
        30.2504         27.7504
  24043951.0464   -5075694.93346  -3832488.56146                  24043958.4564
        15.0004         14.2504
  24332272.4134   -3420583.05546  -2558655.92746                  24332280.2924
        14.2504         13.2504
 02  7  1 15 45 45.0030000  0  9G22G 6G10G15G17G30G23G18G29
  24654507.6404    -471307.63445   -324007.55545                  24654516.7024
        10.7504          9.7504
  21187584.3354    1066668.06148    865774.65646                  21187590.3474
        30.2504         25.5004
  23337458.9294   10494946.57747   8177876.76846                  23337466.8434
        20.2504         19.7504
  22818696.0464   -4565347.11247  -3535476.69746                  22818704.1124
        20.0004         20.5004
  22223921.7494   -2390432.06847  -1846533.03646                  22223928.9374
        24.2504         25.0004
  23631479.5774   12989396.93746  10043732.90646                  23631486.7064
        17.5004         16.2504
  21644040.4214     739829.16548    584596.66147                  21644047.0654
        29.0004         27.7504
  24038225.4054   -5105781.88346  -3855932.89046                  24038233.0504
        14.5004         13.7504
  24331031.2184   -3427104.76246  -2563737.71846                  24331039.0974
        14.0004         12.5004
 02  7  1 15 46  0.0030000  0  9G22G 6G10G15G17G30G23G18G29
  24652790.3824    -480329.51545   -331037.56245                  24652800.4174
        10.5004         10.0004
  21191361.9374    1086520.05748    881243.76047                  21191368.1474
        29.5004         25.7504
  23349786.7964   10559729.39947   8228356.86246                  23349795.1204
        20.2504         20.0004
  22816791.9684   -4575355.70047  -3543275.58446                  22816800.0114
        21.0004         20.5004
  22223964.8124   -2390206.13247  -1846356.96646                  22223972.0584
        23.7504         25.0004
  23645303.3044   13062041.57646  10100339.10446                  23645310.7614
        17.5004         16.0004
  21648401.6634     762747.19348    602454.86847                  21648408.5934
        30.2504         28.0004
  24032516.4444   -5135783.07746  -3879310.39546                  24032523.2884
        14.5004         14.0004
  24329812.8584   -3433506.31246  -2568725.90546                  24329818.7064
        14.5004         12.2504
 02  7  1 15 46 15.0030000  0  9G22G 6G10G15G17G30G23G18G29
  24651102.4524    -489200.82145   -337950.23445                  24651112.8044
        10.5004          9.7504
  21195165.4134    1106508.37148    896819.07446                  21195171.6124
        29.5004         25.5004
  23362136.6164   10624628.82846   8278927.80646                  23362144.8474
        19.7504         19.7504
  22814903.7104   -4585275.29847  -3551005.14046                  22814911.4604
        21.7504         20.5004
  22224024.6244   -2389891.54347  -1846111.82146                  22224031.9874
        23.5004         25.5004
  23659141.9524   13134764.72746  10157006.44846                  23659149.5854
        18.2504         16.7504
  21652794.0694     785829.80648    620441.32347                  21652800.9134
        30.5004         28.2504
  24026823.5854   -5165698.26346  -3902620.88346                  24026831.1714
        15.7504         14.5004
  24328618.0544   -3439787.51346  -2573620.34546                  24328624.0074
        14.2504         12.7504
 02  7  1 15 46 30.0030000  0  9G22G 6G10G15G17G30G23G18G29
  24649442.4684    -497924.94445   -344748.22445                  24649453.6874
        11.0004          9.7504
  21198994.4684    1126629.54648    912497.91446                  21199000.8194
        28.2504         25.5004
  23374508.1244   10689640.93047   8329586.56746                  23374516.0624
        20.2504         19.2504
  22813032.6474   -4595109.43747  -3558668.08246                  22813040.2104
        22.2504         20.5004
  22224100.5624   -2389491.79547  -1845800.31446                  22224108.0194
        24.2504         25.5004
  23672995.0304   13207562.45846  10213731.88946                  23673002.8514
        18.7504         16.7504
  21657217.3434     809073.31848    638553.16047                  21657224.0694
        29.7504         28.2504
  24021147.1244   -5195530.68046  -3925866.85846                  24021153.7334
        17.0004         14.5004
  24327445.1014   -3445951.46446  -2578423.34346                  24327453.3664
        14.2504         13.2504
 02  7  1 15 46 45.0030000  0  9G22G 6G10G15G17G30G23G18G29
  24647810.6714    -506498.45145   -351428.83045                  24647820.9994
        11.2504         10.0004
  21202849.2574    1146886.87848    928282.85147                  21202855.7844
        29.2504         25.7504
  23386901.3904   10754768.55947   8380335.34546                  23386908.7064
        20.5004         19.0004
  22811178.0544   -4604854.86247  -3566261.91446                  22811185.7454
        22.0004         20.5004
  22224193.6474   -2389003.67247  -1845419.94447                  22224201.0344
        24.5004         26.0004
  23686862.7264   13280437.59446  10270517.66346                  23686870.2184
        18.7504         17.0004
  21661671.5384     832480.88748    656792.82747                  21661678.1714
        30.5004         28.0004
  24015486.3974   -5225276.75846  -3949045.60446                  24015492.9014
        16.5004         14.5004
  24326294.7024   -3451994.80446  -2583132.40546                  24326302.9794
        14.2504         12.7504
 02  7  1 15 47  0.0030000  0  9G22G 6G10G15G17G30G23G18G29
  24646206.9444    -514926.75345   -357996.31945                  24646216.8394
        10.7504         10.2504
  21206728.9374    1167274.94148    944169.65547                  21206735.2064
        29.0004         25.7504
  23399315.5074   10820005.71447   8431169.47446                  23399323.0814
        20.5004         18.5004
  22809339.4054   -4614517.13147  -3573790.94146                  22809347.0264
        21.5004         20.2504
  22224302.2104   -2388432.92947  -1844975.20447                  22224309.0694
        24.5004         25.7504
  23700744.1244   13353384.10446  10327359.05146                  23700751.8154
        17.7504         16.7504
  21666155.9994     856046.76548    675155.85547                  21666162.7264
        30.2504         28.2504
  24009841.1474   -5254941.88146  -3972161.26646                  24009847.7224
        15.2504         14.0004
  24325166.3904   -3457922.67146  -2587751.51146                  24325173.6944
        13.0004         12.5004
 02  7  1 15 47 15.0030000  0  9G22G 6G10G15G17G30G23G18G29
  24644632.0934    -523202.86245   -364445.21745                  24644640.2654
        10.7504          9.7504
  21210634.9374    1187800.59148    960163.66846                  21210640.9604
        29.7504         25.5004
  23411751.8824   10885358.79446   8482093.93746                  23411759.7614
        19.7504         18.5004
  22807517.6944   -4624089.62347  -3581250.01446                  22807525.2224
        21.0004         20.2504
  22224427.7724   -2387772.85547  -1844460.85246                  22224434.4764
        24.5004         25.2504
  23714640.2574   13426408.34146  10384261.00246                  23714647.2804
        17.7504         16.5004
  21670671.7724     879777.55348    693647.38547                  21670678.5584
        30.2504         28.0004
  24004212.7654   -5284519.10746  -3995208.39646                  24004219.8004
        15.0004         13.5004
  24324061.6794   -3463728.03246  -2592275.12146                  24324069.4404
        12.0004         12.5004
 02  7  1 15 47 30.0030000  0  9G22G 6G10G15G17G30G23G18G29
  24643086.6244    -531323.88045   -370773.29345                  24643094.8784
        10.5004         10.5004
  21214567.4764    1208466.72148    976267.14346                  21214573.5694
        29.5004         25.5004
  23424210.8514   10950830.28946   8533110.66146                  23424218.9764
        18.7504         18.5004
  22805713.5544   -4633569.56447  -3588636.95746                  22805721.5034
        21.5004         20.5004
  22224570.9604   -2387020.71447  -1843874.76146                  22224577.5814
        25.5004         25.5004
  23728551.7104   13499512.66846  10441225.36246                  23728558.7804
        17.5004         16.2504
  21675219.5694     903675.94648    712269.51647                  21675226.4134
        30.0004         28.0004
  23998601.6794   -5314005.31346  -4018184.62846                  23998608.7724
        14.7504         14.0004
  24322981.1714   -3469407.91646  -2596700.94946                  24322988.7104
        12.7504         12.0004
 02  7  1 15 47 45.0030000  0  9G22G 6G10G15G17G30G23G18G29
  24641570.3584    -539292.01345   -376982.17045                  24641579.7614
        10.0004         10.7504
  21218526.4134    1229270.93748    992478.21847                  21218532.6124
        28.7504         25.7504
  23436691.5774   11016417.21946   8584217.33346                  23436699.7724
        19.7504         18.7504
  22803926.9134   -4642959.42247  -3595953.71246                  22803934.6984
        21.2504         20.5004
  22224731.2964   -2386178.98347  -1843218.86546                  22224737.7414
        26.0004         25.5004
  23742478.0774   13572694.23246  10498249.93146                  23742485.3234
        17.5004         16.7504
  21679798.5464     927739.24148    731020.13847                  21679805.1444
        30.0004         28.0004
  23993007.8354   -5343402.91446  -4041091.81746                  23993014.8704
        14.7504         14.0004
  24321923.4834   -3474964.53246  -2601030.77046                  24321930.3434
        13.2504         12.0004
 02  7  1 15 48  0.0030000  0  9G22G 6G10G15G17G30G23G18G29
  24640082.3664    -547109.80245   -383073.88145                  24640092.5074
         9.2504          9.7504
  21222511.0694    1250210.70448   1008794.92147                  21222517.3744
        28.5004         25.7504
  23449193.9134   11082116.59447   8635411.63046                  23449201.8044
        20.2504         19.0004
  22802156.8824   -4652261.79547  -3603202.31146                  22802164.3514
        21.7504         20.2504
  22224907.7104   -2385250.38347  -1842495.26446                  22224914.4134
        24.5004         25.5004
  23756418.3434   13645950.11946  10555332.39246                  23756425.7184
        17.7504         16.7504
  21684408.4444     951964.82448    749897.21947                  21684415.3154
        30.0004         28.2504
  23987429.8584   -5372714.14646  -4063931.70246                  23987437.2104
        14.7504         14.0004
  24320889.1164   -3480400.10545  -2605266.23146                  24320897.4764
        11.7504         12.2504
 02  7  1 15 48 15.0030000  0  9G22G 6G10G15G17G30G23G18G29
  24638623.5074    -554773.71145   -389045.76645                  24638633.0854
         9.0004          9.2504
  21226522.2574    1271289.19348   1025219.71847                  21226528.8434
        29.0004         25.7504
  23461717.8274   11147931.16647   8686695.69846                  23461725.8704
        20.0004         19.0004
  22800403.9604   -4661473.64947  -3610380.37446                  22800411.0894
        21.2504         20.0004
  22225101.5934   -2384231.82747  -1841701.58046                  22225108.4374
        24.7504         25.5004
  23770372.7104   13719282.90146  10612474.78346                  23770380.0264
        18.0004         16.2504
  21689049.9444     976355.63948    768903.05347                  21689056.7654
        30.5004         28.2504
  23981868.9214   -5401935.71046  -4086701.69546                  23981875.4834
        14.5004         14.0004
  24319878.2654   -3485711.23646  -2609404.74446                  24319886.0034
        12.7504         12.2504
 02  7  1 15 48 30.0030000  0  9G22G 6G10G15G17G30G23G18G29
  24637194.3824    -562281.80545   -394896.18245                  24637204.6284
         8.7504          9.5004
  21230560.1474    1292508.35748   1041754.12347                  21230566.7924
        28.5004         26.0004
  23474263.9764   11213862.29746   8738070.59446                  23474272.2184
        19.2504         18.2504
  22798668.5074   -4670593.05247  -3617486.39246                  22798676.0344
        20.7504         20.0004
  22225312.9684   -2383121.48747  -1840836.37646                  22225320.0504
        24.5004         25.5004
  23784342.5384   13792693.98546  10669678.20646                  23784350.0654
        17.0004         15.7504
  21693723.1084    1000913.35548    788038.94847                  21693729.4724
        30.2504         27.7504
  23976325.7574   -5431065.53046  -4109400.21546                  23976333.3314
        15.0004         14.5004
  24318891.9374   -3490895.77546  -2613444.59646                  24318899.6164
        13.7504         12.7504
 02  7  1 15 48 45.0030000  0  9G22G 6G10G15G17G30G23G18G29
  24635795.6874    -569635.48245   -400626.34445                  24635805.5814
         9.0004          9.7504
  21234624.4524    1313866.71348   1058396.99347                  21234631.2494
        29.0004         26.2504
  23486831.8044   11279908.08846   8789534.82046                  23486839.8354
        18.2504         17.7504
  22796950.2804   -4679621.62847  -3624521.62446                  22796958.2884
        21.5004         20.5004
  22225541.4134   -2381921.08347  -1839900.99346                  22225548.4134
        24.0004         25.2504
  23798326.6944   13866181.49446  10726941.15846                  23798334.4094
        16.5004         15.5004
  21698427.6874    1025636.29848    807303.58247                  21698434.2614
        29.5004         27.7504
  23970799.8664   -5460104.94946  -4132028.30046                  23970806.3824
        16.2504         14.5004
  24317929.2804   -3495955.15946  -2617386.96246                  24317936.0424
        14.2504         12.7504
 02  7  1 15 49  0.0030000  0  9G22G 6G10G15G17G30G23G18G29
  24634423.7184    -576843.11945   -406242.65345                  24634435.2654
         9.2504         10.2504
  21238713.7724    1335355.82248   1075141.75247                  21238720.4404
        29.5004         26.2504
  23499420.2804   11346059.61746   8841081.44246                  23499428.3824
        18.5004         17.5004
  22795247.7654   -4688567.96647  -3631492.78646                  22795255.6674
        21.0004         20.2504
  22225785.3044   -2380639.12047  -1838902.05746                  22225792.2694
        24.5004         25.5004
  23812323.5694   13939736.45546  10784256.66446                  23812331.7884
        16.5004         15.5004
  21703162.1164    1050515.75748    826690.17647                  21703169.0694
        29.5004         28.0004
  23965289.2494   -5489062.22246  -4154592.37746                  23965296.0114
        16.7504         14.5004
  24316988.5624   -3500897.54746  -2621238.13146                  24316995.8314
        12.2504         12.0004
 02  7  1 15 49 15.0030000  0  9G22G 6G10G15G17G30G23G18G29
  24633080.6554    -583902.99845   -411743.84345                  24633090.1514
         9.0004          9.7504
  21242828.3194    1356977.39148   1091989.72847                  21242834.9294
        29.5004         26.2504
  23512028.6554   11412318.07346   8892711.39446                  23512036.3234
        18.7504         17.5004
  22793561.3824   -4697430.43947  -3638398.59746                  22793568.8624
        21.5004         20.2504
  22226044.9054   -2379274.07847  -1837838.37647                  22226051.9764
        25.5004         26.0004
  23826333.6404   14013360.10846  10841625.70246                  23826341.0384
        15.5004         14.7504
  21707926.5224    1075553.21348    846199.89247                  21707933.4404
        30.7504         28.0004
  23959795.2654   -5517935.58246  -4177091.06246                  23959801.5464
        16.0004         14.2504
  24316070.3354   -3505721.02946  -2624996.66845                  24316078.5544
        12.2504         11.7504
 02  7  1 15 49 30.0030000  0  9G22G 6G10G15G17G30G23G18G29
  24631765.7104    -590810.59545   -417126.33945                  24631774.9254
         9.0004          9.7504
  21246968.7724    1378735.80948   1108944.34447                  21246975.2764
        29.7504         26.5004
  23524658.5154   11478687.33646   8944427.68946                  23524666.9564
        18.2504         18.0004
  22791891.4604   -4706204.87147  -3645235.80946                  22791898.7414
        22.0004         20.0004
  22226321.2574   -2377821.80147  -1836706.71747                  22226328.6554
        24.2504         26.2504
  23840357.6404   14087056.09446  10899051.10346                  23840365.1444
        15.5004         15.2504
  21712721.9994    1100752.82248    865835.95947                  21712728.7964
        30.7504         28.2504
  23954317.4604   -5546720.51546  -4199520.85746                  23954324.3544
        15.7504         14.5004
  24315175.9054   -3510421.18146  -2628659.11046                  24315184.5224
        12.2504         12.2504
 02  7  1 15 49 45.0030000  0  9G22G 6G10G15G17G30G23G18G29
  24630482.1874    -597558.80445   -422384.65345                  24630490.9914
         9.5004         10.5004
  21251136.6324    1400637.99248   1126010.97947                  21251143.1714
        29.7504         26.0004
  23537310.5624   11545173.96746   8996235.42046                  23537318.8154
        19.0004         18.2504
  22790239.8274   -4714884.39347  -3651999.06546                  22790247.4604
        21.5004         20.0004
  22226615.6244   -2376275.46247  -1835501.78047                  22226623.2224
        23.0004         26.0004
  23854396.5854   14160831.07346  10956538.06146                  23854403.4564
        15.7504         15.0004
  21717549.5934    1126121.28148    885603.59547                  21717556.2374
        31.2504         28.0004
  23948857.4764   -5575409.98646  -4221876.24446                  23948864.3944
        16.0004         15.0004
  24314306.1554   -3514990.82046  -2632219.80146                  24314314.6674
        12.2504         12.0004
 02  7  1 15 50  0.0030000  0  9G22G 6G10G15G17G30G23G18G29
  24629226.5934    -604158.09345   -427526.95845                  24629236.5114
        10.2504         10.5004
  21255329.8744    1422673.50448   1143181.50746                  21255336.3784
        29.5004         25.5004
  23549983.1244   11611766.98347   9048126.05046                  23549991.2494
        20.0004         18.7504
  22788604.1634   -4723479.54647  -3658696.57646                  22788611.4914
        21.7504         20.5004
  22226925.7264   -2374645.66247  -1834231.79547                  22226933.3944
        23.2504         26.0004
  23868448.4374   14234673.99746  11014077.97046                  23868456.2694
        16.0004         15.0004
  21722406.9834    1151647.85148    905494.43947                  21722413.6754
        30.7504         28.2504
  23943414.5224   -5604014.25546  -4244165.23446                  23943421.9684
        16.2504         15.5004
  24313459.9214   -3519440.14846  -2635686.79746                  24313467.9994
        13.0004         12.2504
 02  7  1 15 50 15.0030000  0  9G22G 6G10G15G17G30G23G18G29
  24628000.2414    -610600.90045   -432547.30045                  24628008.3904
        10.2504         10.2504
  21259549.7804    1444849.73948   1160461.68946                  21259556.3784
        29.5004         25.5004
  23562676.6554   11678473.33147   9100105.00446                  23562684.3004
        20.2504         18.7504
  22786986.0624   -4731983.03547  -3665322.65846                  22786993.1554
        22.2504         20.2504
  22227253.1404   -2372925.03247  -1832891.03047                  22227260.7724
        23.0004         26.0004
  23882515.1634   14308591.89546  11071676.30446                  23882522.8784
        16.0004         15.5004
  21727295.9994    1177339.73248    925514.09347                  21727302.5154
        31.5004         28.2504
  23937988.9054   -5632525.83146  -4266382.00846                  23937996.3744
        15.7504         15.5004
  24312637.6554   -3523761.61446  -2639054.15246                  24312645.1364
        12.5004         12.0004
 02  7  1 15 50 30.0030000  0  9G22G 6G10G15G17G30G23G18G29
  24626803.0774    -616891.83345   -437449.29445                  24626812.2574
         9.2504         10.0004
  21263795.4214    1467161.95648   1177847.83146                  21263801.6444
        29.0004         25.5004
  23575391.3194   11745287.76647   9152168.17946                  23575398.3194
        20.2504         18.5004
  22785384.8974   -4740399.64547  -3671881.05546                  22785392.1674
        21.7504         20.5004
  22227596.9134   -2371118.54247  -1831483.37346                  22227604.4404
        23.7504         25.5004
  23896593.9214   14382579.51446  11129328.95546                  23896601.6834
        16.2504         15.5004
  21732215.6244    1203192.02348    945658.73847                  21732221.9994
        31.2504         28.2504
  23932580.2264   -5660949.10346  -4288529.97746                  23932587.0224
        16.2504         15.5004
  24311838.8274   -3527959.69346  -2642325.35546                  24311847.0934
        13.0004         12.7504
 02  7  1 15 50 45.0030000  0  9G22G 6G10G15G17G30G23G18G29
  24625635.3044    -623030.52345   -442232.70645                  24625643.2184
         9.7504         10.0004
  21268067.3824    1489610.44748   1195340.16746                  21268073.5344
        29.2504         25.2504
  23588125.9444   11812210.13546   9204315.45746                  23588133.4724
        19.7504         18.2504
  22783799.2724   -4748729.30447  -3678371.68946                  22783806.8704
        21.7504         20.2504
  22227956.9684   -2369225.96047  -1830008.62447                  22227964.7064
        23.2504         25.7504
  23910686.8584   14456636.62146  11187035.72146                  23910694.7144
        16.7504         16.0004
  21737165.6944    1229204.77648    965928.41947                  21737172.0114
        31.0004         28.0004
  23927188.3274   -5689283.66946  -4310608.83146                  23927195.7144
        16.7504         15.7504
  24311063.3514   -3532033.91646  -2645500.05646                  24311071.0894
        13.5004         12.7504
 02  7  1 15 51  0.0030000  0  9G22G 6G10G15G17G30G23G18G29
  24624495.4214    -629020.15645   -446899.94045                  24624501.8194
        10.0004          9.7504
  21272364.5624    1512191.94448   1212936.13946                  21272370.9014
        29.2504         25.5004
  23600881.0154   11879236.69146   9256543.92146                  23600888.4724
        19.5004         17.5004
  22782230.3044   -4756975.34047  -3684797.15346                  22782237.6904
        21.0004         20.0004
  22228332.6404   -2367250.75847  -1828469.49147                  22228340.5424
        23.0004         25.7504
  23924792.0624   14530759.54146  11244793.80446                  23924799.8124
        17.7504         16.2504
  21742145.5774    1255374.49348    986320.41647                  21742151.8944
        31.0004         28.2504
  23921812.7334   -5717532.72846  -4332621.05046                  23921819.9564
        17.7504         15.7504
  24310311.0384   -3535987.28046  -2648580.58146                  24310317.8124
        13.7504         13.0004
 02  7  1 15 51 15.0030000  0  9G22G 6G10G15G17G30G23G18G29
  24623384.5224    -634856.46045   -451447.69445                  24623392.9994
        10.0004          9.0004
  21276687.7884    1534910.63948   1230639.01546                  21276694.3744
        28.5004         25.5004
  23613656.1554   11946371.14446   9308856.44046                  23613662.5654
        19.2504         17.5004
  22780677.6474   -4765133.68747  -3691154.29446                  22780685.0694
        23.0004         20.5004
  22228725.2574   -2365188.81747  -1826862.77447                  22228733.1834
        23.5004         25.7504
  23938910.5224   14604951.85146  11302605.93746                  23938917.9564
        18.7504         16.2504
  21747156.1244    1281705.08148   1006837.75347                  21747162.6044
        31.2504         28.2504
  23916453.9524   -5745692.02946  -4354563.33346                  23916460.3274
        16.5004         15.5004
  24309582.6014   -3539815.67346  -2651563.70346                  24309590.1284
        13.0004         12.2504
 02  7  1 15 51 30.0030000  0  9G22G 6G10G15G17G30G23G18G29
  24622303.7264    -640537.54445   -455874.48745                  24622311.6754
        10.5004          9.5004
  21281037.4054    1557768.36648   1248450.22847                  21281044.0734
        28.5004         25.7504
  23626452.0304   12013614.74346   9361254.05246                  23626459.0424
        18.5004         17.2504
  22779142.3824   -4773202.60947  -3697441.75746                  22779149.2884
        24.2504         21.0004
  22229134.4994   -2363038.60847  -1825187.27547                  22229141.8624
        25.0004         25.7504
  23953042.3434   14679214.88446  11360473.20246                  23953049.9174
        17.7504         16.2504
  21752197.5774    1308198.10348   1027481.67847                  21752203.9054
        30.7504         28.2504
  23911112.8514   -5773759.59946  -4376434.14046                  23911119.8864
        15.0004         15.2504
  24308878.3514   -3543516.95646  -2654447.79146                  24308886.9684
        14.0004         12.2504
 02  7  1 15 51 45.0030000  0  9G22G 6G10G15G17G30G23G18G29
  24621251.8904    -646063.99845   -460180.78845                  24621258.9724
        10.7504         10.0004
  21285413.3974    1580764.40148   1266369.21747                  21285420.1014
        29.0004         25.7504
  23639268.8664   12080966.35046   9413735.78646                  23639276.5694
        17.7504         17.2504
  22777623.8434   -4781182.95947  -3703660.21746                  22777630.7494
        22.5004         21.0004
  22229560.4684   -2360800.90647  -1823443.60847                  22229567.6084
        25.0004         26.2504
  23967187.3664   14753547.40746  11418394.60546                  23967195.0584
        17.5004         15.5004
  21757269.6554    1334852.57748   1048251.39447                  21757276.2294
        31.5004         28.2504
  23905789.3824   -5801735.96946  -4398233.88046                  23905796.8974
        15.7504         15.2504
  24308197.8434   -3547091.77046  -2657233.36646                  24308205.8394
        14.5004         12.7504
 02  7  1 15 52  0.0030000  0  9G22G 6G10G15G17G30G23G18G29
  24620228.4914    -651441.75645   -464371.21245                  24620236.1124
        10.7504          9.5004
  21289814.6554    1603892.78948   1284391.34047                  21289821.4054
        29.5004         25.7504
  23652104.7964   12148419.51746   9466296.66646                  23652112.4764
        18.2504         17.5004
  22776120.7884   -4789080.89947  -3709814.43746                  22776128.3044
        21.7504         21.0004
  22230001.6794   -2358481.81447  -1821636.51747                  22230009.2184
        24.2504         26.0004
  23981344.4374   14827943.00246  11476365.15246                  23981352.2334
        17.5004         15.5004
  21762371.5074    1361662.28348   1069142.07947                  21762377.9294
        31.7504         28.2504
  23900481.6554   -5829627.08146  -4419967.15846                  23900489.2764
        16.5004         15.7504
  24307540.6164   -3550545.66046  -2659924.68646                  24307548.0854
        14.2504         12.7504
 02  7  1 15 52 15.0030000  0  9G22G 6G10G15G17G30G23G18G29
  24619234.2104    -656666.84045   -468442.67045                  24619242.9214
        10.5004         10.5004
  21294241.7964    1627157.39048   1302519.60047                  21294248.4994
        29.7504         26.0004
  23664960.9374   12215977.70246   9518939.38146                  23664968.8154
        18.7504         17.7504
  22774634.3904   -4796892.58847  -3715901.43746                  22774641.9764
        21.7504         20.7504
  22230459.1404   -2356077.65947  -1819763.13547                  22230466.7964
        24.0004         26.0004
  23995513.9214   14902405.04446  11534387.48946                  23995521.6244
        16.7504         15.2504
  21767503.3584    1388630.90948   1090156.59847                  21767509.6044
        31.2504         28.2504
  23895190.9834   -5857428.70846  -4441630.73446                  23895198.0074
        17.5004         15.5004
  24306906.7184   -3553874.64846  -2662518.69046                  24306914.6794
        12.7504         12.5004
 02  7  1 15 52 30.0030000  0  9G22G 6G10G15G17G30G23G18G29
  24618269.4134    -661738.79645   -472394.84545                  24618278.5114
         9.2504         11.0004
  21298694.9374    1650558.58048   1320754.29647                  21298701.5934
        29.7504         26.0004
  23677836.6474   12283640.83446   9571663.87746                  23677844.6084
        18.5004         18.0004
  22773164.2024   -4804617.69847  -3721920.99846                  22773171.3664
        23.0004         20.5004
  22230932.8044   -2353588.17247  -1817823.27147                  22230940.2024
        24.2504         26.0004
  24009695.9054   14976933.44246  11592461.52746                  24009704.1014
        16.0004         15.0004
  21772665.6014    1415758.59548   1111295.05147                  21772671.9644
        31.0004         28.2504
  23889917.9134   -5885140.34346  -4463224.20346                  23889925.1474
        17.7504         15.7504
  24306297.6324   -3557078.29946  -2665014.99146                  24306306.0974
        13.5004         12.7504
 02  7  1 15 52 45.0030000  0  9G22G 6G10G15G17G30G23G18G29
  24617332.8194    -666657.69445   -476227.71145                  24617342.8544
        10.0004         10.7504
  21303173.8664    1674096.19848   1339095.29047                  21303180.2064
        29.7504         26.0004
  23690732.4294   12351408.18946   9624469.57946                  23690740.3084
        18.7504         18.0004
  22771710.4444   -4812256.56847  -3727873.36746                  22771716.9254
        22.2504         20.7504
  22231422.8434   -2351013.66047  -1815817.15947                  22231429.9954
        24.7504         26.0004
  24023890.9994   15051527.54746  11650586.75746                  24023897.8194
        15.5004         14.5004
  21777858.0544    1443044.84148   1132557.06147                  21777864.4524
        31.0004         28.2504
  23884661.7574   -5912762.15646  -4484747.67446                  23884669.0974
        17.5004         15.5004
  24305711.7804   -3560156.46646  -2667413.53946                  24305719.6594
        15.0004         13.0004
 02  7  1 15 53  0.0030000  0  9G22G 6G10G15G17G30G23G18G29
  24616426.1554    -671421.10245   -479939.39445                  24616436.5074
         9.2504         11.0004
  21307679.3584    1697772.55248   1357544.39247                  21307685.4644
        30.7504         25.7504
  23703648.4914   12419281.64046   9677357.97146                  23703655.9254
        18.7504         18.0004
  22770273.7574   -4819806.94447  -3733756.76046                  22770281.0974
        22.7504         21.0004
  22231929.3974   -2348351.92447  -1813743.06947                  22231936.6084
        24.5004         25.7504
  24038098.5384   15126189.03246  11708764.49546                  24038106.2414
        15.0004         14.2504
  21783080.8584    1470491.77848   1153944.29247                  21783087.7024
        30.5004         28.5004
  23879422.8274   -5940291.67246  -4506199.21746                  23879430.1084
        16.5004         15.5004
  24305150.2494   -3563106.77946  -2669712.46046                  24305157.9874
        15.5004         13.0004
 02  7  1 15 53 15.0030000  0  9G22G 6G10G15G17G30G23G18G29
  24615547.9914    -676036.02545   -483535.44145                  24615559.3744
         8.7504         10.7504
  21312209.8584    1721580.53248   1376096.06347                  21312215.9764
        30.0004         26.0004
  23716582.9994   12487253.57446   9730323.08546                  23716591.0194
        18.5004         18.2504
  22768852.2654   -4827275.99747  -3739576.78446                  22768859.7574
        21.7504         21.0004
  22232450.7724   -2345610.23647  -1811606.68846                  22232458.0774
        24.2504         25.5004
  24052317.1244   15200910.48146  11766988.95546                  24052324.5694
        14.7504         13.2504
  21788333.1474    1498092.09648   1175451.03347                  21788340.0304
        29.5004         28.0004
  23874200.4134   -5967735.87746  -4527584.28346                  23874207.6244
        16.2504         15.5004
  24304612.0074   -3565936.16646  -2671917.18346                  24304619.0894
        14.5004         13.0004
 02  7  1 15 53 30.0030000  0  9G22G 6G10G15G17G30G23G18G29
  24614700.2654    -680490.73945   -487006.59345                  24614710.0304
         8.7504         10.2504
  21316767.7334    1745531.83348   1394759.40447                  21316773.8394
        30.0004         26.0004
  23729538.5934   12555335.30146   9783373.75646                  23729546.2494
        18.2504         17.7504
  22767448.6794   -4834652.07847  -3745324.36846                  22767456.3584
        21.2504         21.0004
  22232990.0224   -2342776.90847  -1809398.88946                  22232997.6204
        24.7504         25.5004
  24066550.2654   15275703.12546  11825268.87646                  24066558.0154
        14.7504         13.2504
  21793616.7104    1525857.26648   1197086.23547                  21793623.6284
        30.2504         28.2504
  23868996.1874   -5995082.79346  -4548893.54546                  23869003.7144
        16.5004         16.0004
  24304099.0074   -3568632.61046  -2674018.30146                  24304106.7334
        13.2504         13.2504
 02  7  1 15 53 45.0030000  0  9G22G 6G10G15G17G30G23G18G29
  24613881.1794    -684792.91845   -490358.94745                  24613891.4954
         8.5004         10.2504
  21321351.3514    1769618.59048   1413528.29947                  21321357.3744
        30.0004         25.7504
  23742513.1324   12623518.46846   9836503.47546                  23742521.1404
        18.0004         17.2504
  22766061.4834   -4841943.21347  -3751005.76046                  22766068.9524
        21.2504         20.7504
  22233544.9524   -2339860.15247  -1807126.08446                  22233552.5734
        24.2504         25.5004
  24080794.7334   15350558.53346  11883597.72846                  24080801.8864
        15.5004         13.2504
  21798929.9294    1553779.16548   1218843.56047                  21798936.8004
        30.0004         28.2504
  23863809.5854   -6022340.02946  -4570132.93546                  23863816.9134
        17.7504         15.7504
  24303609.2654   -3571203.84546  -2676021.81546                  24303617.6594
        14.0004         13.2504
 02  7  1 15 54  0.0030000  0  9G22G 6G10G15G17G30G23G18G29
  24613091.1164    -688945.36245   -493594.57145                  24613101.7844
         8.5004         10.5004
  21325960.1404    1793838.03548   1432400.59447                  21325966.3154
        30.2504         26.0004
  23755506.8124   12691799.76246   9889709.65746                  23755514.8784
        18.0004         17.7504
  22764689.6244   -4849152.26147  -3756623.19346                  22764697.0114
        22.0004         20.7504
  22234115.5224   -2336862.71747  -1804790.42046                  22234122.7694
        25.0004         25.2504
  24095050.6324   15425473.48246  11941972.96946                  24095057.9374
        16.0004         13.2504
  21804272.7104    1581854.77448   1240720.66147                  21804279.6044
        31.0004         28.5004
  23858639.3274   -6049510.33746  -4591304.57846                  23858646.5154
        19.0004         16.5004
  24303143.6404   -3573652.36446  -2677929.75646                  24303151.2844
        14.5004         13.2504
 02  7  1 15 54 15.0030000  0  9G22G 6G10G15G17G30G23G18G29
  24612331.2184    -692942.13745   -496708.94245                  24612342.1794
         9.2504         10.2504
  21330595.3824    1818195.87548   1451380.72547                  21330601.7104
        29.5004         26.0004
  23768519.8584   12760184.53646   9942996.47846                  23768527.5264
        18.2504         18.0004
  22763334.1554   -4856273.68147  -3762172.33746                  22763341.9644
        21.7504         21.2504
  22234702.2494   -2333779.08447  -1802387.58546                  22234709.1794
        25.0004         25.5004
  24109318.9054   15500453.12746  12000398.63646                  24109326.4794
        15.5004         13.0004
  21809645.3514    1610089.49748   1262721.75147                  21809652.3394
        30.7504         28.7504
  23853486.4834   -6076588.00846  -4612404.02946                  23853494.0694
        18.2504         16.2504
  24302701.9914   -3575972.37646  -2679737.54546                  24302708.5304
        14.5004         12.7504
 02  7  1 15 54 30.0030000  0  9G22G 6G10G15G17G30G23G18G29
  24611599.2804    -696784.91045   -499703.29845                  24611609.2224
         9.7504         10.0004
  21335256.4134    1842690.55948   1470467.49247                  21335262.9874
        29.7504         25.7504
  23781552.4764   12828670.68346   9996362.27346                  23781560.4834
        18.0004         18.0004
  22761995.3194   -4863309.11147  -3767654.47846                  22762002.9994
        22.0004         21.5004
  22235305.1084   -2330610.91347  -1799918.88246                  22235311.8704
        24.7504         25.5004
  24123599.1944   15575495.54746  12058873.19846                  24123607.3314
        15.7504         13.0004
  21815048.3824    1638481.54948   1284845.42347                  21815055.3704
        30.5004         28.7504
  23848351.0384   -6103574.32246  -4633432.29746                  23848358.3784
        17.7504         16.0004
  24302285.1014   -3578165.24546  -2681446.24446                  24302291.2064
        14.7504         13.0004
 02  7  1 15 54 45.0030000  0  9G22G 6G10G15G17G30G23G18G29
  24610897.1014    -700476.57945   -502579.92445                  24610906.1164
         9.7504         10.5004
  21339942.9444    1867318.94248   1489658.44447                  21339949.5544
        29.7504         26.0004
  23794603.3744   12897254.64746  10049804.30346                  23794611.7104
        18.5004         18.0004
  22760672.3664   -4870261.74047  -3773072.09946                  22760680.0934
        22.0004         21.7504
  22235923.4524   -2327361.63147  -1797386.96846                  22235930.2724
        25.0004         25.2504
  24137890.2964   15650597.02846  12117393.79546                  24137897.5654
        15.7504         13.7504
  21820480.4444    1667027.58048   1307089.09047                  21820487.4564
        30.0004         28.5004
  23843232.3434   -6130472.30446  -4654391.74346                  23843238.9404
        17.2504         15.7504
  24301890.9604   -3580233.93146  -2683058.19646                  24301897.9134
        15.0004         13.2504
 02  7  1 15 55  0.0030000  0  9G22G 6G10G15G17G30G23G18G29
  24610225.6874    -704009.00445   -505332.42745                  24610235.0894
        10.0004         10.5004
  21344656.6714    1892089.13348   1508959.88847                  21344663.4564
        29.7504         26.0004
  23807674.7494   12965944.12846  10103328.54346                  23807683.3084
        18.2504         17.7504
  22759366.3904   -4877123.53847  -3778418.94146                  22759374.6444
        21.2504         21.7504
  22236558.8744   -2324023.08147  -1794785.49646                  22236565.7064
        23.7504         25.5004
  24152194.9054   15725765.21746  12175966.34946                  24152201.7494
        16.2504         13.7504
  21825943.5154    1695735.48348   1329458.88647                  21825950.5624
        30.5004         28.7504
  23838132.5154   -6157273.68046  -4675275.91746                  23838139.0194
        18.0004         16.2504
  24301522.7104   -3582170.07646  -2684566.85846                  24301528.8974
        15.2504         13.5004
 02  7  1 15 55 15.0030000  0  9G22G 6G10G15G17G30G23G18G29
  24609581.7334    -707390.02845   -507966.97245                  24609591.2184
        11.0004         10.5004
  21349395.6014    1916993.15248   1528365.61147                  21349402.3394
        29.2504         26.0004
  23820764.3124   13034730.64146  10156928.39246                  23820772.7884
        18.5004         17.7504
  22758076.6874   -4883902.55647  -3783701.28246                  22758084.8474
        21.5004         21.7504
  22237209.3584   -2320603.46547  -1792120.86246                  22237216.2654
        24.5004         25.2504
  24166509.6714   15800991.64546  12234584.31046                  24166516.9874
        16.0004         14.0004
  21831435.5074    1724597.01448   1351948.38547                  21831442.2804
        31.5004         28.7504
  23833049.0224   -6183986.23946  -4696090.88246                  23833056.1984
        18.2504         16.5004
  24301177.7414   -3583981.49946  -2685978.35046                  24301184.5504
        15.0004         13.7504
 02  7  1 15 55 30.0030000  0  9G22G 6G10G15G17G30G23G18G29
  24608967.3584    -710619.00445   -510483.02945                  24608977.2414
        11.0004         10.7504
  21354160.2264    1942031.65648   1547876.13747                  21354166.7884
        29.0004         26.0004
  23833872.7804   13103614.33746  10210603.97046                  23833881.0344
        18.7504         17.7504
  22756802.4444   -4890598.31247  -3788918.73446                  22756810.4994
        22.2504         21.7504
  22237875.9134   -2317102.16447  -1789392.56446                  22237883.1834
        24.2504         25.2504
  24180835.8124   15876276.50446  12293247.79146                  24180843.3274
        16.0004         14.2504
  21836957.0224    1753612.60848   1374557.94847                  21836963.7494
        31.5004         29.0004
  23827982.7804   -6210609.20846  -4716836.02246                  23827989.9094
        18.0004         16.0004
  24300856.9294   -3585667.36446  -2687291.98046                  24300864.6204
        14.7504         13.5004
 02  7  1 15 55 45.0030000  0  9G22G 6G10G15G17G30G23G18G29
  24608381.9604    -713693.60145   -512878.82045                  24608391.5264
        10.7504         10.5004
  21358951.0774    1967206.81548   1567493.14347                  21358957.9374
        29.0004         26.0004
  23846999.3584   13172596.93046  10264356.62546                  23847007.3784
        18.7504         17.2504
  22755544.4294   -4897208.80347  -3794069.77346                  22755552.2494
        22.5004         21.7504
  22238557.8274   -2313517.12047  -1786599.02746                  22238564.9214
        24.5004         25.2504
  24195173.6874   15951621.50246  12351958.13046                  24195181.4724
        15.7504         13.7504
  21842508.0934    1782784.20248   1397289.05847                  21842515.3394
        30.5004         29.0004
  23822934.2264   -6237140.32046  -4737509.59646                  23822941.1794
        18.5004         15.5004
  24300560.8124   -3587225.25246  -2688505.93046                  24300568.9604
        15.7504         14.0004
 02  7  1 15 56  0.0030000  0  9G22G 6G10G15G17G30G23G18G29
  24607826.9834    -716611.69145   -515152.58545                  24607835.9054
        10.5004         10.7504
  21363768.0854    1992520.75548   1587218.28347                  21363774.6014
        29.2504         26.0004
  23860145.3274   13241680.02446  10318187.57846                  23860153.3234
        18.7504         17.2504
  22754303.3124   -4903731.93147  -3799152.71946                  22754311.0504
        22.7504         21.7504
  22239256.6084   -2309846.50947  -1783738.80846                  22239263.5034
        23.5004         25.2504
  24209522.8194   16027028.29446  12410716.62446                  24209530.9684
        14.2504         13.5004
  21848089.4764    1812113.62648   1420143.14847                  21848096.6514
        30.7504         29.0004
  23817903.1244   -6263577.28146  -4758109.80746                  23817910.2534
        18.2504         16.0004
  24300288.9604   -3588653.06346  -2689618.48046                  24300295.9724
        15.2504         13.7504
 02  7  1 15 56 15.0030000  0  9G22G 6G10G15G17G30G23G18G29
  24607300.7494    -719375.12245   -517305.90445                  24607309.2024
         9.5004         10.0004
  21368611.0694    2017971.42748   1607049.96947                  21368617.2694
        30.2504         25.7504
  23873310.3904   13310861.20746  10372094.97446                  23873318.4684
        18.0004         16.7504
  22753078.2494   -4910169.84747  -3804169.27046                  22753086.1514
        22.2504         21.5004
  22239970.6404   -2306092.39347  -1780813.51446                  22239977.6754
        23.7504         25.2504
  24223883.6324   16102494.30746  12469521.25946                  24223891.7694
        13.2504         13.0004
  21853700.1714    1841598.53648   1443118.40247                  21853707.3004
        30.7504         29.0004
  23812890.0154   -6289921.94046  -4778638.10646                  23812897.0974
        19.0004         16.2504
  24300041.6084   -3589952.47546  -2690631.00046                  24300048.0544
        16.2504         13.2504
 02  7  1 15 56 30.0030000  0  9G22G 6G10G15G17G30G23G18G29
  24606804.8974    -721982.81845   -519337.84545                  24606814.5694
         9.5004         10.5004
  21373480.4524    2043559.92448   1626989.05647                  21373486.5934
        29.0004         25.7504
  23886493.7104   13380141.06946  10426079.26246                  23886502.3974
        17.7504         17.2504
  22751869.4764   -4916521.51447  -3809118.61146                  22751877.5074
        23.2504         21.7504
  22240701.3194   -2302253.82447  -1777822.42546                  22240708.1044
        24.5004         25.5004
  24238255.7024   16178020.13546  12528372.49946                  24238264.0974
        13.2504         13.2504
  21859340.7884    1871239.83448   1466215.52347                  21859347.7654
        32.0004         29.2504
  23807894.5304   -6316173.09546  -4799093.52946                  23807900.8824
        19.2504         16.2504
  24299818.8124   -3591122.28046  -2691542.52346                  24299825.4214
        15.0004         13.5004
 02  7  1 15 56 45.0030000  0  9G22G 6G10G15G17G30G23G18G29
  24606338.2334    -724434.05645   -521247.91845                  24606347.4604
         9.0004         10.0004
  21378376.2724    2069286.88648   1647036.03347                  21378382.5194
        29.2504         25.7504
  23899696.2104   13449519.78346  10480140.57046                  23899704.9214
        17.2504         17.0004
  22750677.0934   -4922786.33247  -3814000.27346                  22750685.1834
        22.0004         21.5004
  22241448.0074   -2298330.24347  -1774765.07647                  22241454.7694
        25.2504         25.7504
  24252639.1794   16253606.01046  12587270.55646                  24252648.2654
        13.2504         13.0004
  21865011.2104    1901037.85948   1489434.76447                  21865017.9604
        32.0004         29.0004
  23802917.2414   -6342330.00047  -4819475.51146                  23802923.5114
        20.2504         16.5004
  24299620.9604   -3592161.58446  -2692352.36146                  24299626.9484
        14.5004         13.0004
 02  7  1 15 57  0.0030000  0  9G22G 6G10G15G17G30G23G18G29
  24605901.6324    -726725.89645   -523033.72545                  24605910.2374
         9.2504         10.2504
  21383298.8044    2095155.12748   1667193.09947                  21383305.0264
        29.7504         25.7504
  23912917.9294   13518999.73746  10534280.74846                  23912926.7334
        17.0004         16.7504
  22749502.1084   -4928961.66547  -3818812.21046                  22749510.1514
        22.0004         21.5004
  22242211.1944   -2294319.00947  -1771639.44447                  22242218.0034
        25.0004         25.7504
  24267034.4764   16329254.32646  12646217.22646                  24267042.6944
        13.0004         13.0004
  21870711.7264    1930995.21148   1512778.16247                  21870718.2764
        31.5004         29.0004
  23797958.6244   -6368389.59947  -4839781.69746                  23797964.7884
        21.5004         16.2504
  24299448.3194   -3593067.51446  -2693058.26846                  24299454.7654
        14.0004         13.0004
 02  7  1 15 57 15.0030000  0  9G22G 6G10G15G17G30G23G18G29
  24605493.5854    -728869.32945   -524703.90645                  24605503.2454
         9.2504         10.2504
  21388246.1874    2121153.50848   1687451.57747                  21388252.3274
        29.5004         26.0004
  23926156.4764   13588569.34846  10588490.80546                  23926165.5384
        17.0004         16.7504
  22748341.8664   -4935058.75047  -3823563.18646                  22748349.7224
        22.7504         21.5004
  22242988.9764   -2290231.31447  -1768454.22247                  22242996.1044
        24.5004         26.0004
  24281439.6554   16404953.42246  12705203.48546                  24281448.3784
        12.7504         13.0004
  21876440.8434    1961100.54548   1536236.86347                  21876447.4994
        31.0004         28.5004
  23793015.9834   -6394362.88247  -4860020.60946                  23793022.0774
        20.5004         16.7504
  24299299.7884   -3593850.90646  -2693668.70846                  24299307.1634
        14.2504         13.2504
 02  7  1 15 57 30.0030000  0  9G22G 6G10G15G17G30G23G18G29
  24605115.5774    -730858.55045   -526253.92145                  24605126.2224
         9.0004         10.7504
  21393219.3124    2147287.90948   1707816.04047                  21393225.6514
        29.5004         26.0004
  23939413.4994   13658234.08346  10642774.99346                  23939421.8234
        17.5004         16.7504
  22747197.7884   -4941071.77047  -3828248.64846                  22747205.1044
        22.7504         21.2504
  22243782.5934   -2286061.41747  -1765204.95347                  22243789.7804
        24.5004         26.0004
  24295855.2024   16480708.63446  12764233.47146                  24295863.2574
        13.0004         12.7504
  21882198.8904    1991359.49548   1559815.26947                  21882205.4764
        31.0004         28.7504
  23788090.8514   -6420243.82546  -4880187.56746                  23788097.1674
        19.5004         16.2504
  24299174.8824   -3594505.59846  -2694178.81246                  24299182.9134
        14.7504         13.7504
 02  7  1 15 57 45.0030000  0  9G22G 6G10G15G17G30G23G18G29
  24604767.4444    -732686.64445   -527678.41845                  24604776.6244
         9.0004         10.2504
  21398219.8044    2173565.06648   1728291.74847                  21398225.9914
        28.2504         26.0004
  23952689.3274   13728000.10946  10697138.10446                  23952697.4764
        18.0004         16.2504
  22746070.6794   -4946994.21447  -3832863.53546                  22746077.8434
        22.7504         21.2504
  22244592.9444   -2281802.78347  -1761886.53547                  22244599.9684
        25.0004         26.2504
  24310283.2654   16556526.33946  12823312.14546                  24310291.4374
        13.2504         12.7504
  21887987.3434    2021778.52748   1583518.41047                  21887993.9524
        32.0004         28.5004
  23783184.5384   -6446025.54546  -4900277.22146                  23783191.1594
        19.2504         16.7504
  24299076.3274   -3595025.01346  -2694583.55546                  24299083.8664
        14.2504         13.5004
 02  7  1 15 58  0.0030000  0  9G22G 6G10G15G17G30G23G18G29
  24604448.1634    -734363.61245   -528985.08445                  24604457.4834
         9.5004         10.7504
  21403245.2494    2199974.92048   1748870.85447                  21403251.3784
        29.5004         26.2504
  23965982.6084   13797856.96946  10751571.99846                  23965990.0654
        18.0004         16.0004
  22744959.0154   -4952836.15947  -3837415.68646                  22744966.9294
        23.0004         21.7504
  22245418.3904   -2277465.56847  -1758506.88247                  22245425.4604
        25.0004         26.2504
  24324720.8974   16632395.94746  12882431.25046                  24324728.7654
        13.5004         12.7504
  21893804.3434    2052347.33648   1607338.26447                  21893810.8944
        31.2504         28.7504
  23778295.6714   -6471718.00146  -4920297.28846                  23778302.0344
        19.7504         16.7504
  24299001.1084   -3595418.77346  -2694890.38046                  24299009.4214
        13.5004         13.2504
 02  7  1 15 58 15.0030000  0  9G22G 6G10G15G17G30G23G18G29
  24604159.3274    -735884.32645   -530170.04245                  24604168.1674
         9.0004         10.2504
  21408297.1944    2226522.48648   1769557.25847                  21408303.2654
        29.5004         26.2504
  23979294.1244   13867809.24246  10806080.23346                  23979301.9444
        18.0004         16.2504
  22743863.6244   -4958592.62347  -3841901.23446                  22743871.5974
        23.0004         22.2504
  22246259.7024   -2273044.91647  -1755062.22147                  22246266.8664
        24.7504         26.5004
  24339169.3194   16708321.89146  12941594.27446                  24339176.7414
        13.5004         12.7504
  21899650.7264    2083070.71648   1631278.56147                  21899657.2884
        30.5004         28.5004
  23773424.4294   -6497316.07246  -4940243.83846                  23773430.6514
        19.5004         16.7504
  24298951.2414   -3595681.67046  -2695095.22346                  24298958.1474
        14.7504         13.5004
 02  7  1 15 58 30.0030000  0  9G22G 6G10G15G17G30G23G18G29
  24603900.2184    -737245.84945   -531230.98545                  24603909.5854
        10.0004         11.0004
  21413375.6874    2253210.68248   1790353.25247                  21413381.8744
        29.0004         26.2504
  23992624.3044   13937859.42146  10860664.75746                  23992631.9724
        17.7504         16.2504
  22742784.8584   -4964260.78647  -3846317.97546                  22742792.6554
        23.2504         22.5004
  22247117.0544   -2268538.02247  -1751550.35647                  22247124.1834
        25.0004         26.2504
  24353628.4764   16784306.81746  13000803.24746                  24353636.5194
        14.0004         12.7504
  21905527.1404    2113951.30448   1655341.35647                  21905533.6674
        30.2504         28.5004
  23768571.8044   -6522816.59046  -4960114.34946                  23768578.2374
        18.7504         16.7504
  24298926.5544   -3595810.67946  -2695195.73846                  24298933.6364
        15.2504         14.0004
 02  7  1 15 58 45.0030000  0  9G22G 6G10G15G17G30G23G18G29
  24603670.8974    -738451.02245   -532170.07245                  24603679.1634
        11.2504         11.0004
  21418480.6084    2280036.49648   1811256.48047                  21418487.1474
        29.2504         26.2504
  24005972.2804   14008004.08546  10915322.90846                  24005980.2884
        16.7504         16.2504
  22741722.4834   -4969843.74547  -3850668.32146                  22741730.0814
        23.0004         22.2504
  22247990.7494   -2263947.95647  -1747973.68047                  22247997.9604
        25.5004         26.2504
  24368098.6874   16860347.13346  13060055.37946                  24368106.0734
        14.0004         13.0004
  21911432.8194    2144985.81648   1679524.08747                  21911439.1714
        30.7504         28.2504
  23763737.2184   -6548222.44246  -4979911.10646                  23763744.0264
        18.2504         16.7504
  24298927.2184   -3595808.62046  -2695194.10446                  24298934.7924
        16.0004         14.0004
 02  7  1 15 59  0.0030000  0  9G22G 6G10G15G17G30G23G18G29
  24603471.7104    -739496.52445   -532984.75745                  24603480.3974
        11.2504         10.7504
  21423612.2574    2307003.29048   1832269.55647                  21423618.7494
        29.5004         26.2504
  24019338.8904   14078246.01946  10970056.85546                  24019347.1904
        16.7504         16.0004
  22740676.9374   -4975338.13447  -3854949.66846                  22740684.4174
        22.7504         22.2504
  22248880.6244   -2259271.46147  -1744329.66547                  22248887.8004
        25.7504         26.2504
  24382579.7574   16936445.74246  13119352.93646                  24382587.6124
        14.5004         12.2504
  21917368.3744    2176177.40948   1703829.22947                  21917374.8314
        30.5004         28.0004
  23758921.1164   -6573530.06546  -4999631.31846                  23758927.5854
        18.5004         16.5004
  24298952.8744   -3595671.98446  -2695087.62946                  24298960.4724
        16.0004         14.5004
 02  7  1 15 59 15.0030000  0  9G22G 6G10G15G17G30G23G18G29
  24603303.5304    -740381.06745   -533673.96645                  24603313.1554
        11.2504         11.0004
  21428770.8744    2334112.19048   1853393.36547                  21428777.4374
        29.5004         26.5004
  24032724.3434   14148586.01946  11024867.20846                  24032732.6324
        16.7504         15.7504
  22739648.2724   -4980742.94747  -3859161.19746                  22739655.8004
        22.7504         22.5004
  22249787.1244   -2254507.53647  -1740617.51147                  22249794.3824
        24.7504         26.0004
  24397072.2724   17012603.32846  13178696.46346                  24397079.0344
        14.5004         12.0004
  21923334.0544    2207527.00248   1728257.47547                  21923340.5584
        30.0004         28.0004
  23754124.2724   -6598738.20146  -5019274.00446                  23754130.5424
        19.5004         16.5004
  24299004.6474   -3595399.35046  -2694875.18546                  24299012.3274
        15.2504         14.5004
 02  7  1 15 59 30.0030000  0  9G22G 6G10G15G17G30G23G18G29
  24603164.6944    -741109.90945   -534241.86045                  24603174.0264
        11.5004         11.0004
  21433955.4764    2361357.85748   1874623.75347                  21433961.9794
        30.0004         26.0004
  24046126.9214   14219018.24146  11079749.43046                  24046134.4834
        16.2504         15.2504
  22738636.0304   -4986063.60747  -3863307.14646                  22738643.9914
        22.5004         22.7504
  22250709.1244   -2249661.68947  -1736841.52347                  22250716.3944
        24.2504         26.0004
  24411574.9684   17088814.11546  13238081.46346                  24411582.6124
        15.2504         13.0004
  21929328.7884    2239028.91748   1752804.42847                  21929335.0464
        30.7504         28.0004
  23749345.2724   -6623851.97346  -5038843.16246                  23749351.5544
        19.5004         16.2504
  24299081.8124   -3594995.96046  -2694560.82346                  24299090.0194
        15.7504         14.2504
 02  7  1 15 59 45.0030000  0  9G22G 6G10G15G17G30G23G18G29
  24603057.0854    -741675.89745   -534682.88445                  24603066.3124
        11.0004         11.2504
  21439167.6404    2388747.45248   1895966.29147                  21439173.8974
        30.5004         26.5004
  24059548.6324   14289549.28346  11134708.64846                  24059555.9724
        16.7504         15.0004
  22737640.7654   -4991293.17247  -3867382.13246                  22737648.3044
        23.7504         23.0004
  22251648.4214   -2244726.83647  -1732996.18546                  22251655.7374
        23.2504         25.5004
  24426088.8194   17165084.73146  13297513.07046                  24426096.4644
        14.5004         13.0004
  21935353.6014    2270690.04548   1777475.43647                  21935359.8704
        30.2504         28.0004
  23744585.4444   -6648864.22746  -5058333.21046                  23744592.1834
        19.2504         17.2504
  24299184.5544   -3594454.45446  -2694138.85146                  24299192.7724
        15.7504         14.2504
 02  7  1 16  0  0.0030000  0  9G22G 6G10G15G17G30G23G18G29
  24602979.9764    -742081.21845   -534998.72045                  24602988.8044
        11.2504         11.0004
  21444406.6164    2416278.72848   1917419.22847                  21444412.8154
        30.2504         26.2504
  24072988.8824   14360176.60046  11189742.89246                  24072996.6674
        16.7504         15.5004
  22736662.3584   -4996433.98147  -3871387.95646                  22736669.8154
        23.5004         22.5004
  22252603.8354   -2239705.55947  -1729083.49947                  22252611.1284
        24.5004         25.7504
  24440613.4524   17241412.48646  13356989.20546                  24440621.3434
        13.7504         13.2504
  21941408.4684    2302507.87148   1802268.54047                  21941414.5734
        30.0004         27.7504
  23739844.9524   -6673777.15246  -5077745.85746                  23739851.6324
        19.5004         17.0004
  24299313.4914   -3593776.99546  -2693610.95546                  24299320.7144
        17.0004         14.5004
 02  7  1 16  0 15.0030000  0  9G22G 6G10G15G17G30G23G18G29
  24602932.4214    -742328.68145   -535191.50645                  24602942.1874
        11.2504         11.5004
  21449672.0934    2443948.70248   1938980.24447                  21449678.3274
        30.0004         26.0004
  24086446.1944   14430896.80346  11244849.51346                  24086453.5224
        16.5004         15.2504
  22735700.4834   -5001489.08447  -3875326.98246                  22735708.1404
        23.2504         22.5004
  22253575.2804   -2234600.72247  -1725105.69847                  22253582.7024
        25.0004         26.0004
  24455148.5694   17317793.88046  13416507.11746                  24455157.3624
        12.5004         12.7504
  21947492.2574    2334479.17448   1827181.24347                  21947498.4334
        30.2504         27.7504
  23735122.5074   -6698593.36647  -5097083.14346                  23735128.6474
        20.0004         16.7504
  24299468.0694   -3592966.31646  -2692979.24346                  24299474.9294
        16.7504         14.5004
 02  7  1 16  0 30.0030000  0  9G22G 6G10G15G17G30G23G18G29
  24602914.7494    -742422.75745   -535264.79345                  24602924.7494
        10.7504         10.7504
  21454963.0224    2471752.86748   1960645.82447                  21454969.0344
        29.0004         25.7504
  24099920.6244   14501704.91346  11300024.64046                  24099928.0814
        17.0004         15.5004
  22734753.9134   -5006462.98447  -3879202.73746                  22734761.8864
        23.7504         23.0004
  22254561.7264   -2229416.91247  -1721066.36847                  22254569.3354
        25.5004         26.2504
  24469692.2264   17394224.00846  13476063.00746                  24469702.1324
        12.2504         13.5004
  21953604.5774    2366599.32048   1852209.93547                  21953610.9644
        30.0004         28.0004
  23730417.4684   -6723317.25646  -5116348.49546                  23730424.1834
        19.7504         16.7504
  24299646.8904   -3592026.54446  -2692246.94646                  24299654.6984
        16.7504         14.2504
 02  7  1 16  0 45.0030000  0  9G22G 6G10G15G17G30G23G18G29
  24602927.6014    -742357.72745   -535214.10945                  24602937.3194
        11.5004         11.0004
  21460280.4994    2499696.78548   1982420.29946                  21460286.6044
        28.5004         25.5004
  24113412.6324   14572605.99646  11355272.21346                  24113420.1944
        16.7504         15.0004
  22733823.9604   -5011350.19447  -3883010.93546                  22733832.1084
        23.7504         23.2504
  22255564.4294   -2224148.80547  -1716961.34847                  22255572.0624
        24.7504         26.2504
  24484246.5934   17470708.04946  13535660.88946                  24484255.6794
        12.0004         13.0004
  21959746.2184    2398873.56448   1877358.69347                  21959752.7224
        30.2504         28.0004
  23725731.4764   -6747943.11047  -5135537.44946                  23725737.6634
        20.0004         17.0004
  24299851.2184   -3590952.21046  -2691409.77946                  24299858.5114
        16.2504         14.5004
 02  7  1 16  1  0.0030000  0  9G22G 6G10G15G17G30G23G18G29
  24602969.1324    -742137.73645   -535042.68645                  24602979.2724
        11.5004         11.2504
  21465623.8664    2527776.37648   2004300.49946                  21465629.8784
        28.5004         25.5004
  24126921.7574   14643595.52246  11410588.69746                  24126929.2144
        16.7504         15.7504
  22732909.7494   -5016154.90147  -3886754.86746                  22732917.7104
        23.5004         23.0004
  22256582.0624   -2218800.54847  -1712793.87347                  22256589.5544
        24.7504         26.2504
  24498809.9604   17547241.35445  13595297.17446                  24498819.4444
        11.2504         13.2504
  21965916.2334    2431297.58048   1902624.16247                  21965922.8194
        29.7504         28.0004
  23721063.3194   -6772474.81447  -5154653.04746                  23721069.4374
        20.5004         17.0004
  24300080.5854   -3589747.07146  -2690470.70046                  24300088.3354
        15.7504         14.5004
 02  7  1 16  1 15.0030000  0  9G22G 6G10G15G17G30G23G18G29
  24603039.5854    -741764.99445   -534752.21045                  24603049.1044
        11.0004         11.0004
  21470992.5154    2555989.24848   2026284.54946                  21470998.4684
        28.0004         25.5004
  24140446.9134   14714670.62846  11465971.85746                  24140455.0734
        17.0004         15.7504
  22732010.7724   -5020879.59647  -3890436.43846                  22732018.4174
        23.7504         22.7504
  22257614.4684   -2213374.63647  -1708565.89147                  22257621.7024
        25.0004         26.2504
  24513383.2024   17623821.04845  13654969.57346                  24513392.5344
        11.5004         12.7504
  21972114.1634    2463868.64548   1928004.21047                  21972121.0814
        30.2504         28.0004
  23716412.9054   -6796914.56946  -5173696.99546                  23716419.1874
        19.5004         17.0004
  24300333.9914   -3588413.35346  -2689431.40446                  24300341.9524
        15.5004         14.7504
 02  7  1 16  1 30.0030000  0  9G22G 6G10G15G17G30G23G18G29
  24603141.1084    -741231.84445   -534336.75645                  24603151.1324
        11.2504         11.2504
  21476388.0854    2584342.99248   2048378.36346                  21476394.1324
        29.0004         25.5004
  24153989.4444   14785838.47146  11521427.30046                  24153997.7104
        16.5004         16.0004
  22731128.1944   -5025516.71747  -3894049.76546                  22731135.8624
        23.7504         22.2504
  22258663.3124   -2207863.59147  -1704271.57247                  22258670.3824
        25.2504         26.2504
  24527965.2264   17700454.41546  13714683.83346                  24527975.3314
        12.0004         12.7504
  21978341.7184    2496594.15748   1953504.60347                  21978348.6944
        28.7504         28.0004
  23711780.7804   -6821254.67046  -5192663.29046                  23711787.0624
        19.5004         16.7504
  24300614.0154   -3586943.36046  -2688285.95546                  24300622.6204
        15.2504         14.7504
 02  7  1 16  1 45.0030000  0  9G22G 6G10G15G17G30G23G18G29
  24603274.0624    -740537.14346   -533795.42245                  24603284.0154
        12.0004         11.5004
  21481810.7104    2612838.68248   2070582.79447                  21481816.7104
        29.5004         25.7504
  24167550.0304   14857099.73746  11576955.54246                  24167559.3394
        15.0004         15.0004
  22730262.7024   -5030065.23747  -3897594.05146                  22730270.5464
        23.2504         22.2504
  22259728.2964   -2202266.43447  -1699910.16347                  22259735.3784
        24.7504         25.7504
  24542558.9214   17777141.98945  13774440.32146                  24542568.5814
        11.7504         12.2504
  21984598.5544    2529474.92648   1979125.98847                  21984605.5304
        29.0004         28.0004
  23707168.2184   -6845493.91247  -5211550.98146                  23707174.6284
        20.5004         17.5004
  24300919.8904   -3585335.75946  -2687033.26346                  24300928.5194
        15.5004         14.5004
